[[{"header":{"parameterUnit":"m.s-1","parameterCategory":1,"la1":30.6,"la2":29.2853,"lo1":-89.7004,"lo2":-87.6739,"dy":0.0162,"dx":0.0183,"nx":112,"ny":82,"refTime":"2026-04-02T00:00:00:Z","depth":0,"parameterNumber":2,"parameterNumberName":"U-component_of_WINDS"},"data":[0.0,0.0,0.0,0.0,0.0,0.0,0.0,0.0,0.0,0.0,0.0,0.0,0.0,0.0,0.0,0.0,0.0,0.0,0.0,0.0,0.0,0.0,0.0,0.0,0.0,0.0,0.0,0.0,0.0,0.0,0.0,0.0,0.0,0.0,0.0,0.0,0.0,0.0,0.0,0.0,0.0,0.0,0.0,0.0,0.0,0.0,0.0,0.0,0.0,0.0,0.0,0.0,0.0,0.0,0.0,0.0,0.0,0.0,0.0,0.0,0.0,0.0,0.0,0.0,0.0,0.0,0.0,0.0,0.0,0.0,0.0,0.0,0.0,0.0,0.0,0.0,0.0,0.0,0.0,0.0,0.0,0.0,0.0,0.0,0.0,0.0,0.0,0.0,0.0,0.0,0.0,5.2114,6.0071,6.4309,6.2685,6.0689,5.7128,5.1539,0.0,0.0,0.0,0.0,0.0,0.0,0.0,0.0,0.0,0.0,0.0,0.0,0.0,0.0,0.0,0.0,0.0,0.0,0.0,0.0,0.0,0.0,0.0,0.0,0.0,0.0,0.0,0.0,0.0,0.0,0.0,0.0,0.0,0.0,0.0,0.0,0.0,0.0,0.0,0.0,0.0,0.0,0.0,0.0,0.0,0.0,0.0,0.0,0.0,0.0,0.0,0.0,0.0,0.0,0.0,0.0,0.0,0.0,0.0,0.0,0.0,0.0,0.0,0.0,0.0,0.0,0.0,0.0,0.0,0.0,0.0,0.0,0.0,0.0,0.0,0.0,0.0,0.0,0.0,0.0,0.0,0.0,0.0,0.0,0.0,0.0,0.0,0.0,0.0,0.0,0.0,0.0,0.0,0.0,0.0,0.0,0.0,0.0,0.0,0.0,0.0,0.0,0.0,0.0,4.9763,5.8786,6.3792,6.5618,6.3521,6.2448,5.8829,5.1641,0.0,0.0,0.0,0.0,0.0,0.0,0.0,0.0,0.0,0.0,0.0,0.0,0.0,0.0,0.0,0.0,0.0,0.0,0.0,0.0,0.0,0.0,0.0,0.0,0.0,0.0,0.0,0.0,0.0,0.0,0.0,0.0,0.0,0.0,0.0,0.0,0.0,0.0,0.0,0.0,0.0,0.0,0.0,0.0,0.0,0.0,0.0,0.0,0.0,0.0,0.0,0.0,0.0,0.0,0.0,0.0,0.0,0.0,0.0,0.0,0.0,0.0,0.0,0.0,0.0,0.0,0.0,0.0,0.0,0.0,0.0,0.0,0.0,0.0,0.0,0.0,0.0,0.0,0.0,0.0,0.0,0.0,0.0,0.0,0.0,0.0,0.0,0.0,0.0,0.0,0.0,0.0,0.0,0.0,0.0,0.0,0.0,0.0,0.0,0.0,0.0,0.0,0.0,4.9492,5.5698,6.164,6.4754,6.5533,6.3323,6.1678,5.8007,5.1435,4.5544,0.0,0.0,0.0,0.0,0.0,0.0,0.0,0.0,0.0,0.0,0.0,0.0,0.0,0.0,0.0,0.0,0.0,0.0,0.0,0.0,0.0,0.0,0.0,0.0,0.0,0.0,0.0,0.0,0.0,0.0,0.0,0.0,0.0,0.0,0.0,0.0,0.0,0.0,0.0,0.0,0.0,0.0,0.0,0.0,0.0,0.0,0.0,0.0,0.0,0.0,0.0,0.0,0.0,0.0,0.0,0.0,0.0,0.0,0.0,0.0,0.0,0.0,0.0,0.0,0.0,0.0,0.0,0.0,0.0,0.0,0.0,0.0,0.0,0.0,0.0,0.0,0.0,0.0,0.0,0.0,0.0,0.0,0.0,0.0,0.0,0.0,0.0,0.0,0.0,0.0,0.0,0.0,0.0,0.0,0.0,0.0,0.0,0.0,0.0,0.0,0.0,0.0,5.6528,6.1148,6.3305,6.5048,6.4999,6.2284,5.9958,5.6072,5.0114,4.4742,0.0,0.0,0.0,0.0,0.0,0.0,0.0,0.0,0.0,0.0,0.0,0.0,0.0,0.0,0.0,0.0,0.0,0.0,0.0,0.0,0.0,0.0,0.0,0.0,0.0,0.0,0.0,0.0,0.0,0.0,0.0,0.0,0.0,0.0,0.0,0.0,0.0,0.0,0.0,0.0,0.0,0.0,0.0,0.0,0.0,0.0,0.0,0.0,0.0,0.0,0.0,0.0,0.0,0.0,0.0,0.0,0.0,0.0,0.0,0.0,0.0,0.0,0.0,0.0,0.0,0.0,0.0,0.0,0.0,0.0,0.0,0.0,0.0,0.0,0.0,0.0,0.0,0.0,0.0,0.0,0.0,0.0,0.0,0.0,0.0,0.0,0.0,0.0,0.0,0.0,0.0,0.0,0.0,0.0,0.0,0.0,0.0,0.0,0.0,0.0,0.0,0.0,6.008,6.4372,6.4809,6.5548,6.4354,6.0258,5.7656,5.3417,4.6754,4.2522,0.0,0.0,0.0,0.0,0.0,0.0,0.0,0.0,0.0,0.0,0.0,0.0,0.0,0.0,0.0,0.0,0.0,0.0,0.0,0.0,0.0,0.0,0.0,0.0,0.0,0.0,0.0,0.0,0.0,0.0,0.0,0.0,0.0,0.0,0.0,0.0,0.0,0.0,0.0,0.0,0.0,0.0,0.0,0.0,0.0,0.0,0.0,0.0,0.0,0.0,0.0,0.0,0.0,0.0,0.0,0.0,0.0,0.0,0.0,0.0,0.0,0.0,0.0,0.0,0.0,0.0,0.0,0.0,0.0,0.0,0.0,0.0,0.0,0.0,0.0,0.0,0.0,0.0,0.0,0.0,0.0,0.0,0.0,0.0,0.0,0.0,0.0,0.0,0.0,0.0,0.0,0.0,0.0,0.0,0.0,0.0,0.0,0.0,0.0,0.0,0.0,0.0,5.9683,6.3918,0.0,6.4831,6.3645,6.0115,5.6998,5.2795,4.6987,0.0,0.0,0.0,0.0,0.0,0.0,0.0,0.0,0.0,0.0,0.0,0.0,0.0,0.0,0.0,0.0,0.0,0.0,0.0,0.0,0.0,0.0,0.0,0.0,0.0,0.0,0.0,0.0,0.0,0.0,0.0,0.0,0.0,0.0,0.0,0.0,0.0,0.0,0.0,0.0,0.0,0.0,0.0,0.0,0.0,0.0,0.0,0.0,0.0,0.0,0.0,0.0,0.0,0.0,0.0,0.0,0.0,0.0,0.0,0.0,0.0,0.0,0.0,0.0,0.0,0.0,0.0,0.0,0.0,0.0,0.0,0.0,0.0,0.0,0.0,0.0,0.0,0.0,0.0,0.0,0.0,0.0,0.0,0.0,0.0,0.0,0.0,0.0,0.0,0.0,0.0,0.0,0.0,0.0,0.0,0.0,0.0,0.0,0.0,0.0,0.0,0.0,5.2911,5.9476,6.3555,0.0,6.4183,6.2993,5.9605,5.6211,5.1928,4.6377,0.0,0.0,0.0,0.0,0.0,0.0,0.0,0.0,0.0,0.0,0.0,0.0,0.0,0.0,0.0,0.0,0.0,0.0,0.0,0.0,0.0,0.0,0.0,0.0,0.0,0.0,0.0,0.0,0.0,0.0,0.0,0.0,0.0,0.0,0.0,0.0,0.0,0.0,0.0,0.0,0.0,0.0,0.0,0.0,0.0,0.0,0.0,0.0,0.0,0.0,0.0,0.0,0.0,0.0,0.0,0.0,0.0,0.0,0.0,0.0,0.0,0.0,0.0,0.0,0.0,0.0,0.0,0.0,0.0,0.0,0.0,0.0,0.0,0.0,0.0,0.0,0.0,0.0,0.0,0.0,0.0,0.0,0.0,0.0,0.0,0.0,0.0,0.0,0.0,0.0,0.0,0.0,0.0,0.0,0.0,0.0,0.0,0.0,0.0,0.0,0.0,0.0,5.337,5.9981,6.379,6.3249,6.3756,6.2432,5.8381,5.5085,5.0576,0.0,0.0,0.0,0.0,0.0,0.0,0.0,0.0,0.0,0.0,0.0,0.0,0.0,0.0,0.0,0.0,0.0,0.0,0.0,0.0,0.0,0.0,0.0,0.0,0.0,0.0,0.0,0.0,0.0,0.0,0.0,0.0,0.0,0.0,0.0,0.0,0.0,0.0,0.0,0.0,0.0,0.0,0.0,0.0,0.0,0.0,0.0,0.0,0.0,0.0,0.0,0.0,0.0,0.0,0.0,0.0,0.0,0.0,0.0,0.0,0.0,0.0,0.0,0.0,0.0,0.0,0.0,0.0,0.0,0.0,0.0,0.0,0.0,0.0,0.0,0.0,0.0,0.0,0.0,0.0,0.0,0.0,0.0,0.0,0.0,0.0,0.0,0.0,0.0,0.0,0.0,0.0,0.0,0.0,0.0,0.0,0.0,0.0,0.0,0.0,0.0,0.0,0.0,0.0,5.9211,6.3111,6.3521,6.3584,6.2447,5.957,5.6804,5.2711,4.6748,0.0,0.0,0.0,0.0,0.0,0.0,0.0,0.0,0.0,0.0,0.0,0.0,0.0,0.0,0.0,0.0,0.0,0.0,0.0,0.0,0.0,0.0,0.0,0.0,0.0,0.0,0.0,0.0,0.0,0.0,0.0,0.0,0.0,0.0,0.0,0.0,0.0,0.0,0.0,0.0,0.0,0.0,0.0,0.0,0.0,0.0,0.0,0.0,0.0,0.0,0.0,0.0,0.0,0.0,0.0,0.0,0.0,0.0,0.0,0.0,0.0,0.0,0.0,0.0,0.0,0.0,0.0,0.0,0.0,0.0,0.0,0.0,0.0,0.0,0.0,0.0,0.0,0.0,0.0,0.0,0.0,0.0,0.0,0.0,0.0,0.0,0.0,0.0,0.0,0.0,0.0,0.0,0.0,0.0,0.0,0.0,0.0,0.0,0.0,0.0,0.0,0.0,5.259,5.8665,6.2537,6.3019,6.3416,6.2763,6.0562,5.8472,5.4685,4.8552,0.0,0.0,0.0,0.0,0.0,0.0,0.0,0.0,0.0,0.0,0.0,0.0,0.0,0.0,0.0,0.0,0.0,0.0,0.0,0.0,0.0,0.0,0.0,0.0,0.0,0.0,0.0,0.0,0.0,0.0,0.0,0.0,0.0,0.0,0.0,0.0,0.0,0.0,0.0,0.0,0.0,0.0,0.0,0.0,0.0,0.0,0.0,0.0,0.0,0.0,0.0,0.0,0.0,0.0,0.0,0.0,0.0,0.0,0.0,0.0,0.0,0.0,0.0,0.0,0.0,0.0,0.0,0.0,0.0,0.0,0.0,0.0,0.0,0.0,0.0,0.0,0.0,0.0,0.0,0.0,0.0,0.0,0.0,0.0,0.0,0.0,0.0,0.0,0.0,0.0,0.0,0.0,0.0,0.0,0.0,0.0,0.0,0.0,0.0,0.0,0.0,0.0,5.22,5.8392,6.2121,6.2181,6.3288,6.3228,6.1269,5.9937,5.6419,4.9875,0.0,0.0,0.0,0.0,0.0,0.0,0.0,0.0,0.0,0.0,0.0,0.0,0.0,0.0,0.0,0.0,0.0,0.0,0.0,0.0,0.0,0.0,0.0,0.0,0.0,0.0,0.0,0.0,0.0,0.0,0.0,0.0,0.0,0.0,0.0,0.0,0.0,0.0,0.0,0.0,0.0,0.0,0.0,0.0,0.0,0.0,0.0,0.0,0.0,0.0,0.0,0.0,0.0,0.0,0.0,0.0,0.0,0.0,0.0,0.0,4.1738,0.0,0.0,0.0,0.0,0.0,0.0,0.0,0.0,0.0,0.0,0.0,0.0,0.0,0.0,0.0,0.0,0.0,0.0,0.0,0.0,0.0,0.0,0.0,0.0,0.0,0.0,0.0,0.0,0.0,0.0,0.0,0.0,0.0,0.0,0.0,0.0,0.0,0.0,0.0,0.0,0.0,5.2487,5.8507,6.2315,6.2824,6.3542,6.3228,6.1269,6.0356,5.7274,5.1187,0.0,0.0,0.0,0.0,0.0,0.0,0.0,0.0,0.0,0.0,0.0,0.0,0.0,0.0,0.0,0.0,0.0,0.0,0.0,0.0,0.0,0.0,0.0,0.0,0.0,0.0,0.0,0.0,0.0,0.0,0.0,0.0,0.0,0.0,0.0,0.0,0.0,0.0,0.0,0.0,0.0,0.0,0.0,0.0,0.0,0.0,0.0,0.0,0.0,0.0,0.0,0.0,0.0,0.0,0.0,0.0,0.0,0.0,0.0,0.0,0.0,4.4884,0.0,0.0,0.0,0.0,0.0,0.0,0.0,0.0,0.0,0.0,0.0,0.0,0.0,0.0,0.0,0.0,0.0,0.0,0.0,0.0,0.0,0.0,0.0,0.0,0.0,0.0,0.0,0.0,0.0,0.0,0.0,0.0,0.0,0.0,0.0,0.0,0.0,0.0,0.0,0.0,5.2474,5.9017,6.3139,6.3512,6.4395,6.4186,6.2241,6.1433,5.865,5.3012,4.9224,0.0,0.0,0.0,0.0,0.0,0.0,0.0,0.0,0.0,0.0,0.0,0.0,0.0,0.0,0.0,0.0,0.0,0.0,0.0,0.0,0.0,0.0,0.0,0.0,0.0,0.0,0.0,0.0,0.0,0.0,0.0,0.0,0.0,0.0,0.0,0.0,0.0,0.0,0.0,0.0,0.0,0.0,0.0,0.0,0.0,0.0,0.0,0.0,0.0,0.0,0.0,0.0,0.0,5.6547,5.7539,5.8289,5.8904,5.9578,6.0006,5.5207,5.2547,5.1496,4.9398,0.0,0.0,0.0,0.0,0.0,0.0,0.0,0.0,0.0,0.0,0.0,0.0,0.0,0.0,0.0,0.0,0.0,0.0,0.0,0.0,0.0,0.0,0.0,0.0,5.1596,5.0842,0.0,0.0,0.0,0.0,0.0,0.0,0.0,0.0,0.0,0.0,0.0,0.0,5.2558,5.9578,6.4006,6.4006,6.5203,6.5203,6.3287,6.2584,6.0116,5.5017,5.1839,4.787,0.0,0.0,0.0,0.0,0.0,0.0,0.0,0.0,0.0,0.0,0.0,0.0,0.0,0.0,0.0,0.0,0.0,0.0,0.0,0.0,0.0,0.0,0.0,0.0,0.0,0.0,0.0,0.0,0.0,0.0,0.0,0.0,3.8476,3.9396,0.0,0.0,0.0,0.0,0.0,0.0,0.0,0.0,0.0,0.0,0.0,0.0,0.0,5.4581,5.7233,5.9232,6.0856,6.2085,6.2695,6.3383,6.4089,6.4178,6.463,6.5348,6.5194,0.0,5.7703,5.6114,0.0,0.0,0.0,0.0,0.0,0.0,0.0,0.0,0.0,0.0,0.0,0.0,0.0,0.0,0.0,0.0,0.0,0.0,0.0,0.0,0.0,0.0,5.4414,5.519,5.6277,5.6955,0.0,5.3166,4.978,4.6964,4.4515,0.0,0.0,0.0,0.0,0.0,0.0,0.0,5.3341,5.9877,6.4006,6.4006,6.5203,6.5203,6.3287,6.3003,6.1178,5.6974,5.473,5.1708,4.7559,4.4187,0.0,0.0,0.0,0.0,0.0,0.0,0.0,0.0,0.0,0.0,0.0,0.0,0.0,0.0,0.0,0.0,0.0,0.0,0.0,0.0,0.0,0.0,0.0,0.0,0.0,0.0,0.0,0.0,0.0,4.0297,4.3342,4.3274,4.391,4.3876,0.0,0.0,0.0,0.0,0.0,0.0,0.0,0.0,0.0,5.6114,5.8829,6.1442,6.4015,6.5581,6.6915,6.7949,6.8004,6.841,6.9134,6.9548,6.993,7.0235,7.0572,6.9076,6.6133,6.242,5.9607,5.7282,0.0,0.0,0.0,0.0,5.3265,5.4082,5.5009,5.3989,0.0,5.0726,0.0,0.0,0.0,0.0,0.0,0.0,0.0,0.0,0.0,0.0,5.8125,5.877,5.9967,6.0805,6.0446,5.8913,5.6468,0.0,4.923,4.6077,4.2957,0.0,0.0,0.0,0.0,0.0,5.4683,6.0745,6.456,6.456,6.5772,6.6071,6.4814,6.4725,6.3348,6.0116,5.8756,5.6303,5.2348,4.9333,4.6012,0.0,0.0,0.0,0.0,0.0,0.0,0.0,0.0,0.0,0.0,0.0,0.0,0.0,0.0,0.0,0.0,0.0,0.0,0.0,0.0,0.0,0.0,0.0,0.0,0.0,0.0,0.0,0.0,4.4939,4.8112,4.7733,4.8511,4.8563,0.0,0.0,0.0,0.0,0.0,0.0,5.4428,5.6603,5.9098,6.1873,6.4516,6.6922,6.9044,7.0248,7.1057,7.1515,7.1323,7.1534,7.2087,7.2637,7.2888,7.2888,7.3093,7.2732,7.1755,6.7389,6.4456,6.2308,5.8781,5.7879,5.8498,5.8302,5.8831,5.9824,6.1078,6.0391,5.8729,5.7285,5.4943,5.2378,5.0405,0.0,0.0,0.0,0.0,5.2498,5.5829,5.8754,6.1028,6.1702,6.275,6.3438,6.2959,6.272,6.1313,0.0,5.3408,5.0205,4.7529,0.0,0.0,0.0,0.0,5.1911,5.6372,6.1672,6.5054,6.5233,6.6161,6.646,6.5787,6.5592,6.4515,6.2241,6.1479,5.9534,5.6077,5.3713,5.0619,4.664,0.0,0.0,0.0,0.0,0.0,0.0,0.0,0.0,0.0,0.0,0.0,0.0,0.0,0.0,0.0,0.0,0.0,0.0,0.0,0.0,0.0,0.0,0.0,0.0,0.0,0.0,0.0,0.0,0.0,5.3044,5.4389,0.0,0.0,0.0,0.0,5.504,5.7691,5.9564,6.0324,6.2471,6.4707,6.6946,6.8524,7.0013,7.1428,7.2302,7.2352,7.1614,7.1639,7.169,7.1721,7.1752,7.1798,7.1829,7.2514,7.2421,7.1622,7.0266,6.88,6.7147,6.4094,6.3334,6.393,6.3207,6.4019,6.5485,6.5479,6.5218,6.453,6.2413,5.9164,5.5838,5.4575,5.3591,0.0,0.0,5.5588,5.7223,5.9306,6.1401,6.3093,6.3707,6.4381,6.4904,6.4845,6.4351,6.2899,0.0,5.7257,5.4995,5.2306,0.0,4.7538,4.9609,5.1666,5.4456,5.8441,6.2496,6.5233,6.5877,6.5996,6.5787,6.5114,6.4485,6.3528,6.2181,6.1479,6.0162,5.8025,5.6658,5.4042,5.0028,4.67,0.0,0.0,0.0,0.0,0.0,0.0,0.0,0.0,0.0,0.0,0.0,0.0,0.0,0.0,0.0,0.0,0.0,0.0,0.0,0.0,0.0,0.0,0.0,0.0,0.0,0.0,0.0,0.0,5.9142,6.096,0.0,5.9879,5.8402,5.8289,6.0065,6.2282,6.4099,6.5307,6.742,6.9169,7.0467,7.2348,7.3403,7.3519,7.4086,7.4044,7.3386,7.2785,7.2463,7.2463,7.2463,7.2463,7.2493,7.2752,7.2722,7.2418,7.1564,7.0343,6.875,6.6774,6.6152,6.634,6.6121,6.645,6.7142,6.7837,6.7432,6.6308,6.4251,6.1982,5.9867,5.8892,5.8225,5.7963,5.8879,5.9699,6.0655,6.2211,6.3767,6.5024,6.5233,6.5802,6.6176,6.5727,6.4784,6.3647,6.248,6.0685,5.8919,5.7526,5.4922,5.3545,5.5064,5.5872,5.7483,6.0625,6.3364,6.5263,6.5936,6.5996,6.5906,6.5667,6.5039,6.4261,6.3378,6.3109,6.2077,6.0103,5.9189,5.6838,5.2851,4.992,4.6102,0.0,0.0,0.0,0.0,0.0,0.0,0.0,0.0,0.0,0.0,0.0,0.0,0.0,0.0,0.0,0.0,0.0,0.0,0.0,0.0,0.0,0.0,0.0,0.0,0.0,0.0,6.2364,6.3616,6.5462,6.6041,6.4409,6.2845,6.2566,6.411,6.5745,6.7304,6.878,7.0195,7.1407,7.2371,7.3791,7.4478,7.4367,7.4748,7.4637,7.4036,7.3276,7.2907,7.2907,7.2907,7.2907,7.2907,7.2907,7.2907,7.2877,7.2415,7.1644,7.0586,6.9174,6.8806,6.8975,6.8975,6.9196,6.9504,7.0019,6.9466,6.8326,6.6793,6.5437,6.4341,6.3789,6.3407,6.3282,6.389,6.4228,6.4605,6.5473,6.634,6.7029,6.7029,6.7358,6.7418,6.652,6.5293,6.4276,6.4036,6.263,6.1313,6.0848,5.9142,5.8215,5.9295,5.9444,6.0342,6.278,6.4411,6.5607,6.6281,6.6116,6.5906,6.5697,6.5039,6.4291,6.3408,6.3139,6.2331,6.0835,6.0116,5.8201,5.494,5.1146,4.686,4.2041,0.0,0.0,0.0,0.0,0.0,0.0,0.0,0.0,0.0,0.0,0.0,0.0,0.0,0.0,0.0,0.0,0.0,0.0,0.0,0.0,0.0,0.0,0.0,5.2925,5.9061,6.4046,6.6249,6.7835,6.8406,6.7541,6.6244,6.6001,6.7292,6.82,6.9258,7.0596,7.0656,7.1277,7.2646,7.2739,7.3105,7.3828,7.423,7.4081,7.3438,7.312,7.2967,7.2967,7.2967,7.2967,7.2967,7.2967,7.2967,7.2967,7.2937,7.2937,7.2787,7.1487,7.1368,7.1923,7.1923,7.2325,7.2787,7.2116,7.1457,7.0799,7.0187,6.9558,6.9004,6.8974,6.8974,6.8944,6.8914,6.8914,6.8914,6.8914,6.8914,6.8944,6.8974,6.8974,6.8645,6.7313,6.5966,6.4815,6.4186,6.3019,6.2151,6.2151,6.1642,6.1449,6.2091,6.2181,0.0,6.48,6.5607,6.6251,6.6924,6.64,6.5727,6.5054,6.4351,6.3438,6.2151,6.1433,6.0745,6.007,5.9398,5.8112,5.6132,5.0343,4.5424,4.1523,0.0,0.0,0.0,0.0,0.0,0.0,0.0,0.0,0.0,0.0,0.0,0.0,0.0,0.0,0.0,0.0,0.0,0.0,0.0,0.0,0.0,0.0,5.3299,5.59,6.1795,6.6651,6.8814,7.0819,7.1769,7.1131,7.0161,6.955,6.9485,6.9961,7.0044,6.9514,6.9923,7.0151,7.0045,7.0938,7.175,7.2419,7.3994,7.4656,7.45,7.4381,7.4347,7.4347,7.4347,7.4347,7.4347,7.4347,7.4347,7.4317,7.3821,7.3642,7.3552,7.2668,7.2458,7.2624,7.2624,7.2727,7.2787,7.2116,7.1457,7.0799,7.0187,6.9558,6.8914,6.8421,6.8271,6.8062,6.7089,6.6804,6.6804,6.6804,6.7178,6.7657,6.8151,6.866,6.8764,6.7912,6.6281,6.5084,6.5398,6.4395,6.3468,6.3468,6.3723,6.3977,6.4157,6.4201,0.0,6.5577,6.5877,6.6251,6.6924,6.64,6.5727,6.5054,6.3977,6.2794,6.1449,6.0282,5.9355,5.8667,5.8022,5.6509,5.4067,5.0564,4.7271,0.0,0.0,0.0,0.0,0.0,0.0,0.0,0.0,0.0,0.0,0.0,0.0,0.0,0.0,0.0,0.0,0.0,0.0,0.0,0.0,0.0,0.0,5.3104,5.7101,5.9791,6.4215,6.7832,6.9732,7.153,7.2388,7.1853,7.1202,7.0694,7.037,7.0691,7.059,6.9842,6.9917,6.9947,6.9812,7.05,7.1368,7.2295,7.4048,7.4886,7.4886,7.4886,7.4886,7.4886,7.4886,7.4886,7.4886,7.4886,7.4886,7.4856,7.4467,7.4317,0.0,0.0,0.0,0.0,0.0,7.3732,7.3642,7.297,7.2295,7.1637,7.0995,7.032,6.9662,6.9019,6.863,6.8151,6.6789,6.6221,6.5996,6.5996,6.6715,6.7583,6.8271,6.9123,6.9542,6.863,6.7059,6.5877,6.5966,6.5368,0.0,6.5203,6.5592,6.5847,6.5847,6.5847,6.5966,6.637,6.643,6.658,6.6954,6.664,6.6161,6.5488,6.4485,0.0,0.0,0.0,5.9099,5.8145,5.7739,0.0,0.0,0.0,0.0,0.0,0.0,0.0,0.0,4.4227,4.5364,0.0,0.0,0.0,0.0,0.0,0.0,0.0,0.0,0.0,0.0,0.0,0.0,0.0,0.0,0.0,0.0,5.6818,6.0565,6.3767,6.6281,6.8272,6.9569,7.0918,7.1499,7.0985,7.0725,7.0627,7.0664,7.1021,7.1188,7.1009,0.0,0.0,0.0,0.0,7.1637,7.2877,7.4227,7.4886,7.4886,7.4886,7.4886,7.4886,7.4886,7.4886,7.4886,7.4886,7.4886,7.4886,7.4886,7.4886,7.4766,7.3582,7.3492,7.4061,7.4676,7.4886,7.4796,7.4121,0.0,0.0,7.2235,7.1547,7.0889,7.0277,6.9588,6.8704,6.7373,6.652,6.5996,6.5996,6.6999,6.8167,6.8824,6.9961,7.056,6.9363,6.8106,6.7029,6.6399,6.619,6.6308,6.6981,6.7162,6.7194,6.7134,6.7104,6.7104,6.7014,6.7014,6.7014,6.7014,0.0,0.0,6.6056,6.5398,6.4201,6.2331,6.0878,5.9488,5.8158,5.8234,5.8008,5.7347,5.6346,5.5538,5.4867,5.4413,5.4503,5.5029,5.1582,5.1043,0.0,0.0,0.0,0.0,0.0,0.0,0.0,0.0,0.0,0.0,0.0,0.0,0.0,0.0,0.0,5.5872,5.9364,6.248,6.5218,6.7876,6.9628,6.9915,7.1061,7.1813,7.1714,7.2114,7.239,7.2424,7.2987,7.2834,7.1773,7.1593,7.1354,7.0919,7.1427,7.2086,7.2877,7.4227,7.4886,7.4886,0.0,0.0,7.4886,7.4886,7.4886,7.4886,7.4886,7.4886,7.4886,7.4886,7.4886,7.4856,7.4616,7.4587,7.4706,7.4856,7.4886,7.4796,7.4121,7.3821,7.3582,7.2924,7.2265,7.1577,7.0919,6.9931,0.0,6.7373,6.652,6.5996,6.5996,6.6999,6.8167,6.8824,6.9961,7.0709,6.9977,6.9199,6.8461,6.8012,6.7269,6.6948,6.7612,6.8207,6.8435,6.7882,6.7808,6.7613,6.7074,6.7014,6.7014,6.7014,6.7014,6.6729,6.6056,6.5398,6.4411,6.3003,6.1148,5.9488,5.8158,5.9129,5.9398,5.874,5.9534,5.9638,5.8963,5.9907,6.0446,6.0475,5.609,5.5401,0.0,0.0,0.0,0.0,0.0,0.0,0.0,0.0,0.0,0.0,0.0,4.6098,4.9015,0.0,5.5596,5.8794,6.1968,6.4725,6.67,6.9289,7.0815,7.0486,7.1324,7.2042,7.2355,7.2698,7.2907,7.2907,7.3522,7.3462,7.2445,7.2385,7.2265,7.189,7.2235,7.2714,7.3402,7.4407,7.4886,7.4886,7.4886,7.4886,7.4886,7.4886,7.4886,7.4886,7.4886,7.4886,7.4886,7.4886,7.4886,7.4886,7.4886,7.4886,7.4886,7.4886,7.4886,7.4856,7.4527,7.4197,7.3851,7.3522,7.2714,7.1773,7.1098,7.0021,6.8794,6.7792,6.7014,6.658,6.6909,6.8002,6.9169,6.9812,7.0949,7.1816,7.1517,7.0919,7.0295,6.9729,6.8452,6.7608,6.7986,6.8313,6.8465,6.8252,6.8102,6.7836,6.7291,6.6808,6.6429,6.6259,6.6087,6.5938,6.5768,6.5125,6.4397,6.3588,6.2315,6.1297,6.0625,6.1238,6.1447,6.1118,6.1762,6.2061,6.2046,6.272,6.3228,6.3483,6.118,6.0625,0.0,0.0,0.0,0.0,0.0,0.0,0.0,0.0,4.3495,4.588,4.8662,5.1414,5.3887,5.6722,5.9371,6.1509,6.4201,6.652,6.7972,7.0217,7.1564,7.1128,7.1803,7.2505,7.3027,7.3206,7.3283,7.3283,7.3791,7.3851,7.3313,7.3283,7.3283,7.3283,7.3283,7.3552,7.4108,7.4616,7.4886,7.4886,7.4886,7.4886,7.4886,7.4886,7.4886,7.4886,7.4886,7.4886,7.4886,7.4886,7.4886,7.4886,7.4886,7.4886,7.4886,7.4886,7.4886,7.4886,7.4886,7.4557,7.4091,7.4091,7.327,7.2192,7.1637,7.059,6.9453,6.89,6.8271,6.7882,6.8421,6.9468,7.047,7.0897,7.1861,7.266,7.2576,7.2062,7.1349,7.043,6.895,6.7793,6.7684,6.7662,6.7839,6.8326,6.8405,6.819,6.7662,6.6672,6.586,6.543,6.4949,6.4945,6.5542,6.5266,6.4976,6.48,6.432,6.3991,6.3871,6.3976,6.4051,6.4051,6.4171,6.45,6.4964,6.4964,6.5248,6.5787,6.5787,6.5278,3.7336,3.9257,4.2576,4.4732,4.6121,4.7212,0.0,0.0,4.8806,5.1162,5.3662,5.6042,5.8082,5.9714,6.1598,6.4157,6.5368,6.667,6.8615,7.0111,7.1188,7.1743,7.291,7.3702,7.3762,7.4317,7.4676,7.4676,7.4736,7.4766,7.4676,7.4676,7.4676,7.4676,7.4676,7.4706,7.4796,7.4856,7.4886,7.4886,7.4886,7.4886,7.4886,7.4886,7.4886,7.4886,7.4886,7.4886,7.4886,7.4886,7.4886,7.4886,7.4886,7.4886,7.4886,7.4886,7.4886,7.4886,7.4886,7.4856,7.4796,7.4796,7.4287,7.3642,7.3582,7.2624,7.1564,7.1474,7.0995,7.047,7.056,7.1128,7.1631,7.1391,7.1638,7.182,7.1474,7.1042,7.0245,6.8632,6.7584,6.6685,6.5864,6.5937,6.6658,6.8082,6.9171,6.9319,6.8007,6.6834,6.5832,6.5133,6.4109,6.4177,6.5898,6.6614,6.7141,6.7536,6.7479,6.7164,6.6595,6.7149,6.7449,6.7449,6.8032,6.8375,6.8435,6.8435,6.8465,6.8555,6.8555,6.7567,4.0488,4.2124,4.502,0.0,5.0246,5.1838,5.3071,5.3845,5.4807,5.6548,5.8957,6.0998,6.1792,6.3034,6.4321,0.0,6.6804,6.8046,6.8884,7.0769,7.1876,7.1368,7.1816,7.2475,7.3253,7.3582,7.3881,7.4287,7.4676,7.4886,7.4886,7.4886,7.4886,7.4886,7.4886,7.4886,7.4886,7.4886,7.4886,7.4886,7.4886,7.4886,7.4886,7.4886,7.4886,7.4886,7.4886,7.5125,7.5467,7.5467,7.5677,7.6006,7.6006,7.6006,7.5916,7.5155,7.4886,7.4886,7.4886,7.4886,7.4886,7.4886,7.4437,7.3881,7.3881,7.3223,7.2565,7.2954,7.2864,7.2744,7.315,7.3449,7.3477,7.2883,7.229,7.1684,7.1047,6.9927,6.8694,6.7533,6.5919,6.4691,6.4641,6.4456,6.4818,6.6283,6.7757,6.8271,6.7007,6.5701,6.4344,6.2935,6.2752,6.3293,6.4753,6.5574,6.6397,6.7238,6.7302,6.7185,6.6904,6.7393,6.7748,6.7955,6.8413,6.8768,6.9004,6.9004,6.9004,6.9004,6.9004,6.8555,4.3339,0.0,0.0,5.1397,5.4072,5.6137,5.7287,5.8411,5.9534,6.0699,6.2435,6.3797,6.3977,6.4784,6.5622,6.6191,6.7807,6.9064,6.9227,7.1188,7.2146,7.0799,7.05,7.0769,7.171,7.2325,7.2894,7.3582,7.4407,7.4886,7.4886,7.4886,7.4886,7.4886,7.4886,7.4886,7.4886,7.4886,7.4886,7.4886,7.4886,7.4886,7.4886,7.4886,7.4886,7.4916,7.5095,7.5437,7.5916,7.6078,7.6407,7.6779,7.6779,7.6779,7.6706,7.5766,7.5335,7.5185,7.5185,7.5035,7.4886,7.4886,7.4557,7.418,7.4032,7.3584,7.3185,7.3623,7.3622,7.3655,7.4147,7.4283,7.4028,7.3122,7.2057,7.1006,7.0117,6.8649,6.7261,6.633,6.4664,6.3445,6.3606,6.3342,6.349,6.4596,6.5997,6.6725,6.6087,6.4538,6.2821,6.1143,6.1505,6.2373,6.3666,6.4467,6.5454,6.6764,6.6832,6.6832,6.6832,6.7161,6.7638,6.8167,6.8494,6.9012,6.9782,6.9782,6.9901,7.0081,7.0081,7.0081,0.0,0.0,5.1666,5.4401,5.7526,6.01,6.0791,6.1493,6.2181,6.2868,6.3063,6.3303,6.3887,6.4036,6.4695,6.6655,6.8106,6.9213,6.9796,7.1068,7.1474,7.0187,6.9453,6.9064,0.0,7.0799,7.2206,7.2877,7.4168,7.4886,7.4886,7.4886,7.4886,7.4886,7.4886,7.4886,7.4886,7.4886,7.4886,7.4886,7.4886,7.4886,7.4886,7.4886,7.4886,7.4946,7.5587,7.5886,7.5946,7.6527,7.6779,7.6779,7.6779,7.6779,7.6779,7.6766,7.6377,7.5886,7.5886,7.5437,7.4886,7.4886,7.4886,7.4787,7.4409,7.3998,7.362,7.3316,7.2928,7.2655,7.2655,7.2655,7.2369,7.1174,7.0247,6.9336,6.8146,6.7226,6.6233,6.4841,6.4221,6.3583,6.2622,6.2709,6.3072,6.3562,6.4288,6.505,6.5726,6.3668,6.1685,6.0451,6.0571,6.1417,6.3095,6.3945,6.5132,6.6771,6.6917,6.6917,6.6917,6.7168,6.7799,6.8843,6.9142,7.0109,7.1803,7.1803,7.2146,7.2787,7.2787,7.2787,4.726,0.0,5.394,5.7034,5.9951,6.2255,6.2869,6.3887,6.4515,6.3827,6.3692,6.3767,6.3947,6.4351,6.5308,6.7343,6.9498,7.0979,7.1188,7.1996,7.2086,7.0739,6.9662,0.0,0.0,0.0,0.0,7.1487,7.2834,7.3762,7.4227,7.4646,7.4886,7.4886,7.4886,7.4886,7.4886,7.4886,7.4886,7.4903,7.5347,7.5766,7.6168,7.6168,7.6168,7.6168,7.6407,7.6736,7.7185,7.7365,7.7741,7.813,7.813,7.813,7.813,7.813,7.7711,7.7053,7.6168,7.5455,7.4886,7.4886,7.4886,7.4766,7.4097,7.3252,7.2379,7.1733,7.0852,7.0154,7.0154,7.0154,6.9913,6.898,6.7874,6.6844,6.5942,6.4862,6.3942,6.3456,6.2965,6.2621,6.2663,6.2465,6.2478,6.2999,6.3571,6.3939,6.3875,6.2412,6.1098,6.037,6.0648,6.1313,6.2362,6.3319,6.4312,6.5359,6.5461,6.5461,6.5461,6.569,6.6354,6.7435,6.8109,6.9107,7.0459,7.0836,7.1141,7.1376,7.1376,7.1376,5.0313,5.3815,5.7004,5.9817,6.2345,6.4231,6.4635,6.5383,6.5562,6.4006,6.2929,6.2241,6.2241,6.281,6.4052,6.652,6.9512,7.1623,7.1863,7.2475,7.2398,7.1068,6.9991,6.899,0.0,0.0,0.0,7.0141,7.1667,7.2834,7.3522,7.4407,7.4886,7.4886,7.4886,7.4886,7.4886,7.4886,7.5006,7.5275,7.5916,7.6437,7.6779,7.6779,7.6779,7.6808,7.7065,7.7394,7.7831,7.8071,7.84,7.8807,7.8807,7.8807,7.8807,7.8807,7.837,7.7646,7.6697,7.5829,7.514,7.5001,7.4843,7.4533,7.3599,7.255,7.1486,7.0539,6.9337,6.8381,6.8381,6.8236,6.7863,6.7037,6.6105,6.5207,6.4449,6.3488,6.2802,6.2802,6.2526,6.24,6.2752,6.2501,6.24,6.2752,6.3099,6.3209,6.2893,6.1979,6.1236,6.0934,6.1,6.1323,6.2009,6.2655,6.3291,6.3961,6.4026,6.4026,6.4026,6.4286,6.4945,6.6046,6.6668,6.766,6.9069,6.9451,6.9765,6.9993,6.9993,6.9993,5.4384,5.7885,6.0848,6.2764,6.468,6.6086,6.6011,6.5966,6.5383,6.3363,6.0745,5.886,0.0,0.0,6.0954,6.4306,6.824,7.1098,7.1803,7.2475,7.2428,0.0,0.0,0.0,0.0,0.0,0.0,6.9004,0.0,7.2162,7.2847,7.4151,7.4933,7.4946,7.4946,7.4976,7.5006,7.5006,7.5335,7.5988,7.6587,7.6868,7.6916,7.6916,7.6916,7.6946,7.7574,7.7861,7.7921,7.8531,7.8753,7.8735,7.8717,7.8698,7.868,7.868,7.8274,7.7665,7.7234,7.6382,7.545,7.5082,7.4627,7.3993,7.2782,7.1809,7.0851,6.9665,6.8296,6.7197,6.7197,6.6812,6.6211,6.5384,6.4862,6.4409,6.3635,6.3108,6.2802,6.2802,6.2802,6.2802,6.2802,6.2802,6.2802,6.2802,6.2802,6.2802,6.2802,6.2325,6.1994,6.1994,6.1542,6.1461,6.1969,6.2044,6.225,6.2777,6.2802,6.2802,6.2802,6.3036,6.3691,6.4825,6.5037,6.6031,6.7781,6.7837,6.8158,6.8783,6.8783,6.8783,5.7796,6.1613,6.4635,6.5144,6.6386,6.7224,6.6221,6.5607,6.4411,6.1477,5.7962,5.5585,0.0,0.0,0.0,6.2151,6.6999,0.0,7.1743,7.2475,0.0,7.2428,0.0,7.0366,6.9558,6.9049,0.0,0.0,7.0573,7.1667,7.2847,7.4151,7.5125,7.5617,7.5647,7.5856,7.6317,7.6317,7.6647,7.7322,7.7454,7.7813,7.828,7.828,7.828,7.831,7.846,7.8549,7.8531,7.8422,7.8172,7.788,7.7575,7.728,7.702,7.702,7.6885,7.659,7.557,7.4764,7.4072,7.3388,7.2396,7.1344,7.0468,6.9395,6.8286,6.7422,6.5942,6.4638,6.4638,6.4205,6.3711,6.3488,6.3347,6.325,6.3026,6.2884,6.2802,6.2802,6.2802,6.2802,6.2802,6.2802,6.2802,6.2802,6.2802,6.2802,6.2802,6.2325,6.1994,6.1994,6.1893,6.1843,6.1994,6.2375,6.2651,6.2802,6.2802,6.2802,6.2802,6.278,6.3169,6.4058,6.4474,6.5163,6.6197,6.6692,6.7007,6.7187,6.7187,6.741,6.1253,6.4306,6.652,6.6789,6.7433,6.7493,6.5562,6.4171,6.2287,5.8693,5.4803,0.0,5.2893,5.3713,0.0,0.0,0.0,0.0,7.1234,7.1787,7.2146,0.0,7.1547,0.0,7.0426,7.032,7.041,0.0,7.0859,7.1487,7.2817,7.4151,7.5215,7.5886,7.5916,7.6198,7.6779,7.7095,7.7424,7.7801,7.81,7.843,7.8807,7.8807,7.8807,7.8807,0.0,7.8807,7.8753,7.8172,7.7453,7.6654,7.6092,7.5364,7.4695,7.4695,7.4695,7.4541,7.3474,7.2503,7.1795,7.1975,7.1246,7.02,6.9395,6.8485,6.7606,6.6815,6.5515,6.4379,6.4379,6.3977,6.355,6.355,6.355,6.355,6.355,6.355,6.3475,6.3229,6.3178,6.3103,6.2852,6.2802,6.2802,6.2802,6.2802,6.2902,6.3153,6.2948,6.2747,6.2747,6.2968,6.3094,6.3094,6.3375,6.355,6.355,6.355,6.355,6.355,6.3475,6.3646,6.4107,6.437,6.4687,6.5102,6.5479,6.5701,6.5701,6.5701,6.5837,6.456,6.637,6.7493,6.7898,6.7987,6.7269,6.441,6.2032,5.9325,5.5359,0.0,4.8648,4.9519,5.1247,5.4114,5.8933,0.0,6.8391,7.026,7.0679,7.1038,7.1683,7.1188,7.0859,7.1009,7.1637,7.2072,7.2162,7.1637,7.1846,7.3086,7.433,7.5395,7.6125,7.6245,7.6544,7.7065,7.7634,7.7933,7.7951,7.8519,7.8807,7.8807,7.8753,7.8698,7.8644,7.859,7.8536,7.8397,7.7538,7.6459,7.5211,7.435,7.3262,7.2169,7.2169,7.2169,7.2077,7.1264,7.0169,6.9348,7.0548,7.033,6.9427,6.8664,6.8167,6.7683,6.6924,6.603,6.5283,6.5283,6.4902,6.4496,6.4496,6.4496,6.4496,6.4496,6.4496,6.4325,6.3802,6.3701,6.35,6.2902,6.2802,6.2802,6.2802,6.2877,6.3103,6.3626,6.3701,6.3726,6.3797,6.4224,6.4496,6.4496,6.4496,6.4496,6.4496,6.4496,6.4496,6.4496,6.4496,6.4496,6.4496,6.4496,6.4496,6.4496,6.4496,6.4496,6.4496,6.4496,6.4547,6.6864,6.8451,6.9229,6.8257,6.7987,6.7014,6.3273,5.9651,0.0,0.0,4.707,4.4287,4.657,4.8177,5.1001,5.6718,6.254,6.6849,6.8301,6.9468,7.038,0.0,0.0,0.0,0.0,0.0,0.0,0.0,7.3432,7.3702,7.4497,7.5288,7.6275,7.7424,7.8011,7.834,7.846,7.8549,7.8627,7.8627,7.8729,7.8807,7.8789,7.8463,7.8118,7.7788,7.7464,0.0,7.6723,7.5535,7.4492,7.3513,7.2358,7.1338,7.0528,7.0528,7.0528,7.0385,6.953,6.8831,6.8346,6.8602,6.7805,6.6771,6.6601,6.6519,6.6433,6.6262,6.5774,6.5283,6.5283,6.4902,6.4496,6.4496,6.4496,6.4496,6.4496,6.4496,6.4325,6.3802,6.3701,6.35,6.2902,6.2802,6.2802,6.2802,6.3203,6.3576,6.3676,6.3701,6.3873,6.43,6.4425,6.4496,6.4496,6.4496,6.4496,6.4496,6.4496,6.4496,6.4496,6.4496,6.4496,6.4496,6.4496,6.4496,6.4496,6.4496,6.4496,6.4496,6.4496,6.4726,6.8481,6.9498,6.9678,6.8347,6.7463,6.5742,6.106,0.0,0.0,0.0,4.4018,4.1543,4.3848,4.5614,4.8577,5.4174,5.9502,6.3617,6.5637,6.7074,0.0,6.9752,0.0,0.0,0.0,0.0,0.0,0.0,7.4929,7.5078,7.5395,7.6365,7.7173,7.7801,7.846,7.8807,7.8807,7.8807,7.8807,7.8807,7.8807,7.8807,7.8789,7.8172,7.7398,7.6542,7.5913,7.5173,7.4281,7.325,7.2184,7.1055,7.0058,6.8992,6.8037,6.8037,6.8037,6.7953,6.7557,6.7239,6.7048,6.7048,6.6601,6.609,6.609,6.609,6.609,6.609,6.5911,6.571,6.571,6.5534,6.5333,6.5333,6.5333,6.5333,6.5333,6.5333,6.5157,6.4651,6.453,6.4354,6.3776,6.3676,6.3676,6.3676,6.3948,6.4224,6.45,6.453,6.4651,6.4902,6.5179,6.5333,6.5333,6.5333,6.5333,6.5333,6.5333,6.5333,6.5333,6.5333,6.5333,6.5333,6.5333,6.548,6.5781,6.5781,6.5932,6.6234,6.6234,6.6359,6.9678,7.0187,6.9798,6.8197,6.6565,6.3932,5.8504,5.3449,0.0,0.0,4.1225,3.9161,4.1164,4.302,4.5973,5.1282,5.603,6.001,6.278,6.4545,6.637,0.0,6.9333,0.0,7.2698,0.0,0.0,7.5856,7.6155,7.6305,7.6305,7.7382,7.8011,7.8011,7.8519,7.8807,7.8807,7.8807,7.8807,7.8807,7.8717,7.8626,7.8518,7.752,7.6317,7.504,7.4137,7.3085,7.1938,7.1102,7.0066,6.8955,6.8137,6.7112,6.609,6.609,6.609,6.609,6.609,6.609,6.609,6.609,6.609,6.609,6.609,6.609,6.609,6.609,6.609,6.609,6.609,6.609,6.609,6.609,6.609,6.609,6.609,6.609,6.5936,6.5383,6.5283,6.5128,6.4576,6.4496,6.4496,6.4496,6.4597,6.4827,6.5254,6.5383,6.5509,6.5656,6.5936,6.609,6.609,6.609,6.609,6.609,6.609,6.609,6.609,6.609,6.609,6.609,6.609,6.6388,6.6987,6.6987,6.7288,6.7794,6.7794,6.7794,7.044,7.0829,7.0231,6.7732,6.5218,6.1806,5.5884,0.0,4.4885,4.1534,3.8182,3.6439,3.8401,3.9918,4.2581,4.7889,5.2618,5.6778,6.001,6.2614,6.5158,6.7762,0.0,0.0,7.2638,7.4091,0.0,7.5856,7.6963,7.7622,7.7622,7.831,7.8699,7.8699,7.8777,7.8807,7.8807,7.8807,7.8807,7.8789,7.8427,7.8063,7.766,7.6075,7.4627,7.3357,7.2179,0.0,0.0,6.9391,6.8706,6.8121,6.726,6.6583,6.609,6.609,6.609,6.609,6.609,6.609,6.609,6.609,6.609,6.609,6.609,6.609,6.609,6.609,6.609,6.609,6.609,6.609,6.609,6.609,6.609,6.609,6.609,6.609,6.5936,6.5383,6.5283,6.5128,6.4576,6.4496,6.4496,6.4496,6.4902,6.5233,6.5283,6.5735,6.6237,6.6786,6.6388,6.609,6.609,6.609,6.609,6.609,6.609,6.609,6.609,6.609,6.609,6.609,6.609,6.6388,6.6987,6.6987,6.7288,6.7794,6.7794,6.7794,6.9303,7.032,7.0171,6.7148,6.4126,6.0326,5.4371,0.0,4.328,4.0378,3.7516,3.5968,3.7524,3.8892,4.1135,4.5244,4.9452,5.3222,5.6137,5.9488,6.2495,6.4784,6.6326,0.0,0.0,0.0,7.3814,7.5578,7.6936,7.7696,7.7696,7.8387,7.8807,7.8807,7.8807,7.8807,7.8807,7.8807,7.8807,7.8789,7.8154,7.7324,7.6344,7.4695,7.2818,7.0792,6.9833,0.0,0.0,6.7324,6.7048,6.6856,6.6519,6.6262,6.609,6.609,6.609,6.609,6.609,6.609,6.609,6.609,6.609,6.609,6.609,6.609,6.609,6.609,6.609,6.609,6.609,6.609,6.609,6.609,6.609,6.609,6.609,6.609,6.6036,6.5835,6.5785,6.571,6.5484,6.5459,6.5459,6.5459,6.5634,6.5785,6.5785,6.5986,6.6338,6.6937,6.6786,6.6764,6.7091,6.7116,6.7116,6.7116,6.7116,6.7116,6.7116,6.7116,6.7116,6.7116,6.7116,6.7392,6.797,6.797,6.8224,6.8776,6.8776,6.8776,6.7747,6.9632,7.0081,6.6565,6.3094,5.8906,5.2737,4.6879,4.1993,3.9361,3.7028,3.584,3.6926,3.7904,3.955,4.2631,4.6121,4.9519,5.2582,5.6436,5.9755,6.1956,0.0,6.5892,0.0,7.0813,7.2929,7.488,7.6307,7.7058,7.7028,7.7582,7.807,7.8427,7.8336,7.8197,7.807,7.807,7.807,7.807,7.7121,7.6036,7.483,7.3074,7.1042,6.8893,6.8074,6.709,0.0,6.609,6.609,6.609,6.609,6.609,6.609,6.609,6.609,6.609,6.609,6.609,6.609,6.609,6.6237,6.6363,6.6363,6.6237,6.609,6.609,6.609,6.609,6.609,6.609,6.609,6.609,6.609,6.609,6.609,6.609,6.609,6.609,6.609,6.609,6.609,6.609,6.609,6.609,6.609,6.609,6.609,6.6262,6.6589,6.7188,6.7389,6.7543,6.7769,6.7794,6.7794,6.7794,6.7794,6.7794,6.7794,6.7794,6.7794,6.7794,6.7794,6.807,6.86,6.86,6.8876,6.9406,6.9406,6.9406,6.6146,6.8914,6.9961,6.5981,6.2047,5.7393,5.0845,4.5235,4.0645,3.7964,3.6417,3.5699,3.6365,3.6515,3.7383,4.0008,4.2631,4.5732,4.9699,5.3713,5.721,5.9831,6.1313,6.3169,6.5787,7.0084,7.297,7.366,7.5024,0.0,7.5647,7.5753,7.6375,7.7568,7.7224,7.6834,7.6423,7.6423,7.6423,7.6404,7.5135,7.4067,7.3141,7.1076,6.9386,6.8058,6.7175,6.654,0.0,6.609,6.609,6.609,6.609,6.609,6.609,6.609,6.609,6.609,6.609,6.609,6.609,6.609,6.6488,6.6987,6.6987,6.6564,6.609,6.609,6.609,6.609,6.609,6.609,6.609,6.609,6.609,6.609,6.609,6.609,6.609,6.609,6.609,6.609,6.609,6.609,6.609,6.609,6.609,6.609,6.609,6.6614,6.7213,6.7744,6.8271,6.8374,6.7844,6.7794,6.7794,6.7794,6.7794,6.7794,6.7794,6.7794,6.7794,6.7794,6.7794,6.807,6.86,6.86,6.8876,6.9406,6.9406,6.9406,6.0835,6.3827,6.5353,6.1838,5.868,5.494,4.9224,4.4197,4.0107,3.7845,3.6379,3.5571,3.5789,3.6537,3.7554,3.882,4.1614,4.4865,4.8416,5.3097,5.718,5.9801,6.3473,6.6343,0.0,0.0,7.2024,7.2686,7.3335,7.3764,7.3933,7.3784,7.4482,7.6195,7.5563,7.4743,7.373,7.373,7.373,7.3711,7.2778,7.1705,7.0508,6.9276,6.7995,6.6707,6.6455,6.624,6.609,6.609,6.609,6.609,6.609,6.609,6.609,6.609,6.609,6.609,6.609,6.609,6.6187,6.6564,6.6836,6.7062,6.7439,6.7417,6.7267,6.7267,6.7267,6.7267,6.7267,6.7267,6.7267,6.7267,6.7267,6.7267,6.7267,6.7267,6.7267,6.7267,6.7267,6.7267,6.7267,6.7267,6.7267,6.7267,6.7267,6.7267,6.7267,6.7417,6.7744,6.8274,6.85,6.8675,6.8876,6.8879,6.8879,6.8879,6.8879,6.8879,6.8879,6.8879,6.91,6.9499,6.9499,6.9775,7.0305,6.9951,6.9652,6.9406,6.9406,6.9406,5.5388,5.889,6.0655,5.7633,5.5089,5.2055,4.7268,4.299,3.952,3.7755,3.6379,3.5579,3.5818,3.6537,3.7345,3.8251,4.0537,4.3549,4.7369,5.2468,5.7436,6.1806,6.5229,0.0,0.0,6.9685,7.0613,7.0786,7.1193,7.1546,7.1725,7.1539,7.191,7.2891,7.315,7.2739,7.1598,7.1578,7.1578,7.1578,7.0765,6.9827,6.8836,6.7995,6.7048,6.609,6.609,6.609,0.0,6.609,6.609,6.609,6.609,6.609,6.609,6.609,6.609,6.609,6.609,6.609,6.6212,6.6811,6.7288,6.7693,6.8224,6.812,6.7794,6.7794,6.7794,6.7794,6.7794,6.7794,6.7794,6.7794,6.7794,6.7794,6.7794,6.7794,6.7794,6.7794,6.7794,6.7794,6.7794,6.7794,6.7794,6.7794,6.7794,6.7794,6.7794,6.797,6.8224,6.8575,6.8776,6.9127,6.9679,6.9529,6.9406,6.9406,6.9406,6.9406,6.9406,6.9406,6.9679,7.03,7.03,7.0554,7.1106,7.0554,7.0102,6.973,6.9506,6.9406,0.0,5.3862,5.594,5.3336,5.1307,4.8891,4.4984,4.1614,0.0,3.7605,3.6349,3.5699,3.6374,3.6553,3.7002,3.8341,3.9709,4.2252,4.692,5.2354,0.0,0.0,6.6682,0.0,6.7856,6.8689,6.8964,6.8336,6.8904,6.9235,6.9218,6.9256,6.8998,6.8448,7.0098,7.0596,6.9706,6.9739,6.9765,6.9765,6.8997,6.8377,6.7936,6.7112,6.6519,0.0,6.609,6.609,6.609,6.609,6.609,6.609,6.609,6.609,6.609,6.609,6.609,6.609,6.609,6.609,6.6212,6.6861,6.7769,6.8751,6.9255,6.8701,6.7919,6.7919,6.7919,6.7919,6.7919,6.7919,6.7919,6.7919,6.7919,6.7919,6.7919,6.7919,6.7919,6.7919,6.7919,6.7919,6.7919,6.7919,6.7919,6.7919,6.7919,6.7919,6.7919,6.8349,6.865,6.865,6.9105,6.9629,7.025,6.9803,6.9481,6.9506,6.9506,6.9506,6.9506,6.9506,6.9805,7.0378,7.0428,7.0704,7.1156,7.0654,7.0378,7.0328,6.978,6.9506,4.1704,0.0,5.0624,4.8465,4.7557,4.63,0.0,4.0277,3.8281,3.6964,0.0,3.5699,3.6374,3.6866,3.7793,3.9619,4.1435,4.4416,4.9572,5.7246,0.0,6.8305,6.8758,6.8778,6.8943,6.8656,6.8359,6.8164,6.8001,6.8083,6.8367,6.8125,6.7846,6.7602,6.7375,6.6788,6.5837,6.6224,6.6432,6.6432,6.6632,6.669,6.6558,6.6369,6.6197,6.609,6.609,6.609,6.609,6.609,6.609,6.609,6.609,6.609,6.609,6.609,6.609,6.609,6.609,6.609,6.6266,6.7292,6.8324,6.923,6.9356,6.9205,6.9004,6.9004,6.9004,6.9004,6.9004,6.9004,6.9004,6.9004,6.9004,6.9004,6.9004,6.9004,6.9004,6.9004,6.9004,6.9004,6.9004,6.9004,6.9004,6.9004,6.9004,6.9004,6.9004,6.913,6.9205,6.9205,6.9331,6.9629,7.025,7.0177,7.0255,7.0681,7.0706,7.0706,7.0706,7.0706,7.0958,7.151,7.1937,7.2012,7.1711,7.1585,7.1309,7.0905,7.0757,7.048,3.8593,4.2232,4.5325,4.3958,4.3579,4.296,4.0556,3.8739,3.7323,0.0,0.0,0.0,0.0,0.0,0.0,0.0,4.2761,0.0,5.5854,6.2481,6.7798,7.1563,7.1221,7.0323,0.0,6.8612,6.7883,6.723,6.6988,6.6967,6.7175,6.6988,6.6607,6.6018,6.5558,6.5029,6.4521,6.5028,6.5283,6.5329,6.5835,6.609,6.609,6.609,6.609,6.609,6.609,6.609,6.609,6.609,6.609,6.609,6.609,6.609,6.609,6.609,6.609,6.6137,6.6413,6.684,6.7345,6.797,6.8726,6.9406,6.9406,6.9406,6.9406,6.9406,6.9406,6.9406,6.9406,6.9406,6.9406,6.9406,6.9406,6.9406,6.9406,6.9406,6.9406,6.9406,6.9406,6.9406,6.9406,6.9406,6.9406,6.9406,6.9406,6.9406,6.9406,6.9406,6.9406,6.9406,6.9406,6.9755,7.0579,7.0654,7.078,7.1081,7.1106,7.1106,7.1106,7.1106,7.1334,7.1887,7.2415,7.2566,7.2265,7.2037,7.1761,7.146,7.1232,7.0956,3.7892,3.9727,4.1134,4.0666,4.0786,4.0636,3.9299,0.0,0.0,0.0,0.0,0.0,0.0,3.7638,0.0,0.0,0.0,0.0,6.2671,6.6756,7.001,7.3881,7.284,0.0,6.9289,6.8362,6.7409,6.6197,6.609,6.609,6.609,6.609,6.5634,6.4651,6.4601,6.4526,6.4396,6.4827,6.5078,6.5057,6.5685,6.5986,6.5986,6.604,6.609,6.609,0.0,0.0,6.609,6.609,6.609,6.609,6.609,6.609,6.609,6.609,6.609,6.6187,6.6786,6.7693,6.86,6.86,6.8977,6.9406,6.9406,6.9406,6.9406,6.9406,6.9406,6.9406,6.9406,6.9406,6.9406,6.9406,6.9406,6.9406,6.9406,6.9406,6.9406,6.9406,6.9406,6.9406,6.9406,6.9406,6.9406,6.9406,6.9406,6.9406,6.9406,6.9406,6.9406,6.9406,6.9406,6.983,7.0905,7.1056,7.1131,7.1232,7.1284,7.1334,7.1334,7.1334,7.156,7.2012,7.2466,7.2717,7.2717,7.224,7.2037,7.2012,7.156,7.1284,3.7225,3.902,4.0675,4.1134,4.2491,4.3359,4.2071,4.1622,0.0,0.0,0.0,0.0,0.0,4.0622,4.2037,0.0,0.0,5.8317,0.0,0.0,6.9094,7.2296,0.0,6.9263,6.8357,6.7514,6.6754,6.6155,6.609,6.609,6.609,6.609,6.5835,6.5204,6.5179,6.4752,6.3827,6.3902,6.3948,6.3952,6.4931,6.5409,6.5434,6.5886,6.609,6.609,0.0,6.609,6.609,6.609,6.609,6.609,6.609,6.609,6.609,6.609,6.609,6.6187,6.6786,6.7693,6.86,6.86,6.8977,6.9406,6.9406,6.9406,6.9406,6.9406,6.9406,6.9406,6.9406,6.9406,6.9406,6.9406,6.9406,6.9406,6.9406,6.9406,6.9406,6.9406,6.9406,6.9406,6.9406,6.9406,6.9406,6.9406,6.9406,6.9406,6.9406,6.9406,6.9406,6.9406,6.9406,6.9679,7.0353,7.083,7.1284,7.1761,7.219,7.2441,7.2441,7.2441,7.2491,7.2566,7.2666,7.2717,7.2717,7.2616,7.2591,7.2566,7.2491,7.2215,3.7067,3.8871,4.0726,4.2142,4.3668,4.4676,4.4098,4.3978,0.0,0.0,0.0,0.0,0.0,0.0,4.543,5.0678,0.0,6.0831,6.5631,6.7056,6.8391,0.0,0.0,6.8149,6.7129,6.6669,6.6326,6.6112,6.609,6.609,6.609,6.609,6.586,6.5329,6.5283,6.4781,6.3701,6.3701,6.3701,6.3701,6.4802,6.5283,6.5329,6.586,6.609,6.609,6.609,6.609,6.609,6.609,6.609,6.609,6.609,6.609,6.609,6.609,6.6488,6.7066,6.7339,6.8123,6.9029,6.9029,6.9205,6.9406,6.9406,6.9406,6.9406,6.9406,6.9406,6.9406,6.9406,6.9406,6.9406,6.9406,6.9406,6.9406,6.9406,6.9406,6.9406,6.9406,6.9406,6.9406,6.9406,6.9406,6.9406,6.9406,6.9406,6.9406,6.9406,6.9406,6.9406,6.9406,6.9406,6.9629,7.025,7.0551,7.1156,7.2265,7.2566,7.2717,7.2717,7.2717,7.2717,7.2717,7.2717,7.2717,7.2717,7.2717,7.2717,7.2717,7.2717,7.2566,3.6917,3.8661,4.0636,4.2651,0.0,4.5873,4.6352,0.0,0.0,0.0,0.0,0.0,0.0,4.6943,0.0,5.5052,5.8407,6.1795,6.6036,6.6936,6.7625,6.8878,6.8304,6.7345,6.6219,6.609,6.609,6.609,6.609,6.609,6.609,6.609,6.5911,6.5484,6.5484,6.5032,6.4078,6.4053,6.3877,6.35,6.458,6.5128,6.5128,6.581,6.609,6.609,6.609,6.609,6.609,6.609,6.609,6.609,6.609,6.609,6.609,6.609,6.684,6.7794,6.7794,6.85,6.9406,6.9406,6.9406,6.9406,6.9406,6.9406,6.9406,6.9406,6.9406,6.9406,6.9406,6.9406,6.9406,6.9406,6.9406,6.9406,6.9406,6.9406,6.9406,6.9406,6.9406,6.9406,6.9406,6.9406,6.9406,6.9406,6.9406,6.9406,6.9406,6.9406,6.9406,6.9406,6.9406,6.9629,7.025,7.0426,7.1081,7.2415,7.2641,7.2717,7.2717,7.2717,7.2717,7.2717,7.2717,7.2717,7.2717,7.2717,7.2717,7.2717,7.2717,7.2717,3.6545,3.8003,3.996,4.1982,4.4836,0.0,4.9441,5.0828,0.0,5.1648,0.0,0.0,0.0,5.24,5.4558,5.7217,5.9446,6.2176,6.5978,0.0,6.6701,6.8018,6.743,6.669,6.6155,6.609,6.609,6.609,6.609,6.609,6.609,6.609,6.6065,6.604,6.604,6.5785,6.5183,6.5183,6.4404,6.2877,6.4023,6.4572,6.4576,6.5634,6.609,6.609,6.609,6.609,6.609,6.609,6.609,6.609,6.609,6.609,6.609,6.609,6.684,6.7794,6.7794,6.85,6.9406,6.9406,6.9406,6.9406,6.9406,6.9406,6.9406,6.9406,6.9406,6.9406,6.9406,6.9406,6.9406,6.9406,6.9406,6.9406,6.9406,6.9406,6.9406,6.9406,6.9406,6.9406,6.9406,6.9406,6.9406,6.9406,6.9406,6.9406,6.9406,6.9406,6.9406,6.9406,6.9406,6.9629,7.025,7.0755,7.1284,7.1937,7.2415,7.2717,7.2717,7.2717,7.2717,7.2717,7.2717,7.2717,7.2717,7.2717,7.2717,7.2717,7.2717,7.2717,3.7481,3.8221,3.9439,4.2252,4.5155,0.0,0.0,5.3414,5.5478,5.6316,0.0,0.0,0.0,0.0,5.7138,5.7974,5.9752,6.2027,6.4849,6.5155,6.5524,6.6725,6.6583,6.6305,6.6112,6.609,6.609,6.609,6.609,6.609,6.609,6.609,6.609,6.609,6.609,6.5835,6.5329,6.5283,6.4806,6.3873,6.4626,6.5003,6.5028,6.576,6.609,6.609,6.609,6.609,6.609,6.609,6.609,6.609,6.609,6.609,6.609,6.609,6.684,6.7794,6.7794,6.85,6.9406,6.9406,6.9406,6.9406,6.9406,6.9406,6.9406,6.9406,6.9406,6.9406,6.9406,6.9406,6.9406,6.9406,6.9406,6.9406,6.9406,6.9406,6.9406,6.9406,6.9406,6.9406,6.9406,6.9406,6.9406,6.9406,6.9406,6.9406,6.9406,6.9406,6.9406,6.9406,6.9406,6.9481,6.9705,7.0581,7.1207,7.1384,7.2215,7.2717,7.2717,7.2717,7.2717,7.2717,7.2717,7.2717,7.2717,7.2717,7.2717,7.2717,7.2717,7.2717,3.7892,3.8251,3.9149,4.2242,0.0,0.0,5.2516,5.585,5.8484,6.0027,6.1099,0.0,0.0,0.0,0.0,0.0,5.9994,6.1799,6.4169,6.4496,6.4902,6.5986,6.609,6.609,6.609,6.609,6.609,6.609,6.609,6.609,6.609,6.609,6.609,6.609,6.609,6.5936,6.5559,6.5559,6.5358,6.5003,6.5383,6.5459,6.5329,6.586,6.609,6.609,6.609,6.609,6.609,6.609,6.609,6.609,6.609,6.609,6.609,6.609,6.684,6.7794,6.7794,6.85,6.9406,6.9406,6.9406,6.9406,6.9406,6.9406,6.9406,6.9406,6.9406,6.9406,6.9406,6.9406,6.9406,6.9406,6.9406,6.9406,6.9406,6.9406,6.9406,6.9406,6.9406,6.9406,6.9406,6.9406,6.9406,6.9406,6.9406,6.9406,6.9406,6.9406,6.9406,6.9406,6.9406,6.9481,6.9679,7.0556,7.1182,7.1334,7.219,7.2717,7.2717,7.2717,7.2717,7.2717,7.2717,7.2717,7.2717,7.2717,7.2717,7.2717,7.2717,7.2717,3.7605,3.7913,3.9068,4.1772,0.0,0.0,5.4875,5.8258,6.0729,6.2764,0.0,6.2658,0.0,0.0,0.0,5.9624,6.0224,6.1585,6.4148,6.4496,6.4902,6.5986,6.609,6.609,6.609,6.609,6.609,6.609,6.609,6.609,6.609,6.609,6.609,6.609,6.609,6.609,6.609,6.609,6.609,6.609,6.609,6.5835,6.5329,6.586,6.609,6.609,6.609,6.609,6.609,6.609,6.609,6.609,6.609,6.609,6.609,6.6115,6.684,6.7819,6.7819,6.85,6.9406,6.9406,6.9406,6.9406,6.9406,6.9406,6.9406,6.9406,6.9406,6.9406,6.9406,6.9406,6.9406,6.9406,6.9406,6.9406,6.9406,6.9406,6.9406,6.9406,6.9406,6.9406,6.9406,6.9406,6.9406,6.9406,6.9406,6.9406,6.9406,6.9406,6.9406,6.9406,6.9406,6.9629,7.025,7.078,7.1309,7.1887,7.239,7.2717,7.2717,7.2717,7.2717,7.2717,7.2717,7.2717,7.2717,7.2717,7.2717,7.2717,7.2717,7.2717,3.9748,4.0346,0.0,4.5535,0.0,0.0,0.0,6.0968,0.0,0.0,6.8494,6.6339,6.3599,0.0,0.0,5.949,6.0209,6.1818,6.4169,6.4496,6.4902,6.5986,6.609,6.609,6.609,6.609,6.609,6.609,6.609,6.609,6.609,6.609,6.609,6.609,6.609,6.609,6.609,6.609,6.5911,6.5534,6.5936,6.6036,6.5886,6.6036,6.609,6.609,6.609,6.609,6.609,6.609,6.609,6.614,6.6564,6.6736,6.6786,6.7166,6.7769,6.8349,6.8349,6.8826,6.9406,6.9406,6.9406,6.9406,6.9406,6.9406,6.9406,6.9406,6.9406,6.9406,6.9406,6.9406,6.9406,6.9406,6.9406,6.9406,6.9406,6.9406,6.9406,6.9406,6.9406,6.9406,6.9406,6.9406,6.9406,6.9406,6.9406,6.9406,6.9406,6.9406,6.9406,6.9406,6.9406,6.9629,7.025,7.078,7.1309,7.1887,7.239,7.2717,7.2717,7.2717,7.2717,7.2717,7.2717,7.2717,7.2717,7.2717,7.2717,7.2717,7.2717,7.2717,4.0735,4.2152,0.0,4.8697,5.2737,5.7107,6.3033,0.0,0.0,0.0,7.0468,6.7864,6.4989,6.3325,0.0,6.0167,6.0725,6.2114,6.4198,6.4496,6.4902,6.5986,6.609,6.609,6.609,6.609,6.609,6.609,6.609,6.609,6.609,6.609,6.609,6.609,6.609,6.609,6.609,6.609,6.5936,6.5609,6.5961,6.609,6.609,6.609,6.609,6.609,6.609,6.609,6.609,6.609,6.6237,6.6488,6.6861,6.7138,6.7364,6.7668,6.8145,6.86,6.86,6.8929,6.9406,6.9406,6.9406,6.9406,6.9406,6.9406,6.9406,6.9406,6.9406,6.9406,6.9406,6.9406,6.9406,6.9406,6.9406,6.9406,6.9406,6.9406,6.9406,6.9406,6.9406,6.9406,6.9406,6.9604,6.9755,6.9755,6.993,7.0081,7.0081,6.988,6.983,7.0056,6.988,7.0079,7.088,7.1232,7.1636,7.2164,7.2516,7.2717,7.2717,7.2717,7.2717,7.2717,7.2717,7.2717,7.2717,7.2717,7.2717,7.2717,7.2717,7.2717,4.0975,4.3579,4.6781,5.1409,5.6256,0.0,6.9303,7.0295,7.0048,7.1511,0.0,6.7788,6.5424,6.3839,6.2501,6.138,6.1547,6.2461,6.4262,6.4496,6.4902,6.5986,6.609,6.609,6.609,6.609,6.609,6.609,6.609,6.609,6.609,6.609,6.609,6.609,6.609,6.609,6.609,6.609,6.6086,6.6036,6.6086,6.6065,6.6036,6.6086,6.609,6.609,6.609,6.609,6.609,6.609,6.6413,6.6937,6.7037,6.7389,6.7819,6.7919,6.8249,6.8675,6.8675,6.8979,6.9406,6.9406,6.9406,6.9406,6.9406,6.9406,6.9406,6.9406,6.9406,6.9406,6.9406,6.9406,6.9406,6.9406,6.9406,6.9406,6.9406,6.9406,6.9406,6.9406,6.9406,6.9406,6.9406,6.9903,7.0325,7.0376,7.078,7.1106,7.1106,7.0629,7.0526,7.1056,7.0604,7.0729,7.1811,7.1912,7.2114,7.2666,7.2717,7.2717,7.2717,7.2717,7.2717,7.2717,7.2717,7.2717,7.2717,7.2717,7.2717,7.2717,7.2717,7.2717,4.1934,4.5614,4.9546,5.4186,6.0773,6.7074,7.0845,7.1638,7.1653,7.1841,7.0152,6.7902,6.5445,6.3851,6.2658,6.1948,6.1887,6.2547,6.427,6.4496,6.4902,6.5986,6.609,6.609,6.609,6.609,6.609,6.609,6.609,6.609,6.609,6.609,6.609,6.609,6.609,6.609,6.609,6.609,6.5886,6.5484,6.5911,6.5886,6.5484,6.5911,6.609,6.609,6.609,6.609,6.609,6.609,6.6187,6.6388,6.7267,6.7693,6.7894,6.8751,6.913,6.923,6.923,6.9306,6.9406,6.9406,6.9406,6.9406,6.9406,6.9406,6.9406,6.9406,6.9406,6.9406,6.9406,6.9406,6.9406,6.9406,6.9406,6.9406,6.9406,6.9406,6.9406,6.9406,6.9406,6.9406,6.9406,6.9903,7.0428,7.0855,7.1031,7.1106,7.1106,7.0629,7.0526,7.1056,7.0604,7.0729,7.1811,7.1912,7.2114,7.2666,7.2717,7.2717,7.2717,7.2717,7.2717,7.2717,7.2717,7.2717,7.2717,7.2717,7.2717,7.2717,7.2717,7.2717,4.2622,4.7399,5.3049,6.0862,6.6371,7.0396,7.2402,7.2626,7.2024,7.073,6.9291,6.7479,6.4942,6.3764,6.2924,6.2135,6.222,6.2797,6.3948,6.4124,6.4425,6.5233,6.5333,6.5333,6.5333,6.5333,6.5333,6.5333,6.5333,6.5333,6.5333,6.5333,6.5333,6.5333,6.5333,6.5333,6.5333,6.5333,6.5183,6.4927,6.5204,6.5308,6.5329,6.586,6.609,6.609,6.609,6.609,6.609,6.609,6.6287,6.6589,6.7166,6.7719,6.8249,6.8826,6.918,6.9406,6.9406,6.9406,6.9406,6.9406,6.9406,6.9406,6.9406,6.9406,6.9406,6.9406,6.9406,6.9406,6.9406,6.9406,6.9406,6.9406,6.9406,6.9406,6.9406,6.9406,6.9406,6.9406,6.9406,6.9406,6.9406,7.0129,7.0956,7.1761,7.1887,7.1887,7.1887,7.1384,7.1282,7.1811,7.1384,7.1384,7.2215,7.2265,7.239,7.2692,7.2717,7.2717,7.2717,7.2717,7.2717,7.2717,7.2717,7.2717,7.2717,7.2717,7.2717,7.2717,7.2717,7.2717,4.2831,4.9119,5.6836,6.7353,7.0781,7.1954,7.3227,7.2824,7.1519,6.9178,6.8119,6.6802,6.418,6.3546,6.3098,6.226,6.2501,6.3003,6.3626,6.3701,6.3898,6.4446,6.4496,6.4496,6.4496,6.4496,6.4496,6.4496,6.4496,6.4496,6.4496,6.4496,6.4496,6.4496,6.4496,6.4496,6.4496,6.4496,6.4496,6.4496,6.4576,6.4877,6.5329,6.586,6.609,6.609,6.609,6.609,6.609,6.609,6.6388,6.6861,6.7062,6.7668,6.8475,6.8675,6.9027,6.9406,6.9406,6.9406,6.9406,6.9406,6.9406,6.9406,6.9406,6.9406,6.9406,6.9406,6.9406,6.9406,6.9406,6.9406,6.9406,6.9406,6.9481,6.9579,6.9579,6.9579,6.9579,6.9679,6.9629,6.9579,6.9679,7.048,7.146,7.2541,7.2717,7.2717,7.2717,7.2215,7.2113,7.2641,7.2215,7.2138,7.2666,7.2717,7.2717,7.2717,7.2717,7.2717,7.2717,7.2717,7.2717,7.2717,7.2717,7.2717,7.2717,7.2717,7.2717,7.2717,7.2717,7.2717,4.2014,5.0916,6.0538,6.795,7.0119,7.0697,7.1674,7.1187,7.0025,6.8235,6.7276,6.5962,6.3407,6.2915,6.2838,6.2701,6.2752,6.3003,6.3626,6.3701,6.3898,6.4446,6.4496,6.4496,6.4496,6.4496,6.4496,6.4496,6.4496,6.4496,6.4496,6.4496,6.4496,6.4496,6.4496,6.4496,6.4496,6.4496,6.4496,6.4521,6.4978,6.5229,6.5329,6.586,6.609,6.609,6.609,6.609,6.609,6.609,6.6162,6.6338,6.7317,6.7769,6.802,6.8929,6.9331,6.9406,6.9406,6.9406,6.9406,6.9406,6.9406,6.9406,6.9406,6.9406,6.9406,6.9406,6.9406,6.9406,6.9406,6.9406,6.9406,6.9406,6.9803,7.0177,7.0177,7.0177,7.0328,7.0757,7.0503,7.0328,7.0782,7.1006,7.146,7.2541,7.2717,7.2717,7.2717,7.2215,7.2113,7.2641,7.2215,7.2138,7.2666,7.2717,7.2717,7.2717,7.2717,7.2717,7.2717,7.2717,7.2717,7.2717,7.2717,7.2717,7.2717,7.2717,7.2717,7.2717,7.2717,7.2717,4.6869,5.4773,6.1925,6.8265,6.9633,6.9523,6.9989,6.9421,6.8395,6.6933,6.6053,6.4962,6.3148,6.2802,6.2802,6.2802,6.2802,6.2902,6.3153,6.3178,6.3279,6.3525,6.355,6.355,6.355,6.355,6.355,6.355,6.355,6.355,6.355,6.355,6.355,6.355,6.355,6.355,6.355,6.355,6.355,6.355,6.4128,6.4404,6.4429,6.5258,6.581,6.609,6.609,6.609,6.609,6.609,6.609,6.6165,6.7015,6.7518,6.7894,6.8675,6.913,6.9406,6.9406,6.9406,6.9406,6.9406,6.9406,6.9406,6.9406,6.9406,6.9406,6.9406,6.9406,6.9481,6.9828,6.9903,6.9978,7.0257,7.0556,7.083,7.1131,7.0956,7.083,7.1056,7.0905,7.093,7.146,7.1535,7.1811,7.2591,7.2717,7.2717,7.2717,7.2491,7.2441,7.2666,7.2491,7.2441,7.2692,7.2717,7.2717,7.2717,7.2717,7.2717,7.2717,7.2717,7.2717,7.2717,7.2717,7.2717,7.2717,7.2717,7.2717,7.2717,7.2717,7.2717,4.9583,5.5742,6.0501,6.6116,6.7242,6.712,6.7404,6.707,6.645,6.5699,6.4916,6.4068,6.3006,6.2802,6.2802,6.2802,6.2802,6.2802,6.2802,6.2802,6.2802,6.2802,6.2802,6.2802,6.2802,6.2802,6.2802,6.2802,6.2802,6.2802,6.2802,6.2802,6.2802,6.2802,6.2802,6.2802,6.2802,6.2802,6.2802,6.2827,6.3425,6.3701,6.3747,6.4806,6.5509,6.5889,6.604,6.609,6.609,6.609,6.609,6.6187,6.6915,6.7464,6.7869,6.855,6.9077,6.9406,6.9406,6.9406,6.9406,6.9406,6.9406,6.9406,6.9406,6.9406,6.9406,6.9406,6.9506,6.973,7.0177,7.0378,7.0604,7.1006,7.1184,7.141,7.1811,7.1686,7.146,7.1309,7.1284,7.141,7.1836,7.1912,7.2064,7.2616,7.2717,7.2717,7.2717,7.2717,7.2717,7.2717,7.2717,7.2717,7.2717,7.2717,7.2717,7.2717,7.2717,7.2717,7.2717,7.2717,7.2717,7.2717,7.2717,7.2717,7.2717,7.2717,7.2717,7.2717,7.2717,7.2717,4.6292,5.0856,5.5281,5.9869,6.1583,6.2423,6.3369,6.3767,6.407,6.4629,6.4108,6.3412,6.2884,6.2802,6.2802,6.2802,6.2802,6.2802,6.2802,6.2802,6.2802,6.2802,6.2802,6.2802,6.2802,6.2802,6.2802,6.2802,6.2802,6.2802,6.2802,6.2802,6.2802,6.2802,6.2802,6.2802,6.2802,6.2802,6.2802,6.2827,6.3425,6.3701,6.3747,6.4806,6.5329,6.5358,6.5886,6.609,6.609,6.609,6.609,6.619,6.7317,6.7769,6.7919,6.8954,6.9381,6.9406,6.9406,6.9406,6.9406,6.9406,6.9406,6.9406,6.9406,6.9406,6.9406,6.9406,6.9828,7.0275,7.03,7.0679,7.1081,7.1106,7.1485,7.1887,7.1887,7.2265,7.2466,7.1962,7.1861,7.1887,7.1912,7.1912,7.2064,7.2616,7.2717,7.2717,7.2717,7.2717,7.2717,7.2717,7.2717,7.2717,7.2717,7.2717,7.2717,7.2717,7.2717,7.2717,7.2717,7.2717,7.2717,7.2717,7.2717,7.2717,7.2717,7.2717,7.2717,7.2717,7.2717,7.2717,4.3539,4.6948,5.0128,5.4184,5.5983,5.7134,5.8455,5.9911,6.1387,6.2711,6.3017,6.2985,6.2822,6.2802,6.2802,6.2802,6.2802,6.2802,6.2802,6.2802,6.2802,6.2802,6.2802,6.2802,6.2802,6.2802,6.2802,6.2802,6.2802,6.2802,6.2802,6.2802,6.2802,6.2802,6.2802,6.2802,6.2802,6.2802,6.2802,6.2802,6.3028,6.3128,6.3153,6.43,6.4777,6.4827,6.571,6.609,6.609,6.609,6.609,6.619,6.7367,6.7794,6.7919,6.9004,6.9406,6.9406,6.9406,6.9406,6.9406,6.9406,6.9406,6.9456,6.9853,6.9978,7.0054,7.0405,7.0631,7.088,7.1257,7.146,7.1711,7.2062,7.2265,7.2415,7.2415,7.2566,7.2641,7.2441,7.2415,7.2415,7.2415,7.2415,7.2466,7.2666,7.2717,7.2717,7.2717,7.2717,7.2717,7.2717,7.2717,7.2717,7.2717,7.2717,7.2717,7.2717,7.2717,7.2717,7.2717,7.2717,7.2717,7.2717,7.2717,7.2717,7.2717,7.2717,7.2717,7.2717,7.2717,7.2717,4.0427,4.3028,4.539,4.8167,4.9993,5.1495,5.3063,5.5566,5.8177,6.0437,6.1617,6.2375,6.2752,6.2802,6.2802,6.2802,6.2802,6.2802,6.2802,6.2802,6.2802,6.2802,6.2802,6.2802,6.2802,6.2802,6.2802,6.2802,6.2802,6.2802,6.2802,6.2802,6.2802,6.2802,6.2802,6.2802,6.2802,6.2802,6.2802,6.2802,6.2802,6.2802,6.2852,6.3998,6.4496,6.4572,6.5634,6.609,6.609,6.609,6.609,6.619,6.7367,6.7794,6.7919,6.9004,6.9406,6.9406,6.9406,6.9406,6.9406,6.9406,6.9406,6.9506,7.0127,7.03,7.0426,7.0956,7.1232,7.1435,7.1811,7.2014,7.2265,7.2616,7.2717,7.2717,7.2717,7.2717,7.2717,7.2717,7.2717,7.2717,7.2717,7.2717,7.2717,7.2717,7.2717,7.2717,7.2717,7.2717,7.2717,7.2717,7.2717,7.2717,7.2717,7.2717,7.2717,7.2717,7.2717,7.2717,7.2717,7.2717,7.2717,7.2717,7.2717,7.2717,7.2717,7.2717,7.2717,7.2717,7.2717,7.2717,0.0,0.0,0.0,4.1877,4.3593,4.5553,4.7319,5.0745,5.4511,5.7895,5.9954,6.1512,6.2601,6.2802,6.2802,6.2802,6.2802,6.2802,6.2802,6.2802,6.2802,6.2802,6.2802,6.2802,6.2802,6.2802,6.2802,6.2802,6.2802,6.2802,6.2802,6.2802,6.2802,6.2802,6.2802,6.2802,6.2802,6.2802,6.2802,6.2802,6.2802,6.2802,6.2852,6.3998,6.4496,6.4572,6.5634,6.609,6.609,6.609,6.609,6.619,6.7367,6.7794,6.7919,6.9004,6.9406,6.9406,6.9406,6.9406,6.9406,6.9406,6.9431,6.9554,7.0152,7.035,7.0476,7.1006,7.151,7.1937,7.1937,7.2315,7.2717,7.2717,7.2717,7.2717,7.2717,7.2717,7.2717,7.2717,7.2717,7.2717,7.2717,7.2717,7.2717,7.2717,7.2717,7.2717,7.2717,7.2717,7.2717,7.2717,7.2717,7.2717,7.2717,7.2717,7.2717,7.2717,7.2717,7.2717,7.2717,7.2717,7.2717,7.2717,7.2717,7.2717,7.2717,7.2717,7.2717,7.2717,7.2717,7.2717,3.5078,0.0,0.0,0.0,0.0,0.0,4.2672,4.6778,5.1314,5.5458,5.8271,6.0537,6.245,6.2802,6.2802,6.2802,6.2802,6.2802,6.2802,6.2802,6.2802,6.2802,6.2802,6.2802,6.2802,6.2802,6.2802,6.2802,6.2802,6.2802,6.2802,6.2802,6.2802,6.2802,6.2802,6.2802,6.2802,6.2802,6.2802,6.2802,6.2802,6.2802,6.2852,6.3998,6.4496,6.4572,6.5634,6.609,6.609,6.609,6.609,6.619,6.7367,6.7794,6.7919,6.9004,6.9406,6.9406,6.9406,6.9406,6.9456,6.9903,7.0051,7.0227,7.1158,7.146,7.156,7.2113,7.2365,7.2466,7.2466,7.2591,7.2717,7.2717,7.2717,7.2717,7.2717,7.2717,7.2717,7.2717,7.2717,7.2717,7.2717,7.2717,7.2717,7.2717,7.2717,7.2717,7.2717,7.2717,7.2717,7.2717,7.2717,7.2717,7.2717,7.2717,7.2717,7.2717,7.2717,7.2717,7.2717,7.2717,7.2717,7.2717,7.2717,7.2717,7.2717,7.2717,7.2717,7.2717,7.2717,7.2717,0.0,0.0,0.0,0.0,0.0,0.0,3.8578,4.2772,4.7496,5.1465,5.4662,5.7405,5.9639,6.0041,6.0041,6.0041,6.0442,6.1221,6.2626,6.2802,6.2802,6.2802,6.2802,6.2802,6.2802,6.2802,6.2802,6.2802,6.2802,6.2802,6.2802,6.2802,6.2802,6.2802,6.2802,6.2802,6.2802,6.2802,6.2802,6.2802,6.2802,6.2802,6.2852,6.3998,6.4496,6.4572,6.5634,6.609,6.609,6.609,6.609,6.619,6.7367,6.7794,6.7919,6.9004,6.9406,6.9406,6.9406,6.9406,6.9481,7.0102,7.03,7.0478,7.156,7.1912,7.2012,7.2541,7.2717,7.2717,7.2717,7.2541,7.2415,7.2641,7.2541,7.2415,7.2666,7.2717,7.2717,7.2717,7.2717,7.2717,7.2717,7.2717,7.2717,7.2717,7.2717,7.2717,7.2717,7.2717,7.2717,7.2717,7.2717,7.2717,7.2717,7.2717,7.2717,7.2717,7.2717,7.2717,7.2717,7.2717,7.2717,7.2717,7.2717,7.2717,7.2717,7.2717,7.2717,7.2717,7.2717,7.2717,0.0,0.0,0.0,0.0,0.0,0.0,3.5099,3.8881,4.3277,4.6502,4.98,5.2787,5.5121,5.5516,5.5472,5.5566,5.657,5.8554,6.1948,6.2551,6.2676,6.2802,6.2802,6.2802,6.2802,6.2802,6.2802,6.2802,6.2802,6.2802,6.2802,6.2802,6.2802,6.2802,6.2802,6.2802,6.2802,6.2802,6.2802,6.2802,6.2802,6.2802,6.2852,6.3998,6.4496,6.4572,6.5634,6.609,6.609,6.609,6.609,6.619,6.7367,6.7794,6.7919,6.9004,6.9406,6.9406,6.9481,6.9481,6.9604,7.0277,7.0501,7.0654,7.1686,7.1987,7.2089,7.2566,7.2717,7.2692,7.2641,7.2265,7.2037,7.2491,7.224,7.2062,7.2591,7.2717,7.2717,7.2717,7.2717,7.2717,7.2717,7.2717,7.2717,7.2717,7.2717,7.2717,7.2717,7.2717,7.2717,7.2717,7.2717,7.2717,7.2717,7.2717,7.2717,7.2717,7.2717,7.2717,7.2717,7.2717,7.2717,7.2717,7.2717,7.2717,7.2717,7.2717,7.2717,7.2717,7.2717,7.2717,3.6355,3.5597,3.4657,0.0,0.0,0.0,3.2945,3.568,3.9157,4.2005,4.4905,4.7883,5.0954,5.1197,5.1021,5.1456,5.2862,5.5347,5.9558,6.0939,6.1843,6.2701,6.2802,6.2802,6.2802,6.2802,6.2802,6.2802,6.2802,6.2802,6.2802,6.2802,6.2802,6.2802,6.2802,6.2802,6.2802,6.2802,6.2802,6.2802,6.2802,6.2802,6.2852,6.3998,6.4496,6.4572,6.5634,6.609,6.609,6.609,6.609,6.619,6.7367,6.7794,6.7919,6.9004,6.9406,6.9456,6.9953,7.0127,7.0277,7.1259,7.1585,7.1711,7.234,7.2541,7.2566,7.2666,7.2717,7.2616,7.2164,7.1987,7.1937,7.2037,7.1987,7.2062,7.2591,7.2717,7.2717,7.2717,7.2717,7.2717,7.2717,7.2717,7.2717,7.2717,7.2717,7.2717,7.2717,7.2717,7.2717,7.2717,7.2717,7.2717,7.2717,7.2717,7.2717,7.2717,7.2717,7.2717,7.2717,7.2717,7.2717,7.2717,7.2717,7.2717,7.2717,7.2717,7.2717,7.2717,7.2717,7.2717,3.8004,3.7045,3.5858,3.4616,0.0,0.0,0.0,3.4363,3.6898,3.8856,4.1254,4.3689,4.5914,4.6316,4.6391,4.6677,4.8344,5.0854,5.4461,5.7851,6.0563,6.2199,6.2149,6.1994,6.1994,6.1994,6.2119,6.2375,6.24,6.2526,6.2802,6.2802,6.2802,6.2802,6.2802,6.2802,6.2802,6.2802,6.2802,6.2802,6.2802,6.2802,6.2852,6.3998,6.4496,6.4572,6.5634,6.609,6.609,6.609,6.609,6.619,6.7367,6.7794,6.7919,6.9004,6.9406,6.9481,7.0102,7.03,7.0501,7.1535,7.1912,7.2012,7.2541,7.2717,7.2717,7.2717,7.2516,7.224,7.1987,7.1485,7.1257,7.1786,7.1686,7.1736,7.2516,7.2717,7.2717,7.2717,7.2717,7.2717,7.2717,7.2717,7.2717,7.2717,7.2717,7.2717,7.2717,7.2717,7.2717,7.2717,7.2717,7.2717,7.2717,7.2717,7.2717,7.2717,7.2717,7.2717,7.2717,7.2717,7.2717,7.2717,7.2717,7.2717,7.2717,7.2717,7.2717,7.2717,7.2717,7.2717,0.0,0.0,0.0,0.0,0.0,3.3929,0.0,0.0,0.0,3.6219,3.7914,3.9572,4.0703,4.118,4.1443,4.1544,4.3413,4.5824,4.8586,5.3213,5.7481,6.0643,6.0663,6.0462,6.0688,6.0808,6.104,6.1492,6.1617,6.1898,6.245,6.2701,6.2802,6.2802,6.2802,6.2802,6.2802,6.2802,6.2802,6.2802,6.2802,6.2802,6.2852,6.3998,6.4496,6.4572,6.5634,6.609,6.609,6.609,6.609,6.619,6.7367,6.7794,6.7919,6.9004,6.9406,6.9481,7.0227,7.0428,7.0629,7.1711,7.2039,7.2114,7.2566,7.2717,7.2692,7.2566,7.2215,7.1861,7.1636,7.0956,7.0529,7.151,7.1433,7.1384,7.2466,7.2717,7.2717,7.2717,7.2717,7.2717,7.2717,7.2717,7.2717,7.2717,7.2717,7.2717,7.2717,7.2717,7.2717,7.2717,7.2717,7.2717,7.2717,7.2717,7.2717,7.2717,7.2717,7.2717,7.2717,7.2717,7.2717,7.2717,7.2717,7.2717,7.2717,7.2717,7.2717,7.2717,7.2717,7.2717,0.0,0.0,0.0,0.0,3.5434,0.0,0.0,0.0,3.3416,3.3542,0.0,3.4965,3.6046,0.0,0.0,3.6272,3.8266,4.0703,4.3452,4.6075,5.0151,5.6784,5.7512,5.7882,5.8886,5.9408,5.9709,5.9784,6.0217,6.0744,6.1361,6.2275,6.2802,6.2802,6.2802,6.2802,6.2802,6.2802,6.2802,6.2802,6.2802,6.2802,6.2852,6.3998,6.4496,6.4572,6.5634,6.609,6.609,6.609,6.609,6.619,6.7367,6.7794,6.7919,6.9004,6.9406,6.9556,7.0631,7.1006,7.1207,7.2265,7.2616,7.2616,7.2692,7.2717,7.2616,7.2114,7.1962,7.1686,7.0729,7.0401,7.0428,7.1056,7.1133,7.1384,7.2466,7.2717,7.2717,7.2717,7.2717,7.2717,7.2717,7.2717,7.2717,7.2717,7.2717,7.2717,7.2717,7.2717,7.2717,7.2717,7.2717,7.2717,7.2717,7.2717,7.2717,7.2717,7.2717,7.2717,7.2717,7.2717,7.2717,7.2717,7.2717,7.2717,7.2717,7.2717,7.2717,7.2717,7.2717,7.2717,0.0,0.0,0.0,0.0,0.0,0.0,0.0,0.0,3.3947,0.0,0.0,0.0,0.0,0.0,0.0,0.0,3.7124,3.9007,4.084,4.2158,4.5357,5.1933,5.3306,5.4386,5.6143,5.7097,5.7706,5.8033,5.8259,5.9062,6.0588,6.1723,6.2476,6.2802,6.2802,6.2802,6.2802,6.2802,6.2802,6.2802,6.2802,6.2802,6.2852,6.3998,6.4496,6.4572,6.5634,6.609,6.6137,6.6488,6.6614,6.6714,6.7822,6.807,6.7919,6.9004,6.9406,6.9556,7.0706,7.1106,7.1282,7.234,7.2717,7.2717,7.2717,7.2491,7.219,7.1962,7.1435,7.088,7.0426,7.0051,7.0003,7.0905,7.1106,7.1384,7.2466,7.2717,7.2717,7.2717,7.2717,7.2717,7.2717,7.2717,7.2717,7.2717,7.2717,7.2717,7.2717,7.2717,7.2717,7.2717,7.2717,7.2717,7.2717,7.2717,7.2717,7.2717,7.2717,7.2717,7.2717,7.2717,7.2717,7.2717,7.2717,7.2717,7.2717,7.2717,7.2717,7.2717,7.2717,7.2717,4.7076,0.0,0.0,0.0,0.0,0.0,0.0,0.0,0.0,0.0,0.0,0.0,0.0,0.0,0.0,0.0,0.0,3.7375,3.8203,3.8655,4.1115,4.7079,4.933,5.1063,5.2838,5.4127,5.5071,5.5623,5.5781,5.6835,5.9062,6.0688,6.1773,6.2325,6.2651,6.2802,6.2802,6.2802,6.2802,6.2802,6.2802,6.2902,6.3078,6.4048,6.4576,6.4777,6.571,6.609,6.6162,6.6761,6.6987,6.7113,6.8173,6.8349,6.8145,6.9077,6.9406,6.9556,7.0706,7.1284,7.1661,7.2441,7.2717,7.2666,7.2516,7.2215,7.1836,7.1535,7.0905,7.0275,7.0102,6.973,6.9654,7.0631,7.088,7.1182,7.224,7.2491,7.2516,7.2666,7.2717,7.2717,7.2717,7.2717,7.2717,7.2717,7.2717,7.2717,7.2717,7.2717,7.2717,7.2717,7.2717,7.2717,7.2717,7.2717,7.2717,7.2717,7.2717,7.2717,7.2717,7.2717,7.2717,7.2717,7.2717,7.2717,7.2717,7.2717,7.2717,7.2717,7.2717,7.2717,0.0,0.0,0.0,4.3316,0.0,0.0,0.0,0.0,3.4703,0.0,0.0,0.0,0.0,0.0,0.0,0.0,0.0,0.0,0.0,3.4879,3.6948,4.2548,4.605,4.8259,4.8919,5.0485,5.1691,5.2226,5.2737,5.4017,5.62,5.8886,6.0638,6.1235,6.225,6.2802,6.2802,6.2802,6.2802,6.2802,6.2802,6.3103,6.3676,6.4249,6.4777,6.5329,6.586,6.609,6.6162,6.6761,6.6987,6.7113,6.8173,6.86,6.865,6.918,6.9406,6.9556,7.0706,7.1786,7.2666,7.2692,7.2717,7.2616,7.2064,7.1912,7.1686,7.0629,7.0325,7.0177,6.9579,6.9406,6.9579,7.0177,7.0325,7.0604,7.1686,7.1937,7.2087,7.2591,7.2717,7.2717,7.2717,7.2717,7.2717,7.2717,7.2717,7.2717,7.2717,7.2717,7.2717,7.2717,7.2717,7.2717,7.2717,7.2717,7.2717,7.2717,7.2717,7.2717,7.2717,7.2717,7.2717,7.2717,7.2717,7.2717,7.2717,7.2717,7.2717,7.2717,7.2717,7.2717,0.0,0.0,4.9464,4.7798,0.0,0.0,0.0,0.0,0.0,0.0,0.0,0.0,0.0,0.0,0.0,0.0,0.0,0.0,0.0,3.4162,3.499,3.7249,4.1076,4.4052,4.5347,4.7004,4.8209,4.8755,4.9298,5.0879,5.3866,5.6627,5.8886,6.0563,6.1672,6.2425,6.2802,6.2802,6.2802,6.2781,6.3203,6.35,6.3726,6.4626,6.5128,6.5333,6.5886,6.609,6.6165,6.7141,6.7518,6.7643,6.8726,6.913,6.9155,6.9331,6.9406,6.9556,7.0706,7.156,7.2164,7.2164,7.1937,7.161,7.141,7.1131,7.0755,7.0378,7.0026,6.9654,6.9456,6.9406,6.9554,7.0152,7.03,7.0579,7.1661,7.1912,7.2062,7.2591,7.2717,7.2717,7.2717,7.2717,7.2717,7.2717,7.2717,7.2717,7.2717,7.2717,7.2717,7.2717,7.2717,7.2717,7.2717,7.2717,7.2717,7.2717,7.2717,7.2717,7.2717,7.2717,7.2717,7.2717,7.2717,7.2717,7.2717,7.2717,7.2717,7.2717,7.2717,7.2717,5.6671,5.4838,0.0,5.1975,4.9414,0.0,4.3962,0.0,0.0,0.0,0.0,0.0,0.0,0.0,0.0,0.0,0.0,0.0,0.0,3.3294,0.0,0.0,0.0,0.0,4.2208,4.3865,4.5146,4.5884,4.6235,4.7908,5.1256,5.4217,5.6953,5.9363,6.1115,6.225,6.2802,6.2802,6.2802,6.2827,6.3425,6.3797,6.4023,6.4902,6.5383,6.5609,6.5961,6.609,6.6187,6.7342,6.7794,6.7919,6.8979,6.9406,6.9406,6.9406,6.9657,7.0081,7.0629,7.1284,7.1887,7.1686,7.1359,7.1081,7.088,7.0554,7.0275,7.0051,6.9705,6.9406,6.9406,6.9406,6.9481,6.9878,6.9978,7.028,7.1384,7.161,7.1836,7.2566,7.2717,7.2717,7.2717,7.2717,7.2717,7.2717,7.2717,7.2717,7.2717,7.2717,7.2717,7.2717,7.2717,7.2717,7.2717,7.2717,7.2717,7.2717,7.2717,7.2717,7.2717,7.2717,7.2717,7.2717,7.2717,7.2717,7.2717,7.2717,7.2717,7.2717,7.2717,7.2717]},{"header":{"parameterUnit":"m.s-1","parameterCategory":1,"la1":30.6,"la2":29.2853,"lo1":-89.7004,"lo2":-87.6739,"dy":0.0162,"dx":0.0183,"nx":112,"ny":82,"refTime":"2026-04-02T00:00:00:Z","depth":0,"parameterNumber":3,"parameterNumberName":"V-component_of_WINDS"},"data":[0.0,0.0,0.0,0.0,0.0,0.0,0.0,0.0,0.0,0.0,0.0,0.0,0.0,0.0,0.0,0.0,0.0,0.0,0.0,0.0,0.0,0.0,0.0,0.0,0.0,0.0,0.0,0.0,0.0,0.0,0.0,0.0,0.0,0.0,0.0,0.0,0.0,0.0,0.0,0.0,0.0,0.0,0.0,0.0,0.0,0.0,0.0,0.0,0.0,0.0,0.0,0.0,0.0,0.0,0.0,0.0,0.0,0.0,0.0,0.0,0.0,0.0,0.0,0.0,0.0,0.0,0.0,0.0,0.0,0.0,0.0,0.0,0.0,0.0,0.0,0.0,0.0,0.0,0.0,0.0,0.0,0.0,0.0,0.0,0.0,0.0,0.0,0.0,0.0,0.0,0.0,3.0126,3.4704,3.7129,3.6191,3.5039,3.3004,2.9794,0.0,0.0,0.0,0.0,0.0,0.0,0.0,0.0,0.0,0.0,0.0,0.0,0.0,0.0,0.0,0.0,0.0,0.0,0.0,0.0,0.0,0.0,0.0,0.0,0.0,0.0,0.0,0.0,0.0,0.0,0.0,0.0,0.0,0.0,0.0,0.0,0.0,0.0,0.0,0.0,0.0,0.0,0.0,0.0,0.0,0.0,0.0,0.0,0.0,0.0,0.0,0.0,0.0,0.0,0.0,0.0,0.0,0.0,0.0,0.0,0.0,0.0,0.0,0.0,0.0,0.0,0.0,0.0,0.0,0.0,0.0,0.0,0.0,0.0,0.0,0.0,0.0,0.0,0.0,0.0,0.0,0.0,0.0,0.0,0.0,0.0,0.0,0.0,0.0,0.0,0.0,0.0,0.0,0.0,0.0,0.0,0.0,0.0,0.0,0.0,0.0,0.0,0.0,0.0,2.873,3.3961,3.6853,3.7908,3.6697,3.6055,3.3965,2.9852,0.0,0.0,0.0,0.0,0.0,0.0,0.0,0.0,0.0,0.0,0.0,0.0,0.0,0.0,0.0,0.0,0.0,0.0,0.0,0.0,0.0,0.0,0.0,0.0,0.0,0.0,0.0,0.0,0.0,0.0,0.0,0.0,0.0,0.0,0.0,0.0,0.0,0.0,0.0,0.0,0.0,0.0,0.0,0.0,0.0,0.0,0.0,0.0,0.0,0.0,0.0,0.0,0.0,0.0,0.0,0.0,0.0,0.0,0.0,0.0,0.0,0.0,0.0,0.0,0.0,0.0,0.0,0.0,0.0,0.0,0.0,0.0,0.0,0.0,0.0,0.0,0.0,0.0,0.0,0.0,0.0,0.0,0.0,0.0,0.0,0.0,0.0,0.0,0.0,0.0,0.0,0.0,0.0,0.0,0.0,0.0,0.0,0.0,0.0,0.0,0.0,0.0,0.0,2.8574,3.2279,3.597,3.8072,3.8674,3.7346,3.6444,3.4211,3.0128,2.6427,0.0,0.0,0.0,0.0,0.0,0.0,0.0,0.0,0.0,0.0,0.0,0.0,0.0,0.0,0.0,0.0,0.0,0.0,0.0,0.0,0.0,0.0,0.0,0.0,0.0,0.0,0.0,0.0,0.0,0.0,0.0,0.0,0.0,0.0,0.0,0.0,0.0,0.0,0.0,0.0,0.0,0.0,0.0,0.0,0.0,0.0,0.0,0.0,0.0,0.0,0.0,0.0,0.0,0.0,0.0,0.0,0.0,0.0,0.0,0.0,0.0,0.0,0.0,0.0,0.0,0.0,0.0,0.0,0.0,0.0,0.0,0.0,0.0,0.0,0.0,0.0,0.0,0.0,0.0,0.0,0.0,0.0,0.0,0.0,0.0,0.0,0.0,0.0,0.0,0.0,0.0,0.0,0.0,0.0,0.0,0.0,0.0,0.0,0.0,0.0,0.0,0.0,3.2637,3.5571,3.7453,3.9182,3.9564,3.7865,3.6652,3.4172,2.9907,2.6175,0.0,0.0,0.0,0.0,0.0,0.0,0.0,0.0,0.0,0.0,0.0,0.0,0.0,0.0,0.0,0.0,0.0,0.0,0.0,0.0,0.0,0.0,0.0,0.0,0.0,0.0,0.0,0.0,0.0,0.0,0.0,0.0,0.0,0.0,0.0,0.0,0.0,0.0,0.0,0.0,0.0,0.0,0.0,0.0,0.0,0.0,0.0,0.0,0.0,0.0,0.0,0.0,0.0,0.0,0.0,0.0,0.0,0.0,0.0,0.0,0.0,0.0,0.0,0.0,0.0,0.0,0.0,0.0,0.0,0.0,0.0,0.0,0.0,0.0,0.0,0.0,0.0,0.0,0.0,0.0,0.0,0.0,0.0,0.0,0.0,0.0,0.0,0.0,0.0,0.0,0.0,0.0,0.0,0.0,0.0,0.0,0.0,0.0,0.0,0.0,0.0,0.0,3.4687,3.7564,3.8821,4.0686,4.0752,3.802,3.6798,3.3928,2.8668,2.5172,0.0,0.0,0.0,0.0,0.0,0.0,0.0,0.0,0.0,0.0,0.0,0.0,0.0,0.0,0.0,0.0,0.0,0.0,0.0,0.0,0.0,0.0,0.0,0.0,0.0,0.0,0.0,0.0,0.0,0.0,0.0,0.0,0.0,0.0,0.0,0.0,0.0,0.0,0.0,0.0,0.0,0.0,0.0,0.0,0.0,0.0,0.0,0.0,0.0,0.0,0.0,0.0,0.0,0.0,0.0,0.0,0.0,0.0,0.0,0.0,0.0,0.0,0.0,0.0,0.0,0.0,0.0,0.0,0.0,0.0,0.0,0.0,0.0,0.0,0.0,0.0,0.0,0.0,0.0,0.0,0.0,0.0,0.0,0.0,0.0,0.0,0.0,0.0,0.0,0.0,0.0,0.0,0.0,0.0,0.0,0.0,0.0,0.0,0.0,0.0,0.0,0.0,3.6127,3.9385,0.0,4.2606,4.2627,4.0596,3.8581,3.5381,3.0495,0.0,0.0,0.0,0.0,0.0,0.0,0.0,0.0,0.0,0.0,0.0,0.0,0.0,0.0,0.0,0.0,0.0,0.0,0.0,0.0,0.0,0.0,0.0,0.0,0.0,0.0,0.0,0.0,0.0,0.0,0.0,0.0,0.0,0.0,0.0,0.0,0.0,0.0,0.0,0.0,0.0,0.0,0.0,0.0,0.0,0.0,0.0,0.0,0.0,0.0,0.0,0.0,0.0,0.0,0.0,0.0,0.0,0.0,0.0,0.0,0.0,0.0,0.0,0.0,0.0,0.0,0.0,0.0,0.0,0.0,0.0,0.0,0.0,0.0,0.0,0.0,0.0,0.0,0.0,0.0,0.0,0.0,0.0,0.0,0.0,0.0,0.0,0.0,0.0,0.0,0.0,0.0,0.0,0.0,0.0,0.0,0.0,0.0,0.0,0.0,0.0,0.0,3.3486,3.8302,4.1916,0.0,4.502,4.5011,4.3033,4.0793,3.7383,3.238,0.0,0.0,0.0,0.0,0.0,0.0,0.0,0.0,0.0,0.0,0.0,0.0,0.0,0.0,0.0,0.0,0.0,0.0,0.0,0.0,0.0,0.0,0.0,0.0,0.0,0.0,0.0,0.0,0.0,0.0,0.0,0.0,0.0,0.0,0.0,0.0,0.0,0.0,0.0,0.0,0.0,0.0,0.0,0.0,0.0,0.0,0.0,0.0,0.0,0.0,0.0,0.0,0.0,0.0,0.0,0.0,0.0,0.0,0.0,0.0,0.0,0.0,0.0,0.0,0.0,0.0,0.0,0.0,0.0,0.0,0.0,0.0,0.0,0.0,0.0,0.0,0.0,0.0,0.0,0.0,0.0,0.0,0.0,0.0,0.0,0.0,0.0,0.0,0.0,0.0,0.0,0.0,0.0,0.0,0.0,0.0,0.0,0.0,0.0,0.0,0.0,0.0,3.5787,4.1417,4.5239,4.6059,4.7935,4.7933,4.5,4.3256,3.9826,0.0,0.0,0.0,0.0,0.0,0.0,0.0,0.0,0.0,0.0,0.0,0.0,0.0,0.0,0.0,0.0,0.0,0.0,0.0,0.0,0.0,0.0,0.0,0.0,0.0,0.0,0.0,0.0,0.0,0.0,0.0,0.0,0.0,0.0,0.0,0.0,0.0,0.0,0.0,0.0,0.0,0.0,0.0,0.0,0.0,0.0,0.0,0.0,0.0,0.0,0.0,0.0,0.0,0.0,0.0,0.0,0.0,0.0,0.0,0.0,0.0,0.0,0.0,0.0,0.0,0.0,0.0,0.0,0.0,0.0,0.0,0.0,0.0,0.0,0.0,0.0,0.0,0.0,0.0,0.0,0.0,0.0,0.0,0.0,0.0,0.0,0.0,0.0,0.0,0.0,0.0,0.0,0.0,0.0,0.0,0.0,0.0,0.0,0.0,0.0,0.0,0.0,0.0,0.0,4.3242,4.7101,4.8632,4.951,4.9312,4.7597,4.5489,4.1975,3.6606,0.0,0.0,0.0,0.0,0.0,0.0,0.0,0.0,0.0,0.0,0.0,0.0,0.0,0.0,0.0,0.0,0.0,0.0,0.0,0.0,0.0,0.0,0.0,0.0,0.0,0.0,0.0,0.0,0.0,0.0,0.0,0.0,0.0,0.0,0.0,0.0,0.0,0.0,0.0,0.0,0.0,0.0,0.0,0.0,0.0,0.0,0.0,0.0,0.0,0.0,0.0,0.0,0.0,0.0,0.0,0.0,0.0,0.0,0.0,0.0,0.0,0.0,0.0,0.0,0.0,0.0,0.0,0.0,0.0,0.0,0.0,0.0,0.0,0.0,0.0,0.0,0.0,0.0,0.0,0.0,0.0,0.0,0.0,0.0,0.0,0.0,0.0,0.0,0.0,0.0,0.0,0.0,0.0,0.0,0.0,0.0,0.0,0.0,0.0,0.0,0.0,0.0,3.9968,4.5654,4.9577,5.0663,5.1353,5.1166,4.9785,4.796,4.463,3.9295,0.0,0.0,0.0,0.0,0.0,0.0,0.0,0.0,0.0,0.0,0.0,0.0,0.0,0.0,0.0,0.0,0.0,0.0,0.0,0.0,0.0,0.0,0.0,0.0,0.0,0.0,0.0,0.0,0.0,0.0,0.0,0.0,0.0,0.0,0.0,0.0,0.0,0.0,0.0,0.0,0.0,0.0,0.0,0.0,0.0,0.0,0.0,0.0,0.0,0.0,0.0,0.0,0.0,0.0,0.0,0.0,0.0,0.0,0.0,0.0,0.0,0.0,0.0,0.0,0.0,0.0,0.0,0.0,0.0,0.0,0.0,0.0,0.0,0.0,0.0,0.0,0.0,0.0,0.0,0.0,0.0,0.0,0.0,0.0,0.0,0.0,0.0,0.0,0.0,0.0,0.0,0.0,0.0,0.0,0.0,0.0,0.0,0.0,0.0,0.0,0.0,0.0,4.1989,4.8242,5.2126,5.2176,5.3105,5.3055,5.144,5.0293,4.7315,4.1804,0.0,0.0,0.0,0.0,0.0,0.0,0.0,0.0,0.0,0.0,0.0,0.0,0.0,0.0,0.0,0.0,0.0,0.0,0.0,0.0,0.0,0.0,0.0,0.0,0.0,0.0,0.0,0.0,0.0,0.0,0.0,0.0,0.0,0.0,0.0,0.0,0.0,0.0,0.0,0.0,0.0,0.0,0.0,0.0,0.0,0.0,0.0,0.0,0.0,0.0,0.0,0.0,0.0,0.0,0.0,0.0,0.0,0.0,0.0,0.0,2.4113,0.0,0.0,0.0,0.0,0.0,0.0,0.0,0.0,0.0,0.0,0.0,0.0,0.0,0.0,0.0,0.0,0.0,0.0,0.0,0.0,0.0,0.0,0.0,0.0,0.0,0.0,0.0,0.0,0.0,0.0,0.0,0.0,0.0,0.0,0.0,0.0,0.0,0.0,0.0,0.0,0.0,4.3123,4.8714,5.226,5.2686,5.3289,5.3055,5.144,5.0645,4.8058,4.2975,0.0,0.0,0.0,0.0,0.0,0.0,0.0,0.0,0.0,0.0,0.0,0.0,0.0,0.0,0.0,0.0,0.0,0.0,0.0,0.0,0.0,0.0,0.0,0.0,0.0,0.0,0.0,0.0,0.0,0.0,0.0,0.0,0.0,0.0,0.0,0.0,0.0,0.0,0.0,0.0,0.0,0.0,0.0,0.0,0.0,0.0,0.0,0.0,0.0,0.0,0.0,0.0,0.0,0.0,0.0,0.0,0.0,0.0,0.0,0.0,0.0,2.593,0.0,0.0,0.0,0.0,0.0,0.0,0.0,0.0,0.0,0.0,0.0,0.0,0.0,0.0,0.0,0.0,0.0,0.0,0.0,0.0,0.0,0.0,0.0,0.0,0.0,0.0,0.0,0.0,0.0,0.0,0.0,0.0,0.0,0.0,0.0,0.0,0.0,0.0,0.0,0.0,4.369,4.9384,5.298,5.3264,5.4034,5.3858,5.2226,5.1548,4.9213,4.4507,4.1304,0.0,0.0,0.0,0.0,0.0,0.0,0.0,0.0,0.0,0.0,0.0,0.0,0.0,0.0,0.0,0.0,0.0,0.0,0.0,0.0,0.0,0.0,0.0,0.0,0.0,0.0,0.0,0.0,0.0,0.0,0.0,0.0,0.0,0.0,0.0,0.0,0.0,0.0,0.0,0.0,0.0,0.0,0.0,0.0,0.0,0.0,0.0,0.0,0.0,0.0,0.0,0.0,0.0,3.3226,3.3851,3.4271,3.4611,3.5007,3.528,3.2499,3.0702,2.9712,2.8502,0.0,0.0,0.0,0.0,0.0,0.0,0.0,0.0,0.0,0.0,0.0,0.0,0.0,0.0,0.0,0.0,0.0,0.0,0.0,0.0,0.0,0.0,0.0,0.0,4.0425,3.9678,0.0,0.0,0.0,0.0,0.0,0.0,0.0,0.0,0.0,0.0,0.0,0.0,4.4077,4.9992,5.3708,5.3708,5.4712,5.4712,5.3046,5.2485,5.0444,4.619,4.3474,4.0123,0.0,0.0,0.0,0.0,0.0,0.0,0.0,0.0,0.0,0.0,0.0,0.0,0.0,0.0,0.0,0.0,0.0,0.0,0.0,0.0,0.0,0.0,0.0,0.0,0.0,0.0,0.0,0.0,0.0,0.0,0.0,0.0,2.2186,2.2702,0.0,0.0,0.0,0.0,0.0,0.0,0.0,0.0,0.0,0.0,0.0,0.0,0.0,3.1711,3.3755,3.5437,3.6905,3.8116,3.8986,3.9654,4.0072,4.0151,4.0386,4.0785,4.0737,0.0,3.3336,3.2418,0.0,0.0,0.0,0.0,0.0,0.0,0.0,0.0,0.0,0.0,0.0,0.0,0.0,0.0,0.0,0.0,0.0,0.0,0.0,0.0,0.0,0.0,4.5206,4.5799,4.6753,4.7343,0.0,4.2408,3.8306,3.6837,3.5211,0.0,0.0,0.0,0.0,0.0,0.0,0.0,4.4784,5.0243,5.3708,5.3708,5.4712,5.4712,5.3046,5.2837,5.1306,4.7807,4.5924,4.3388,3.9885,3.7098,0.0,0.0,0.0,0.0,0.0,0.0,0.0,0.0,0.0,0.0,0.0,0.0,0.0,0.0,0.0,0.0,0.0,0.0,0.0,0.0,0.0,0.0,0.0,0.0,0.0,0.0,0.0,0.0,0.0,2.3251,2.5008,2.4969,2.5352,2.5332,0.0,0.0,0.0,0.0,0.0,0.0,0.0,0.0,0.0,3.2418,3.3965,3.5922,3.8322,4.0558,4.2476,4.4047,4.5385,4.6252,4.6714,4.6939,4.7141,4.7318,4.7517,4.6101,4.3256,3.891,3.6327,3.4888,0.0,0.0,0.0,0.0,3.3364,3.5205,3.706,3.765,0.0,3.803,0.0,0.0,0.0,0.0,0.0,0.0,0.0,0.0,0.0,0.0,4.8746,4.9314,5.0318,5.1021,5.072,4.8591,4.5906,0.0,4.0379,3.7941,3.5707,0.0,0.0,0.0,0.0,0.0,4.5859,5.0971,5.4202,5.4202,5.5189,5.544,5.4386,5.431,5.3155,5.0444,4.933,4.727,4.3901,4.1418,3.863,0.0,0.0,0.0,0.0,0.0,0.0,0.0,0.0,0.0,0.0,0.0,0.0,0.0,0.0,0.0,0.0,0.0,0.0,0.0,0.0,0.0,0.0,0.0,0.0,0.0,0.0,0.0,0.0,2.5913,2.776,2.7559,2.8008,2.8073,0.0,0.0,0.0,0.0,0.0,0.0,3.2281,3.3592,3.5051,3.6651,3.8169,4.0235,4.283,4.5239,4.7283,4.8979,5.0552,5.1467,5.1836,5.2141,5.2261,5.2261,5.2377,5.2209,5.136,4.5321,4.2109,4.0754,3.8653,3.8105,3.8444,3.8316,3.9566,4.1574,4.3592,4.4407,4.4608,4.4756,4.2613,3.9537,3.7085,0.0,0.0,0.0,0.0,4.3108,4.6253,4.9028,5.118,5.1774,5.2653,5.3231,5.2829,5.2628,5.1448,0.0,4.4765,4.208,3.986,0.0,0.0,0.0,0.0,4.351,4.7249,5.1749,5.4647,5.4798,5.5516,5.5767,5.5232,5.5039,5.4135,5.2226,5.1615,4.9983,4.7054,4.507,4.2498,3.9157,0.0,0.0,0.0,0.0,0.0,0.0,0.0,0.0,0.0,0.0,0.0,0.0,0.0,0.0,0.0,0.0,0.0,0.0,0.0,0.0,0.0,0.0,0.0,0.0,0.0,0.0,0.0,0.0,0.0,3.0625,3.1421,0.0,0.0,0.0,0.0,3.406,3.6159,3.7582,3.8062,3.9345,4.0704,4.2061,4.3,4.4737,4.7361,4.9142,5.072,5.209,5.3374,5.4022,5.4046,5.4069,5.4073,5.4097,5.4551,5.448,5.3788,5.0555,4.8708,4.773,4.5956,4.5541,4.5917,4.545,4.6593,4.8622,5.0187,5.1097,5.1589,5.1592,4.8286,4.4068,4.2831,4.2059,0.0,0.0,4.5747,4.7936,4.9708,5.1465,5.2912,5.3457,5.4052,5.4522,5.4471,5.4027,5.2779,0.0,4.8018,4.6095,4.389,0.0,3.9911,4.1696,4.3377,4.5643,4.9038,5.2469,5.4798,5.5308,5.5408,5.5232,5.4697,5.411,5.3306,5.2176,5.1615,5.051,4.8743,4.7516,4.5347,4.2048,3.9208,0.0,0.0,0.0,0.0,0.0,0.0,0.0,0.0,0.0,0.0,0.0,0.0,0.0,0.0,0.0,0.0,0.0,0.0,0.0,0.0,0.0,0.0,0.0,0.0,0.0,0.0,0.0,0.0,3.4124,3.5195,0.0,3.5801,3.6273,3.7403,3.9474,4.2134,4.3977,4.4701,4.604,4.7151,4.7951,4.9144,5.0508,5.2048,5.4136,5.5701,5.6757,5.8091,5.8679,5.8679,5.8679,5.8679,5.8704,5.888,5.8856,5.861,5.7116,5.4435,5.1105,4.9834,4.9426,4.9567,4.9403,5.033,5.1869,5.3328,5.409,5.4236,5.3171,5.0641,4.7914,4.7319,4.6652,4.6416,4.8079,4.9541,5.0896,5.2201,5.3507,5.4561,5.4737,5.5214,5.5559,5.5182,5.4361,5.3406,5.2427,5.0921,4.9439,4.8243,4.606,4.4905,4.6255,4.6934,4.8234,5.087,5.3198,5.4823,5.5358,5.5408,5.5333,5.5132,5.4604,5.3951,5.3181,5.2955,5.2118,5.046,4.9665,4.7666,4.4396,4.1934,3.8705,0.0,0.0,0.0,0.0,0.0,0.0,0.0,0.0,0.0,0.0,0.0,0.0,0.0,0.0,0.0,0.0,0.0,0.0,0.0,0.0,0.0,0.0,0.0,0.0,0.0,0.0,3.7126,3.7848,3.8946,3.9804,4.0223,4.0861,4.2201,4.4579,4.7139,4.8983,4.9943,5.0853,5.1643,5.231,5.3213,5.4329,5.5596,5.7421,5.8773,5.9653,6.0707,6.121,6.121,6.121,6.121,6.121,6.121,6.121,6.1185,6.0763,5.8633,5.552,5.4471,5.4181,5.4345,5.4345,5.501,5.6001,5.6732,5.6977,5.6763,5.549,5.3942,5.2569,5.238,5.1921,5.1704,5.2872,5.3626,5.421,5.4938,5.5666,5.6244,5.6244,5.652,5.657,5.5817,5.4787,5.3934,5.3733,5.2553,5.1448,5.103,4.9599,4.8821,4.9782,4.9907,5.0661,5.2678,5.4077,5.5082,5.5616,5.5509,5.5333,5.5157,5.4604,5.3976,5.3206,5.298,5.2302,5.1046,5.0444,4.8837,4.61,4.2964,3.932,3.5218,0.0,0.0,0.0,0.0,0.0,0.0,0.0,0.0,0.0,0.0,0.0,0.0,0.0,0.0,0.0,0.0,0.0,0.0,0.0,0.0,0.0,0.0,0.0,3.39,3.7355,4.0435,4.1775,4.2775,4.3842,4.5023,4.5475,4.678,4.9397,5.1189,5.2575,5.3591,5.3576,5.3986,5.496,5.5031,5.5969,5.7843,5.8847,5.9722,6.0572,6.1016,6.126,6.126,6.126,6.126,6.126,6.126,6.126,6.126,6.1235,6.1235,6.111,5.9985,5.9885,6.0317,6.0317,6.0688,6.111,6.0512,5.996,5.9408,5.8861,5.8334,5.7901,5.7876,5.7876,5.7851,5.7826,5.7826,5.7826,5.7826,5.7826,5.7851,5.7876,5.7876,5.76,5.6451,5.5383,5.4446,5.3858,5.2879,5.2151,5.2151,5.1724,5.159,5.2101,5.2176,0.0,5.4403,5.5082,5.5591,5.6125,5.5717,5.5182,5.4647,5.4027,5.3231,5.2151,5.1548,5.0971,5.0377,4.9841,4.8761,4.7048,4.2219,3.8115,3.4803,0.0,0.0,0.0,0.0,0.0,0.0,0.0,0.0,0.0,0.0,0.0,0.0,0.0,0.0,0.0,0.0,0.0,0.0,0.0,0.0,0.0,0.0,3.9282,3.8938,4.257,4.5781,4.7184,4.8474,4.9643,5.062,5.1562,5.2708,5.4074,5.6181,5.7196,5.6732,5.7034,5.7188,5.707,5.783,5.8688,5.9598,6.1064,6.1919,6.2167,6.231,6.235,6.235,6.235,6.235,6.235,6.235,6.235,6.2325,6.1943,6.1793,6.1718,6.1009,6.0833,6.0939,6.0939,6.1059,6.111,6.0512,5.996,5.9408,5.8861,5.8334,5.7826,5.738,5.7255,5.7079,5.6294,5.6086,5.6086,5.6086,5.6369,5.6771,5.7154,5.7581,5.77,5.6953,5.5616,5.4672,5.4906,5.4034,5.3256,5.3256,5.3499,5.3743,5.3893,5.3901,0.0,5.5056,5.5308,5.5591,5.6125,5.5717,5.5182,5.4647,5.3683,5.2661,5.159,5.0611,4.9832,4.9254,4.8686,4.739,4.5317,4.2381,3.9621,0.0,0.0,0.0,0.0,0.0,0.0,0.0,0.0,0.0,0.0,0.0,0.0,0.0,0.0,0.0,0.0,0.0,0.0,0.0,0.0,0.0,0.0,4.1794,4.5116,4.6113,4.7843,4.9453,5.0692,5.194,5.3017,5.3869,5.4728,5.5699,5.6794,5.85,5.9232,5.8604,5.8635,5.866,5.8579,5.9156,5.9885,6.0663,6.2099,6.2802,6.2802,6.2802,6.2802,6.2802,6.2802,6.2802,6.2802,6.2802,6.2802,6.2777,6.245,6.2325,0.0,0.0,0.0,0.0,0.0,6.1868,6.1793,6.1195,6.0663,6.0111,5.9539,5.9006,5.8453,5.7882,5.7556,5.7154,5.6043,5.5566,5.5408,5.5408,5.5949,5.6677,5.7255,5.8001,5.8353,5.7556,5.6269,5.5308,5.5383,5.4881,0.0,5.4712,5.5039,5.5282,5.5282,5.5282,5.5383,5.5691,5.5742,5.5867,5.615,5.5917,5.5516,5.4981,5.411,0.0,0.0,0.0,4.959,4.8843,4.8476,0.0,0.0,0.0,0.0,0.0,0.0,0.0,0.0,3.7111,3.8065,0.0,0.0,0.0,0.0,0.0,0.0,0.0,0.0,0.0,0.0,0.0,0.0,0.0,0.0,0.0,0.0,4.7019,5.082,5.3507,5.284,5.2387,5.3262,5.4264,5.5174,5.5897,5.6352,5.7097,5.8348,5.9264,5.9734,5.9583,0.0,0.0,0.0,0.0,6.0111,6.1185,6.225,6.2802,6.2802,6.2802,6.2802,6.2802,6.2802,6.2802,6.2802,6.2802,6.2802,6.2802,6.2802,6.2802,6.2701,6.1743,6.1667,6.2144,6.2626,6.2802,6.2727,6.2195,0.0,0.0,6.0613,6.0035,5.9483,5.8936,5.8359,5.765,5.6502,5.5817,5.5408,5.5408,5.6219,5.7136,5.775,5.8704,5.9207,5.8202,5.7148,5.6244,5.5839,5.5724,5.5886,5.6422,5.6449,5.6351,5.6301,5.6276,5.6276,5.62,5.62,5.62,5.62,0.0,0.0,5.5458,5.4906,5.3901,5.2302,5.1055,4.9916,4.8827,4.8919,4.8702,4.8093,4.728,4.6602,4.6065,4.5633,4.5708,4.6175,4.3234,4.2783,0.0,0.0,0.0,0.0,0.0,0.0,0.0,0.0,0.0,0.0,0.0,0.0,0.0,0.0,0.0,4.5955,4.9455,5.2427,5.4755,5.6326,5.7333,5.7538,5.8481,5.9165,5.9347,5.9844,6.0306,6.057,6.1176,6.1115,6.0191,6.0041,5.984,5.9508,5.9935,6.0487,6.1185,6.225,6.2802,6.2802,0.0,0.0,6.2802,6.2802,6.2802,6.2802,6.2802,6.2802,6.2802,6.2802,6.2802,6.2777,6.2576,6.2551,6.2651,6.2777,6.2802,6.2727,6.2195,6.1943,6.1743,6.119,6.0638,6.006,5.9508,5.8679,0.0,5.6502,5.5817,5.5408,5.5408,5.6219,5.7136,5.775,5.8704,5.9332,5.8685,5.8033,5.7636,5.7864,5.7771,5.7845,5.8451,5.7997,5.7424,5.6928,5.6835,5.6702,5.6251,5.62,5.62,5.62,5.62,5.5993,5.5458,5.4906,5.4077,5.2837,5.1281,4.9916,4.8827,4.9615,4.9841,4.9289,4.9983,5.0042,4.9448,5.0268,5.072,5.0745,4.7039,4.6461,0.0,0.0,0.0,0.0,0.0,0.0,0.0,0.0,0.0,0.0,0.0,3.7916,4.0517,0.0,4.5983,4.898,5.1883,5.431,5.5968,5.8108,5.9388,5.9112,5.9815,6.0417,6.0713,6.1034,6.121,6.121,6.1692,6.1642,6.0788,6.0738,6.0638,6.0356,6.0613,6.1014,6.1592,6.24,6.2802,6.2802,6.2802,6.2802,6.2802,6.2802,6.2802,6.2802,6.2802,6.2802,6.2802,6.2802,6.2802,6.2802,6.2802,6.2802,6.2802,6.2802,6.2802,6.2777,6.2501,6.2225,6.1969,6.1692,6.1014,6.0191,5.9659,5.8755,5.7725,5.6853,5.62,5.5867,5.6143,5.7029,5.8008,5.8579,5.9533,6.0261,6.001,5.9508,5.9279,5.9884,6.0163,6.0408,6.0747,6.0438,5.9614,5.8004,5.7335,5.6984,5.6903,5.6808,5.683,5.7029,5.7228,5.7161,5.6701,5.553,5.4396,5.3356,5.226,5.1406,5.087,5.1356,5.1532,5.1256,5.1825,5.2076,5.2034,5.2628,5.3055,5.3298,5.1364,5.087,0.0,0.0,0.0,0.0,0.0,0.0,0.0,0.0,3.4675,3.7256,4.027,4.307,4.5167,4.7622,4.9873,5.1641,5.3901,5.5817,5.7004,5.8886,6.0016,5.9684,6.0217,6.0839,6.1311,6.1461,6.1492,6.1492,6.1918,6.1969,6.1517,6.1492,6.1492,6.1492,6.1492,6.1718,6.2149,6.2576,6.2802,6.2802,6.2802,6.2802,6.2802,6.2802,6.2802,6.2802,6.2802,6.2802,6.2802,6.2802,6.2802,6.2802,6.2802,6.2802,6.2802,6.2802,6.2802,6.2802,6.2802,6.2526,6.2169,6.2169,6.1446,6.0543,6.0111,5.9232,5.8278,5.7782,5.7255,5.6928,5.738,5.8259,5.9131,5.9655,6.0633,6.1443,6.1542,6.1242,6.1174,6.1935,6.2595,6.3046,6.3048,6.2958,6.1959,5.9297,5.8005,5.7472,5.7853,5.7925,5.814,5.8624,5.9157,5.9219,5.8499,5.6922,5.5525,5.4403,5.3941,5.3665,5.3565,5.3623,5.3715,5.3715,5.3816,5.4092,5.4511,5.4511,5.478,5.5232,5.5232,5.4805,2.8471,2.9818,3.2486,3.4169,3.531,3.6391,0.0,0.0,3.9478,4.2151,4.4705,4.6973,4.8736,5.0134,5.1716,5.3893,5.4881,5.5942,5.7575,5.883,5.9734,6.0166,6.1145,6.1843,6.1893,6.2325,6.2626,6.2626,6.2676,6.2701,6.2626,6.2626,6.2626,6.2626,6.2626,6.2651,6.2727,6.2777,6.2802,6.2802,6.2802,6.2802,6.2802,6.2802,6.2802,6.2802,6.2802,6.2802,6.2802,6.2802,6.2802,6.2802,6.2802,6.2802,6.2802,6.2802,6.2802,6.2802,6.2802,6.2777,6.2727,6.2727,6.23,6.1793,6.1743,6.0939,6.0016,5.994,5.9539,5.9131,5.9207,5.9684,6.0239,6.0705,6.1557,6.2363,6.2819,6.313,6.3492,6.4036,6.4803,6.5282,6.5114,6.4761,6.3568,6.0698,5.9274,5.8618,5.889,5.975,6.0622,6.1372,6.2384,6.2314,6.055,5.9586,5.8397,5.6733,5.6559,5.6326,5.5849,5.6282,5.6533,5.6533,5.7054,5.7374,5.7424,5.7424,5.7449,5.7524,5.7524,5.6696,3.2804,3.4073,3.6456,0.0,4.0802,4.2188,4.3457,4.4362,4.5405,4.7161,4.9334,5.1155,5.185,5.2922,5.4002,0.0,5.6086,5.7097,5.7801,5.9382,6.0311,5.9885,6.0261,6.0814,6.1466,6.1743,6.1994,6.23,6.2626,6.2802,6.2802,6.2802,6.2802,6.2802,6.2802,6.2802,6.2802,6.2802,6.2802,6.2802,6.2802,6.2802,6.2802,6.2802,6.2802,6.2802,6.2802,6.3003,6.3324,6.3324,6.35,6.3776,6.3776,6.3776,6.3701,6.3028,6.2802,6.2802,6.2802,6.2802,6.2802,6.2802,6.2425,6.1994,6.1994,6.1441,6.0889,6.1215,6.114,6.104,6.1346,6.1597,6.1928,6.2627,6.3606,6.458,6.5281,6.5853,6.641,6.7092,6.7483,6.7799,6.8117,6.77,6.6865,6.5635,6.2395,6.0368,6.1132,6.1738,6.2647,6.4008,6.4242,6.3709,6.2225,6.1416,6.041,5.8999,5.8925,5.8822,5.8609,5.8584,5.8472,5.8232,5.8237,5.812,5.7901,5.7901,5.7901,5.7901,5.7901,5.7524,3.6346,0.0,0.0,4.3151,4.5372,4.7104,4.8043,4.9012,4.9983,5.0904,5.236,5.3532,5.3683,5.4361,5.5064,5.5541,5.6897,5.7951,5.8121,5.9734,6.0537,5.9408,5.9156,5.9382,6.0205,6.0688,6.1165,6.1743,6.24,6.2802,6.2802,6.2802,6.2802,6.2802,6.2802,6.2802,6.2802,6.2802,6.2802,6.2802,6.2802,6.2802,6.2802,6.2802,6.2802,6.2827,6.2978,6.3299,6.3701,6.3873,6.4149,6.4496,6.4496,6.4496,6.44,6.3576,6.3178,6.3053,6.3053,6.2927,6.2802,6.2802,6.2526,6.2245,6.2361,6.2225,6.2092,6.2602,6.2844,6.3046,6.3432,6.3514,6.3751,6.4729,6.5739,6.6759,6.7748,6.8463,6.912,6.9745,6.9915,7.0077,7.0564,7.0118,6.9667,6.9499,6.6033,6.3667,6.4273,6.4785,6.5696,6.7313,6.6718,6.5799,6.4823,6.4082,6.3242,6.2259,6.2186,6.2186,6.2186,6.1542,6.0901,6.0309,5.9639,5.9039,5.8554,5.8554,5.8654,5.8805,5.8805,5.8805,0.0,0.0,4.3377,4.5648,4.8243,5.0402,5.1038,5.1599,5.2176,5.2694,5.2887,5.3088,5.3607,5.3733,5.4285,5.5899,5.7148,5.8077,5.8598,5.9633,5.994,5.8861,5.8278,5.7951,0.0,5.9408,6.0588,6.1185,6.2199,6.2802,6.2802,6.2802,6.2802,6.2802,6.2802,6.2802,6.2802,6.2802,6.2802,6.2802,6.2802,6.2802,6.2802,6.2802,6.2802,6.2852,6.3425,6.3676,6.3726,6.4249,6.4496,6.4496,6.4496,6.4496,6.4496,6.445,6.4124,6.3676,6.3676,6.3299,6.2802,6.2802,6.2802,6.2858,6.3306,6.3726,6.4103,6.4509,6.4948,6.5311,6.5311,6.5311,6.5628,6.6808,6.7726,6.8658,6.984,7.0726,7.1337,7.1501,7.1796,7.1946,7.1801,7.1466,7.1094,7.0709,6.989,6.9074,6.8322,6.9292,7.0493,7.1606,7.0529,6.9533,6.897,6.8236,6.7593,6.7026,6.6991,6.6991,6.6991,6.5682,6.4409,6.3291,6.1915,6.0878,6.0217,6.0217,6.0537,6.111,6.111,6.111,3.9634,0.0,4.5286,4.7857,5.0277,5.2209,5.2754,5.3607,5.4135,5.3557,5.3414,5.3507,5.3658,5.4027,5.483,5.6477,5.8284,5.9558,5.9734,6.0412,6.0487,5.9357,5.8453,0.0,0.0,0.0,0.0,5.9985,6.1115,6.1893,6.225,6.2601,6.2802,6.2802,6.2802,6.2802,6.2802,6.2802,6.2802,6.2781,6.3224,6.3576,6.3948,6.3948,6.3948,6.3948,6.4149,6.4425,6.4802,6.4953,6.5233,6.5559,6.5559,6.5559,6.5559,6.5559,6.5208,6.4655,6.3948,6.3279,6.2802,6.2802,6.2802,6.2945,6.367,6.4523,6.5385,6.6092,6.6979,6.771,6.771,6.771,6.7958,6.8905,6.9941,7.098,7.1924,7.2952,7.376,7.3766,7.3519,7.3401,7.3776,7.338,7.3112,7.3438,7.1696,7.0315,7.0321,7.0738,7.126,7.1827,7.1285,7.061,6.9948,6.9823,6.9496,6.8836,6.8793,6.8793,6.8793,6.7433,6.6173,6.5015,6.3966,6.2945,6.1961,6.2361,6.2664,6.2871,6.2871,6.2871,4.2194,4.5131,4.7832,5.0193,5.2285,5.3866,5.4235,5.4863,5.5013,5.3708,5.2804,5.2226,5.2226,5.2703,5.3775,5.5817,5.8328,6.0066,6.0267,6.0814,6.0783,5.9633,5.873,5.7857,0.0,0.0,0.0,5.8855,6.0136,6.1115,6.1692,6.24,6.2802,6.2802,6.2802,6.2802,6.2802,6.2802,6.2902,6.3128,6.3701,6.4174,6.4496,6.4496,6.4496,6.4521,6.4701,6.4978,6.5308,6.5509,6.5785,6.609,6.609,6.609,6.609,6.609,6.576,6.5225,6.4714,6.4229,6.3893,6.4057,6.4241,6.4541,6.5545,6.6589,6.7616,6.8604,6.9488,7.0156,7.0156,6.997,7.0006,7.0797,7.1668,7.2539,7.3369,7.4253,7.4886,7.4886,7.4557,7.4407,7.4826,7.4527,7.4407,7.4826,7.3352,7.2274,7.255,7.2408,7.2375,7.2578,7.2216,7.1839,7.1609,7.1721,7.1734,7.1505,7.1499,7.1499,7.1499,7.0156,6.8851,6.7687,6.6632,6.5625,6.4655,6.5048,6.5342,6.5555,6.5555,6.5555,4.5608,4.8545,5.103,5.2636,5.4243,5.5483,5.539,5.5383,5.4863,5.3138,5.0971,4.9389,0.0,0.0,5.1147,5.4019,5.7292,5.9659,6.0217,6.0814,6.0808,0.0,0.0,0.0,0.0,0.0,0.0,5.7901,0.0,6.0518,6.116,6.222,6.2807,6.2852,6.2852,6.2877,6.2902,6.2902,6.3178,6.3797,6.43,6.4572,6.4576,6.4576,6.4576,6.4601,6.5128,6.5333,6.5383,6.5932,6.6155,6.6176,6.6197,6.6219,6.624,6.624,6.5935,6.5566,6.6073,6.6106,6.5986,6.6464,6.6974,6.7616,6.8804,6.9763,7.0735,7.1904,7.2402,7.2574,7.2574,7.2079,7.1783,7.2537,7.2952,7.3404,7.4179,7.4628,7.4886,7.4886,7.4886,7.4886,7.4886,7.4886,7.4886,7.4886,7.4886,7.4886,7.4886,7.4317,7.3881,7.3881,7.3343,7.3206,7.3851,7.3941,7.4227,7.4856,7.4886,7.4886,7.4886,7.3561,7.2267,7.1093,6.9782,6.8788,6.8115,6.817,6.8456,6.9047,6.9047,6.9047,4.8469,5.1699,5.4235,5.4662,5.5673,5.6376,5.5566,5.5082,5.4077,5.1557,4.8636,4.6667,0.0,0.0,0.0,5.2151,5.6219,0.0,6.0166,6.0814,0.0,6.0808,0.0,5.9012,5.8334,5.7907,0.0,0.0,5.9251,6.0136,6.116,6.222,6.3003,6.345,6.3475,6.3651,6.4073,6.4073,6.435,6.4881,6.5028,6.5329,6.5685,6.5685,6.5685,6.571,6.5835,6.5911,6.5932,6.6426,6.6839,6.718,6.7472,6.781,6.8104,6.8104,6.8022,6.806,6.9133,6.8509,6.7356,6.81,6.904,7.0071,7.1008,7.2057,7.3108,7.4064,7.4657,7.5017,7.5017,7.4513,7.4063,7.4253,7.4374,7.4508,7.4697,7.4817,7.4886,7.4886,7.4886,7.4886,7.4886,7.4886,7.4886,7.4886,7.4886,7.4886,7.4886,7.4317,7.3881,7.3881,7.3762,7.3702,7.3881,7.4377,7.4706,7.4886,7.4886,7.4886,7.4886,7.3831,7.2828,7.1889,7.1253,7.0571,6.9871,7.0317,7.061,7.0762,7.0762,7.1036,5.1398,5.3959,5.5817,5.6043,5.6552,5.6602,5.5013,5.3876,5.2294,4.9222,4.5959,0.0,4.4407,4.507,0.0,0.0,0.0,0.0,5.974,6.0236,6.0537,0.0,6.0035,0.0,5.9062,5.9006,5.9081,0.0,5.9458,5.9985,6.1135,6.222,6.3078,6.3676,6.3701,6.3973,6.4496,6.4726,6.5003,6.5283,6.5534,6.581,6.609,6.609,6.609,6.609,0.0,6.609,6.6155,6.6839,6.7552,6.8341,6.8966,6.9704,7.042,7.042,7.042,7.0582,7.1693,7.1678,7.1171,7.1156,7.1831,7.2853,7.3728,7.4574,7.5372,7.623,7.6581,7.6724,7.6724,7.6245,7.5736,7.5736,7.5736,7.5736,7.5736,7.5736,7.5647,7.5395,7.5335,7.5245,7.4946,7.4886,7.4886,7.4886,7.4886,7.5006,7.5305,7.5018,7.4779,7.4779,7.5001,7.5151,7.5151,7.5527,7.5736,7.5736,7.5736,7.5736,7.5736,7.5187,7.4684,7.4236,7.4009,7.368,7.3261,7.3605,7.3774,7.3774,7.3774,7.3967,5.4202,5.5691,5.6602,5.691,5.6985,5.6383,5.4017,5.2051,4.9807,4.6451,0.0,4.0775,4.1621,4.3025,4.5382,4.9423,0.0,5.7355,5.8956,5.9307,5.9608,6.0116,5.9734,5.9458,5.9583,6.0111,6.0442,6.0518,6.0111,6.0286,6.1361,6.237,6.3229,6.3877,6.3977,6.4228,6.4701,6.5179,6.543,6.5409,6.5886,6.609,6.609,6.6155,6.6219,6.6283,6.6348,6.6412,6.6515,6.7514,6.8618,6.9753,7.0671,7.1798,7.2841,7.2841,7.2841,7.2987,7.3836,7.4877,7.5638,7.4627,7.4886,7.5725,7.6469,7.6965,7.7391,7.8099,7.804,7.7801,7.7801,7.7305,7.6779,7.6779,7.6779,7.6779,7.6779,7.6779,7.6617,7.6036,7.5916,7.5677,7.5006,7.4886,7.4886,7.4886,7.4976,7.5245,7.5826,7.5916,7.5946,7.5988,7.6497,7.6779,7.6779,7.6779,7.6779,7.6779,7.6779,7.6779,7.6779,7.6779,7.6779,7.6779,7.6779,7.6779,7.6779,7.6779,7.6779,7.6779,7.6779,7.6838,5.6075,5.7405,5.8058,5.7211,5.6985,5.62,5.3063,5.0026,0.0,0.0,3.9496,3.71,3.912,4.0425,4.2772,4.7566,5.2477,5.6093,5.728,5.8259,5.9056,0.0,0.0,0.0,0.0,0.0,0.0,0.0,6.1617,6.1843,6.2476,6.3174,6.4002,6.5003,6.5459,6.5735,6.5835,6.5911,6.5939,6.5939,6.6061,6.609,6.6112,6.6498,6.6903,6.7286,6.7599,0.0,6.844,6.9633,7.0691,7.1652,7.2873,7.3873,7.4646,7.4646,7.4646,7.4781,7.563,7.6319,7.6702,7.6525,7.7232,7.8179,7.8325,7.8445,7.8518,7.8662,7.8256,7.7801,7.7801,7.7305,7.6779,7.6779,7.6779,7.6779,7.6779,7.6779,7.6617,7.6036,7.5916,7.5677,7.5006,7.4886,7.4886,7.4886,7.5365,7.5766,7.5886,7.5916,7.6078,7.6587,7.6736,7.6779,7.6779,7.6779,7.6779,7.6779,7.6779,7.6779,7.6779,7.6779,7.6779,7.6779,7.6779,7.6779,7.6779,7.6779,7.6779,7.6779,7.6779,7.7095,5.743,5.8284,5.8434,5.7286,5.6577,5.5164,5.1264,0.0,0.0,0.0,3.6935,3.484,3.6772,3.8253,4.0738,4.5432,4.99,5.3381,5.5046,5.6251,0.0,5.8529,0.0,0.0,0.0,0.0,0.0,0.0,6.2873,6.2998,6.3229,6.4078,6.4756,6.5283,6.5835,6.609,6.609,6.609,6.609,6.609,6.609,6.609,6.6112,6.6839,6.7615,6.8466,6.9105,6.9909,7.0799,7.1865,7.2936,7.3982,7.5087,7.6121,7.7028,7.7028,7.7028,7.7102,7.7501,7.7777,7.7942,7.7942,7.8325,7.8807,7.8807,7.8807,7.8807,7.8807,7.8549,7.831,7.831,7.81,7.7861,7.7861,7.7861,7.7861,7.7861,7.7861,7.7652,7.7006,7.6904,7.6694,7.6006,7.5886,7.5886,7.5886,7.6168,7.6497,7.6826,7.6904,7.7006,7.7305,7.7634,7.7861,7.7861,7.7861,7.7861,7.7861,7.7861,7.7861,7.7861,7.7861,7.7861,7.7861,7.7861,7.7993,7.8352,7.8352,7.8531,7.889,7.889,7.904,5.8434,5.8861,5.8535,5.7161,5.5824,5.3675,4.9145,4.4899,0.0,0.0,3.4611,3.2878,3.4502,3.6058,3.8555,4.2983,4.6988,5.0327,5.2678,5.416,5.5691,0.0,5.8177,0.0,6.1034,0.0,0.0,6.3651,6.3902,6.4028,6.4028,6.4931,6.5459,6.5459,6.5886,6.609,6.609,6.609,6.609,6.609,6.6197,6.6305,6.6433,6.7536,6.8716,6.9937,7.0894,7.1978,7.3125,7.3991,7.4973,7.5997,7.6888,7.7887,7.8807,7.8807,7.8807,7.8807,7.8807,7.8807,7.8807,7.8807,7.8807,7.8807,7.8807,7.8807,7.8807,7.8807,7.8807,7.8807,7.8807,7.8807,7.8807,7.8807,7.8807,7.8807,7.8807,7.8807,7.8579,7.7921,7.7801,7.7574,7.6916,7.6779,7.6779,7.6779,7.6898,7.7215,7.7724,7.7921,7.8071,7.8202,7.8579,7.8807,7.8807,7.8807,7.8807,7.8807,7.8807,7.8807,7.8807,7.8807,7.8807,7.8807,7.8807,7.9118,7.9788,7.9788,8.0147,8.0794,8.0794,8.0794,5.9106,5.9433,5.893,5.6803,5.4694,5.1833,4.6919,0.0,3.7663,3.4851,3.2039,3.0592,3.2204,3.3495,3.573,4.0161,4.4127,4.7616,5.0327,5.2511,5.4644,5.6828,0.0,0.0,6.0984,6.2169,0.0,6.3651,6.458,6.5132,6.5132,6.571,6.6036,6.6036,6.6065,6.609,6.609,6.609,6.609,6.6112,6.654,6.6967,6.7434,6.9101,7.0548,7.1813,7.3051,0.0,0.0,7.581,7.6432,7.6954,7.7759,7.8391,7.8807,7.8807,7.8807,7.8807,7.8807,7.8807,7.8807,7.8807,7.8807,7.8807,7.8807,7.8807,7.8807,7.8807,7.8807,7.8807,7.8807,7.8807,7.8807,7.8807,7.8807,7.8807,7.8807,7.8807,7.8579,7.7921,7.7801,7.7574,7.6916,7.6779,7.6779,7.6779,7.7305,7.7741,7.7801,7.834,7.8938,7.9548,7.9118,7.8807,7.8807,7.8807,7.8807,7.8807,7.8807,7.8807,7.8807,7.8807,7.8807,7.8807,7.8807,7.9118,7.9788,7.9788,8.0147,8.0794,8.0794,8.0794,5.8152,5.9006,5.888,5.6344,5.3808,5.0619,4.5623,0.0,3.6356,3.3919,3.1497,3.0181,3.1486,3.2652,3.4536,3.7965,4.1518,4.4683,4.7104,4.9916,5.241,5.43,5.5623,0.0,0.0,0.0,6.2316,6.4764,6.6001,6.6615,6.6615,6.6286,6.609,6.609,6.609,6.609,6.609,6.609,6.609,6.6112,6.6861,6.77,6.8628,7.042,7.2303,7.4234,7.5297,0.0,0.0,7.7704,7.7942,7.8106,7.8445,7.8662,7.8807,7.8807,7.8807,7.8807,7.8807,7.8807,7.8807,7.8807,7.8807,7.8807,7.8807,7.8807,7.8807,7.8807,7.8807,7.8807,7.8807,7.8807,7.8807,7.8807,7.8807,7.8807,7.8807,7.8807,7.8699,7.846,7.84,7.831,7.8041,7.8011,7.8011,7.8011,7.822,7.84,7.84,7.8639,7.9058,7.9728,7.9548,7.9567,7.9956,7.9986,7.9986,7.9986,7.9986,7.9986,7.9986,7.9986,7.9986,7.9986,7.9986,8.0315,8.1003,8.1003,8.1351,8.2009,8.2009,8.2009,5.6846,5.8428,5.8805,5.5885,5.2972,4.9455,4.4227,3.9358,3.5276,3.3065,3.1105,3.009,3.0984,3.1823,3.3205,3.5792,3.8743,4.1621,4.417,4.7355,5.0085,5.1958,0.0,5.529,0.0,5.9815,6.2632,6.6103,6.7437,6.8062,6.8037,6.7404,6.6899,6.654,6.6647,6.675,6.6899,6.6899,6.6899,6.6899,6.7931,6.9028,7.0162,7.2045,7.4049,7.6053,7.6943,7.7905,0.0,7.8807,7.8807,7.8807,7.8807,7.8807,7.8807,7.8807,7.8807,7.8807,7.8807,7.8807,7.8807,7.8807,7.8938,7.9088,7.9088,7.8938,7.8807,7.8807,7.8807,7.8807,7.8807,7.8807,7.8807,7.8807,7.8807,7.8807,7.8807,7.8807,7.8807,7.8807,7.8807,7.8807,7.8807,7.8807,7.8807,7.8807,7.8807,7.8807,7.8807,7.8968,7.9357,8.0027,8.0266,8.0494,8.0764,8.0794,8.0794,8.0794,8.0794,8.0794,8.0794,8.0794,8.0794,8.0794,8.0794,8.1123,8.18,8.18,8.2129,8.2806,8.2806,8.2806,5.5472,5.7826,5.8704,5.5426,5.2093,4.8159,4.2593,3.7915,3.4087,3.1873,3.0557,2.9955,3.0497,3.0623,3.1351,3.3571,3.5792,3.8416,4.1772,4.507,4.7952,5.0176,5.1448,5.3005,5.5232,6.0189,6.4488,6.746,6.8746,0.0,6.928,6.9338,6.8769,6.754,6.7873,6.8314,6.8774,6.8774,6.8774,6.8795,7.0065,7.1136,7.2032,7.4125,7.5762,7.701,7.7832,7.8427,0.0,7.8807,7.8807,7.8807,7.8807,7.8807,7.8807,7.8807,7.8807,7.8807,7.8807,7.8807,7.8807,7.8807,7.9238,7.9788,7.9788,7.9327,7.8807,7.8807,7.8807,7.8807,7.8807,7.8807,7.8807,7.8807,7.8807,7.8807,7.8807,7.8807,7.8807,7.8807,7.8807,7.8807,7.8807,7.8807,7.8807,7.8807,7.8807,7.8807,7.8807,7.9387,8.0057,8.0734,8.1362,8.153,8.0853,8.0794,8.0794,8.0794,8.0794,8.0794,8.0794,8.0794,8.0794,8.0794,8.0794,8.1123,8.18,8.18,8.2129,8.2806,8.2806,8.2806,5.1046,5.3557,5.4838,5.1917,4.9238,4.61,4.1304,3.7086,3.3635,3.1773,3.0542,2.9864,3.003,3.0658,3.1512,3.2556,3.4938,3.7688,4.0626,4.4529,4.7927,5.0151,5.3674,5.6631,0.0,0.0,6.6871,6.981,7.1051,7.1506,7.1163,7.1486,7.0758,6.8794,6.943,7.0311,7.1317,7.1317,7.1317,7.1337,7.2343,7.3407,7.4504,7.5809,7.7065,7.8234,7.8499,7.868,7.8807,7.8807,7.8807,7.8807,7.8807,7.8807,7.8807,7.8807,7.8807,7.8807,7.8807,7.8807,7.8878,7.9327,7.9608,7.9878,8.0326,8.0345,8.0165,8.0165,8.0165,8.0165,8.0165,8.0165,8.0165,8.0165,8.0165,8.0165,8.0165,8.0165,8.0165,8.0165,8.0165,8.0165,8.0165,8.0165,8.0165,8.0165,8.0165,8.0165,8.0165,8.0345,8.0734,8.1411,8.168,8.189,8.2129,8.2178,8.2178,8.2178,8.2178,8.2178,8.2178,8.2178,8.235,8.2779,8.2779,8.3109,8.3786,8.3318,8.3008,8.2806,8.2806,8.2806,4.6476,4.9414,5.0896,4.836,4.6225,4.3704,3.9685,3.6093,3.318,3.1698,3.0542,2.9854,3.0055,3.0658,3.1336,3.2079,3.4034,3.6582,3.9747,4.4001,4.8168,5.1833,5.5649,0.0,0.0,6.4912,6.8863,7.2229,7.3361,7.3725,7.3387,7.3678,7.3097,7.1395,7.1689,7.2383,7.3457,7.3477,7.3477,7.3477,7.4368,7.5249,7.6157,7.7065,7.7942,7.8807,7.8807,7.8807,0.0,7.8807,7.8807,7.8807,7.8807,7.8807,7.8807,7.8807,7.8807,7.8807,7.8807,7.8807,7.8908,7.9578,8.0147,8.0674,8.1351,8.1183,8.0794,8.0794,8.0794,8.0794,8.0794,8.0794,8.0794,8.0794,8.0794,8.0794,8.0794,8.0794,8.0794,8.0794,8.0794,8.0794,8.0794,8.0794,8.0794,8.0794,8.0794,8.0794,8.0794,8.1003,8.1351,8.177,8.2009,8.2428,8.3087,8.2907,8.2806,8.2806,8.2806,8.2806,8.2806,8.2806,8.3087,8.3688,8.3688,8.4036,8.4694,8.4036,8.3497,8.3147,8.2926,8.2806,0.0,4.5196,4.6913,4.4729,4.3076,4.1093,3.7788,3.4938,0.0,3.1572,3.0517,2.9955,3.0487,3.0638,3.1014,3.2154,3.3319,3.5454,3.9371,4.3955,0.0,0.0,5.7615,0.0,6.2863,6.6696,7.0678,7.4658,7.5567,7.5847,7.5704,7.5828,7.5587,7.482,7.4354,7.4474,7.5202,7.5278,7.5307,7.5307,7.6169,7.6778,7.7169,7.7887,7.8445,0.0,7.8807,7.8807,7.8807,7.8807,7.8807,7.8807,7.8807,7.8807,7.8807,7.8807,7.8807,7.8807,7.8807,7.8807,7.8908,7.9638,8.0764,8.1979,8.2627,8.1919,8.0943,8.0943,8.0943,8.0943,8.0943,8.0943,8.0943,8.0943,8.0943,8.0943,8.0943,8.0943,8.0943,8.0943,8.0943,8.0943,8.0943,8.0943,8.0943,8.0943,8.0943,8.0943,8.0943,8.15,8.186,8.186,8.2447,8.3027,8.3628,8.3187,8.2896,8.2926,8.2926,8.2926,8.2926,8.2926,8.3236,8.3827,8.3886,8.4215,8.4754,8.4156,8.3827,8.3767,8.3206,8.2926,3.5013,0.0,4.2431,4.069,3.9949,3.8894,0.0,3.3796,3.2104,3.0999,0.0,2.9955,3.0487,3.0934,3.1712,3.3244,3.4787,3.7311,4.1619,4.8516,0.0,5.9083,6.1876,6.4453,6.7051,7.0324,7.3467,7.6288,7.6903,7.7039,7.6683,7.7002,7.6728,7.5742,7.6153,7.6409,7.6407,7.6899,7.7183,7.7183,7.7887,7.83,7.8361,7.8572,7.8717,7.8807,7.8807,7.8807,7.8807,7.8807,7.8807,7.8807,7.8807,7.8807,7.8807,7.8807,7.8807,7.8807,7.8807,7.8807,7.9016,8.0195,8.1471,8.2597,8.2747,8.2567,8.2327,8.2327,8.2327,8.2327,8.2327,8.2327,8.2327,8.2327,8.2327,8.2327,8.2327,8.2327,8.2327,8.2327,8.2327,8.2327,8.2327,8.2327,8.2327,8.2327,8.2327,8.2327,8.2327,8.2477,8.2567,8.2567,8.2717,8.3027,8.3628,8.3587,8.3726,8.4235,8.4265,8.4265,8.4265,8.4265,8.4564,8.5222,8.5731,8.5821,8.5462,8.5312,8.4983,8.4455,8.4325,8.3995,3.2401,3.5417,3.799,3.6885,3.6607,3.6068,3.4011,3.247,3.1301,0.0,0.0,0.0,0.0,0.0,0.0,0.0,3.5881,0.0,4.6893,5.3393,5.9131,6.3837,6.6415,6.8881,0.0,7.3819,7.5806,7.7681,7.8045,7.8063,7.7832,7.8045,7.76,7.6406,7.6801,7.6943,7.6808,7.7454,7.7801,7.7813,7.846,7.8807,7.8807,7.8807,7.8807,7.8807,7.8807,7.8807,7.8807,7.8807,7.8807,7.8807,7.8807,7.8807,7.8807,7.8807,7.8807,7.8819,7.9148,7.9656,8.0303,8.1003,8.1949,8.2806,8.2806,8.2806,8.2806,8.2806,8.2806,8.2806,8.2806,8.2806,8.2806,8.2806,8.2806,8.2806,8.2806,8.2806,8.2806,8.2806,8.2806,8.2806,8.2806,8.2806,8.2806,8.2806,8.2806,8.2806,8.2806,8.2806,8.2806,8.2806,8.2806,8.3177,8.4066,8.4156,8.4305,8.4664,8.4694,8.4694,8.4694,8.4694,8.5013,8.5671,8.6349,8.6529,8.617,8.5851,8.5521,8.5162,8.4844,8.4515,3.1777,3.3298,3.4477,3.4123,3.4223,3.4098,3.2957,0.0,0.0,0.0,0.0,0.0,0.0,3.1775,0.0,0.0,0.0,0.0,5.3231,5.8126,6.2761,6.8258,7.0495,0.0,7.5533,7.6635,7.763,7.8717,7.8807,7.8807,7.8807,7.8807,7.822,7.7006,7.6946,7.6856,7.6659,7.7215,7.7514,7.7532,7.828,7.8639,7.8639,7.8747,7.8807,7.8807,0.0,0.0,7.8807,7.8807,7.8807,7.8807,7.8807,7.8807,7.8807,7.8807,7.8807,7.8878,7.9548,8.0674,8.18,8.18,8.2249,8.2806,8.2806,8.2806,8.2806,8.2806,8.2806,8.2806,8.2806,8.2806,8.2806,8.2806,8.2806,8.2806,8.2806,8.2806,8.2806,8.2806,8.2806,8.2806,8.2806,8.2806,8.2806,8.2806,8.2806,8.2806,8.2806,8.2806,8.2806,8.2806,8.2806,8.3266,8.4455,8.4634,8.4724,8.4844,8.4953,8.5013,8.5013,8.5013,8.5282,8.5821,8.6409,8.6708,8.6708,8.614,8.5851,8.5821,8.5282,8.4953,3.1235,3.2742,3.4112,3.4477,3.5655,3.6383,3.5244,3.4867,0.0,0.0,0.0,0.0,0.0,3.5138,3.6845,0.0,0.0,5.2279,0.0,0.0,6.5711,7.0159,0.0,7.4601,7.6587,7.7538,7.8245,7.8753,7.8807,7.8807,7.8807,7.8807,7.846,7.7664,7.7634,7.7125,7.6066,7.6155,7.6168,7.6215,7.7382,7.7951,7.7981,7.8519,7.8807,7.8807,0.0,7.8807,7.8807,7.8807,7.8807,7.8807,7.8807,7.8807,7.8807,7.8807,7.8807,7.8878,7.9548,8.0674,8.18,8.18,8.2249,8.2806,8.2806,8.2806,8.2806,8.2806,8.2806,8.2806,8.2806,8.2806,8.2806,8.2806,8.2806,8.2806,8.2806,8.2806,8.2806,8.2806,8.2806,8.2806,8.2806,8.2806,8.2806,8.2806,8.2806,8.2806,8.2806,8.2806,8.2806,8.2806,8.2806,8.3087,8.3797,8.4365,8.4953,8.5521,8.608,8.6379,8.6379,8.6379,8.6439,8.6529,8.6648,8.6708,8.6708,8.6589,8.6559,8.6529,8.6439,8.611,3.112,3.2616,3.4173,3.5342,3.6622,3.7487,3.6961,3.6861,0.0,0.0,0.0,0.0,0.0,0.0,4.2295,4.8965,0.0,5.8808,6.3172,6.6075,6.9216,0.0,0.0,7.6354,7.7821,7.8318,7.8608,7.8789,7.8807,7.8807,7.8807,7.8807,7.8489,7.7813,7.7801,7.7203,7.5916,7.5916,7.5916,7.5916,7.7185,7.7801,7.7813,7.8489,7.8807,7.8807,7.8807,7.8807,7.8807,7.8807,7.8807,7.8807,7.8807,7.8807,7.8807,7.8807,7.9238,7.9926,8.0207,8.1231,8.2357,8.2357,8.2567,8.2806,8.2806,8.2806,8.2806,8.2806,8.2806,8.2806,8.2806,8.2806,8.2806,8.2806,8.2806,8.2806,8.2806,8.2806,8.2806,8.2806,8.2806,8.2806,8.2806,8.2806,8.2806,8.2806,8.2806,8.2806,8.2806,8.2806,8.2806,8.2806,8.2806,8.3027,8.3628,8.3987,8.4754,8.617,8.6529,8.6708,8.6708,8.6708,8.6708,8.6708,8.6708,8.6708,8.6708,8.6708,8.6708,8.6708,8.6708,8.6529,3.0994,3.2441,3.4098,3.5768,0.0,3.8492,3.8894,0.0,0.0,0.0,0.0,0.0,0.0,4.3133,0.0,5.642,6.0186,6.3538,6.7751,6.9922,7.2282,7.5538,7.6739,7.7685,7.8698,7.8807,7.8807,7.8807,7.8807,7.8807,7.8807,7.8807,7.8549,7.8041,7.8041,7.7502,7.6365,7.6335,7.6125,7.5677,7.6963,7.7574,7.7574,7.843,7.8807,7.8807,7.8807,7.8807,7.8807,7.8807,7.8807,7.8807,7.8807,7.8807,7.8807,7.8807,7.9656,8.0794,8.0794,8.168,8.2806,8.2806,8.2806,8.2806,8.2806,8.2806,8.2806,8.2806,8.2806,8.2806,8.2806,8.2806,8.2806,8.2806,8.2806,8.2806,8.2806,8.2806,8.2806,8.2806,8.2806,8.2806,8.2806,8.2806,8.2806,8.2806,8.2806,8.2806,8.2806,8.2806,8.2806,8.2806,8.2806,8.3027,8.3628,8.3837,8.4664,8.6349,8.6619,8.6708,8.6708,8.6708,8.6708,8.6708,8.6708,8.6708,8.6708,8.6708,8.6708,8.6708,8.6708,8.6708,3.0648,3.1888,3.3567,3.5168,3.7601,0.0,4.1532,4.2674,0.0,4.3338,0.0,0.0,0.0,4.8624,5.3937,5.9217,6.2438,6.5878,7.056,0.0,7.4242,7.6627,7.7612,7.83,7.8753,7.8807,7.8807,7.8807,7.8807,7.8807,7.8807,7.8807,7.8777,7.8747,7.8747,7.84,7.7682,7.7682,7.6754,7.4976,7.6258,7.6868,7.6916,7.822,7.8807,7.8807,7.8807,7.8807,7.8807,7.8807,7.8807,7.8807,7.8807,7.8807,7.8807,7.8807,7.9656,8.0794,8.0794,8.168,8.2806,8.2806,8.2806,8.2806,8.2806,8.2806,8.2806,8.2806,8.2806,8.2806,8.2806,8.2806,8.2806,8.2806,8.2806,8.2806,8.2806,8.2806,8.2806,8.2806,8.2806,8.2806,8.2806,8.2806,8.2806,8.2806,8.2806,8.2806,8.2806,8.2806,8.2806,8.2806,8.2806,8.3027,8.3628,8.4275,8.4953,8.5731,8.6349,8.6708,8.6708,8.6708,8.6708,8.6708,8.6708,8.6708,8.6708,8.6708,8.6708,8.6708,8.6708,8.6708,3.1416,3.2054,3.3093,3.5454,3.7889,0.0,0.0,4.4819,4.6552,4.7255,0.0,0.0,0.0,0.0,5.7545,6.2374,6.5674,6.9304,7.4109,7.5242,7.6213,7.791,7.8391,7.8626,7.8789,7.8807,7.8807,7.8807,7.8807,7.8807,7.8807,7.8807,7.8807,7.8807,7.8807,7.846,7.7813,7.7801,7.7233,7.6078,7.6976,7.7424,7.7454,7.837,7.8807,7.8807,7.8807,7.8807,7.8807,7.8807,7.8807,7.8807,7.8807,7.8807,7.8807,7.8807,7.9656,8.0794,8.0794,8.168,8.2806,8.2806,8.2806,8.2806,8.2806,8.2806,8.2806,8.2806,8.2806,8.2806,8.2806,8.2806,8.2806,8.2806,8.2806,8.2806,8.2806,8.2806,8.2806,8.2806,8.2806,8.2806,8.2806,8.2806,8.2806,8.2806,8.2806,8.2806,8.2806,8.2806,8.2806,8.2806,8.2806,8.2896,8.3117,8.4115,8.4814,8.5073,8.611,8.6708,8.6708,8.6708,8.6708,8.6708,8.6708,8.6708,8.6708,8.6708,8.6708,8.6708,8.6708,8.6708,3.1777,3.2079,3.2832,3.5465,0.0,0.0,4.4066,4.6838,4.9047,5.0368,5.1581,0.0,0.0,0.0,0.0,0.0,6.7662,7.1327,7.6135,7.6779,7.7305,7.8639,7.8807,7.8807,7.8807,7.8807,7.8807,7.8807,7.8807,7.8807,7.8807,7.8807,7.8807,7.8807,7.8807,7.8579,7.813,7.813,7.7891,7.7424,7.7921,7.8011,7.7813,7.8489,7.8807,7.8807,7.8807,7.8807,7.8807,7.8807,7.8807,7.8807,7.8807,7.8807,7.8807,7.8807,7.9656,8.0794,8.0794,8.168,8.2806,8.2806,8.2806,8.2806,8.2806,8.2806,8.2806,8.2806,8.2806,8.2806,8.2806,8.2806,8.2806,8.2806,8.2806,8.2806,8.2806,8.2806,8.2806,8.2806,8.2806,8.2806,8.2806,8.2806,8.2806,8.2806,8.2806,8.2806,8.2806,8.2806,8.2806,8.2806,8.2806,8.2896,8.3087,8.4085,8.4784,8.5013,8.608,8.6708,8.6708,8.6708,8.6708,8.6708,8.6708,8.6708,8.6708,8.6708,8.6708,8.6708,8.6708,8.6708,3.1572,3.1813,3.2746,3.4993,0.0,0.0,4.5995,4.883,5.0929,5.2636,0.0,5.498,0.0,0.0,0.0,6.4998,6.8033,7.1512,7.6153,7.6779,7.7305,7.8639,7.8807,7.8807,7.8807,7.8807,7.8807,7.8807,7.8807,7.8807,7.8807,7.8807,7.8807,7.8807,7.8807,7.8807,7.8807,7.8807,7.8807,7.8807,7.8807,7.846,7.7813,7.8489,7.8807,7.8807,7.8807,7.8807,7.8807,7.8807,7.8807,7.8807,7.8807,7.8807,7.8807,7.8837,7.9656,8.0823,8.0823,8.168,8.2806,8.2806,8.2806,8.2806,8.2806,8.2806,8.2806,8.2806,8.2806,8.2806,8.2806,8.2806,8.2806,8.2806,8.2806,8.2806,8.2806,8.2806,8.2806,8.2806,8.2806,8.2806,8.2806,8.2806,8.2806,8.2806,8.2806,8.2806,8.2806,8.2806,8.2806,8.2806,8.2806,8.3027,8.3628,8.4305,8.4983,8.5671,8.6319,8.6708,8.6708,8.6708,8.6708,8.6708,8.6708,8.6708,8.6708,8.6708,8.6708,8.6708,8.6708,8.6708,3.3334,3.3836,0.0,3.8166,0.0,0.0,0.0,5.113,0.0,0.0,5.8564,5.8306,5.8086,0.0,0.0,6.5279,6.7942,7.131,7.6135,7.6779,7.7305,7.8639,7.8807,7.8807,7.8807,7.8807,7.8807,7.8807,7.8807,7.8807,7.8807,7.8807,7.8807,7.8807,7.8807,7.8807,7.8807,7.8807,7.8549,7.81,7.8579,7.8699,7.8519,7.8699,7.8807,7.8807,7.8807,7.8807,7.8807,7.8807,7.8807,7.8867,7.9327,7.9489,7.9548,8.0045,8.0764,8.15,8.15,8.2069,8.2806,8.2806,8.2806,8.2806,8.2806,8.2806,8.2806,8.2806,8.2806,8.2806,8.2806,8.2806,8.2806,8.2806,8.2806,8.2806,8.2806,8.2806,8.2806,8.2806,8.2806,8.2806,8.2806,8.2806,8.2806,8.2806,8.2806,8.2806,8.2806,8.2806,8.2806,8.2806,8.2806,8.3027,8.3628,8.4305,8.4983,8.5671,8.6319,8.6708,8.6708,8.6708,8.6708,8.6708,8.6708,8.6708,8.6708,8.6708,8.6708,8.6708,8.6708,8.6708,3.4162,3.533,0.0,4.0839,4.4227,4.7892,5.2862,0.0,0.0,0.0,6.1595,6.1408,6.1069,6.257,0.0,6.6932,6.9205,7.2087,7.6213,7.6779,7.7305,7.8639,7.8807,7.8807,7.8807,7.8807,7.8807,7.8807,7.8807,7.8807,7.8807,7.8807,7.8807,7.8807,7.8807,7.8807,7.8807,7.8807,7.8579,7.819,7.8609,7.8807,7.8807,7.8807,7.8807,7.8807,7.8807,7.8807,7.8807,7.8807,7.8938,7.9238,7.9638,7.9967,8.0237,8.0644,8.1212,8.18,8.18,8.2238,8.2806,8.2806,8.2806,8.2806,8.2806,8.2806,8.2806,8.2806,8.2806,8.2806,8.2806,8.2806,8.2806,8.2806,8.2806,8.2806,8.2806,8.2806,8.2806,8.2806,8.2806,8.2806,8.2806,8.2997,8.3177,8.3177,8.3386,8.3566,8.3566,8.3326,8.3266,8.3536,8.3326,8.3517,8.4425,8.4844,8.5372,8.605,8.6469,8.6708,8.6708,8.6708,8.6708,8.6708,8.6708,8.6708,8.6708,8.6708,8.6708,8.6708,8.6708,8.6708,3.4363,3.6547,3.9232,4.3137,4.7205,0.0,5.8152,5.9641,6.0291,6.2301,0.0,6.4363,6.4503,6.6506,6.8507,6.9722,7.1389,7.3538,7.6415,7.6779,7.7305,7.8639,7.8807,7.8807,7.8807,7.8807,7.8807,7.8807,7.8807,7.8807,7.8807,7.8807,7.8807,7.8807,7.8807,7.8807,7.8807,7.8807,7.8759,7.8699,7.8759,7.8777,7.8699,7.8759,7.8807,7.8807,7.8807,7.8807,7.8807,7.8807,7.9148,7.9728,7.9848,8.0266,8.0823,8.0943,8.1381,8.189,8.189,8.2297,8.2806,8.2806,8.2806,8.2806,8.2806,8.2806,8.2806,8.2806,8.2806,8.2806,8.2806,8.2806,8.2806,8.2806,8.2806,8.2806,8.2806,8.2806,8.2806,8.2806,8.2806,8.2806,8.2806,8.3307,8.3718,8.3777,8.4305,8.4694,8.4694,8.4126,8.3957,8.4634,8.4096,8.4245,8.5581,8.5701,8.599,8.6648,8.6708,8.6708,8.6708,8.6708,8.6708,8.6708,8.6708,8.6708,8.6708,8.6708,8.6708,8.6708,8.6708,8.6708,3.5225,3.8253,4.1528,4.5417,5.0938,5.6251,5.9413,6.1557,6.3324,6.4757,6.5956,6.7275,6.9077,7.0025,7.1095,7.2692,7.3307,7.4335,7.6509,7.6779,7.7305,7.8639,7.8807,7.8807,7.8807,7.8807,7.8807,7.8807,7.8807,7.8807,7.8807,7.8807,7.8807,7.8807,7.8807,7.8807,7.8807,7.8807,7.8519,7.8041,7.8549,7.8519,7.8041,7.8549,7.8807,7.8807,7.8807,7.8807,7.8807,7.8807,7.8878,7.9118,8.0165,8.0674,8.0913,8.1979,8.2477,8.2597,8.2597,8.2687,8.2806,8.2806,8.2806,8.2806,8.2806,8.2806,8.2806,8.2806,8.2806,8.2806,8.2806,8.2806,8.2806,8.2806,8.2806,8.2806,8.2806,8.2806,8.2806,8.2806,8.2806,8.2806,8.2806,8.3307,8.3886,8.4395,8.4604,8.4694,8.4694,8.4126,8.3957,8.4634,8.4096,8.4245,8.5581,8.5701,8.599,8.6648,8.6708,8.6708,8.6708,8.6708,8.6708,8.6708,8.6708,8.6708,8.6708,8.6708,8.6708,8.6708,8.6708,8.6708,3.5803,3.9772,4.4464,5.1013,5.563,5.9037,6.0719,6.2924,6.5136,6.6937,6.8092,6.9344,7.1144,7.2151,7.2987,7.3763,7.4151,7.4839,7.6168,7.6377,7.6736,7.7741,7.7861,7.7861,7.7861,7.7861,7.7861,7.7861,7.7861,7.7861,7.7861,7.7861,7.7861,7.7861,7.7861,7.7861,7.7861,7.7861,7.7682,7.7335,7.7664,7.7831,7.7813,7.8489,7.8807,7.8807,7.8807,7.8807,7.8807,7.8807,7.8998,7.9357,8.0045,8.0704,8.1381,8.2069,8.2537,8.2806,8.2806,8.2806,8.2806,8.2806,8.2806,8.2806,8.2806,8.2806,8.2806,8.2806,8.2806,8.2806,8.2806,8.2806,8.2806,8.2806,8.2806,8.2806,8.2806,8.2806,8.2806,8.2806,8.2806,8.2806,8.2806,8.3576,8.4515,8.5521,8.5671,8.5671,8.5671,8.5073,8.4904,8.5581,8.5073,8.5073,8.611,8.617,8.6319,8.6678,8.6708,8.6708,8.6708,8.6708,8.6708,8.6708,8.6708,8.6708,8.6708,8.6708,8.6708,8.6708,8.6708,8.6708,3.5979,4.1307,4.785,5.6829,5.9854,6.0947,6.2163,6.4182,6.6438,6.8652,6.9812,7.0858,7.2304,7.3586,7.4329,7.4117,7.4527,7.5125,7.5826,7.5916,7.6108,7.6719,7.6779,7.6779,7.6779,7.6779,7.6779,7.6779,7.6779,7.6779,7.6779,7.6779,7.6779,7.6779,7.6779,7.6779,7.6779,7.6779,7.6779,7.6779,7.6916,7.7275,7.7813,7.8489,7.8807,7.8807,7.8807,7.8807,7.8807,7.8807,7.9118,7.9638,7.9878,8.0644,8.165,8.189,8.2309,8.2806,8.2806,8.2806,8.2806,8.2806,8.2806,8.2806,8.2806,8.2806,8.2806,8.2806,8.2806,8.2806,8.2806,8.2806,8.2806,8.2806,8.2896,8.2967,8.2967,8.2967,8.2967,8.3087,8.3027,8.2967,8.3087,8.3995,8.5162,8.6499,8.6708,8.6708,8.6708,8.611,8.594,8.6619,8.611,8.597,8.6648,8.6708,8.6708,8.6708,8.6708,8.6708,8.6708,8.6708,8.6708,8.6708,8.6708,8.6708,8.6708,8.6708,8.6708,8.6708,8.6708,8.6708,3.5312,4.3175,5.1819,5.8776,6.1223,6.2341,6.3831,6.5877,6.7955,6.9588,7.0624,7.1906,7.4117,7.4689,7.4805,7.4766,7.4826,7.5125,7.5826,7.5916,7.6108,7.6719,7.6779,7.6779,7.6779,7.6779,7.6779,7.6779,7.6779,7.6779,7.6779,7.6779,7.6779,7.6779,7.6779,7.6779,7.6779,7.6779,7.6779,7.6808,7.7394,7.7694,7.7813,7.8489,7.8807,7.8807,7.8807,7.8807,7.8807,7.8807,7.8849,7.9058,8.0225,8.0764,8.1063,8.2238,8.2717,8.2806,8.2806,8.2806,8.2806,8.2806,8.2806,8.2806,8.2806,8.2806,8.2806,8.2806,8.2806,8.2806,8.2806,8.2806,8.2806,8.2806,8.3187,8.3587,8.3587,8.3587,8.3767,8.4325,8.3976,8.3767,8.4354,8.4574,8.5162,8.6499,8.6708,8.6708,8.6708,8.611,8.594,8.6619,8.611,8.597,8.6648,8.6708,8.6708,8.6708,8.6708,8.6708,8.6708,8.6708,8.6708,8.6708,8.6708,8.6708,8.6708,8.6708,8.6708,8.6708,8.6708,8.6708,3.9371,4.678,5.3979,6.0962,6.3354,6.4513,6.6526,6.8071,6.9486,7.0842,7.1769,7.2863,7.4594,7.4886,7.4886,7.4886,7.4886,7.5006,7.5305,7.5335,7.5455,7.5707,7.5736,7.5736,7.5736,7.5736,7.5736,7.5736,7.5736,7.5736,7.5736,7.5736,7.5736,7.5736,7.5736,7.5736,7.5736,7.5736,7.5736,7.5736,7.6425,7.6754,7.6784,7.7771,7.843,7.8807,7.8807,7.8807,7.8807,7.8807,7.8807,7.8897,7.9866,8.0464,8.0913,8.189,8.2477,8.2806,8.2806,8.2806,8.2806,8.2806,8.2806,8.2806,8.2806,8.2806,8.2806,8.2806,8.2806,8.2896,8.3217,8.3307,8.3397,8.3775,8.4085,8.4365,8.4724,8.4515,8.4365,8.4634,8.4455,8.4485,8.5162,8.5252,8.5581,8.6559,8.6708,8.6708,8.6708,8.6439,8.6379,8.6648,8.6439,8.6379,8.6678,8.6708,8.6708,8.6708,8.6708,8.6708,8.6708,8.6708,8.6708,8.6708,8.6708,8.6708,8.6708,8.6708,8.6708,8.6708,8.6708,8.6708,4.1605,4.7871,5.3586,6.0717,6.3463,6.5172,6.7884,6.9415,7.06,7.1934,7.2852,7.3702,7.4714,7.4886,7.4886,7.4886,7.4886,7.4886,7.4886,7.4886,7.4886,7.4886,7.4886,7.4886,7.4886,7.4886,7.4886,7.4886,7.4886,7.4886,7.4886,7.4886,7.4886,7.4886,7.4886,7.4886,7.4886,7.4886,7.4886,7.4916,7.5587,7.5916,7.5929,7.7233,7.8071,7.8567,7.8747,7.8807,7.8807,7.8807,7.8807,7.8878,7.9746,8.0356,8.0883,8.174,8.2368,8.2806,8.2806,8.2806,8.2806,8.2806,8.2806,8.2806,8.2806,8.2806,8.2806,8.2806,8.2926,8.3147,8.3587,8.3827,8.4096,8.4574,8.4833,8.5103,8.5581,8.5432,8.5162,8.4983,8.4953,8.5103,8.5611,8.5701,8.593,8.6589,8.6708,8.6708,8.6708,8.6708,8.6708,8.6708,8.6708,8.6708,8.6708,8.6708,8.6708,8.6708,8.6708,8.6708,8.6708,8.6708,8.6708,8.6708,8.6708,8.6708,8.6708,8.6708,8.6708,8.6708,8.6708,8.6708,3.8843,4.3966,4.9639,5.6135,5.9828,6.2867,6.6631,6.9096,7.104,7.2689,7.3667,7.437,7.4817,7.4886,7.4886,7.4886,7.4886,7.4886,7.4886,7.4886,7.4886,7.4886,7.4886,7.4886,7.4886,7.4886,7.4886,7.4886,7.4886,7.4886,7.4886,7.4886,7.4886,7.4886,7.4886,7.4886,7.4886,7.4886,7.4886,7.4916,7.5587,7.5916,7.5929,7.7233,7.7813,7.7891,7.8519,7.8807,7.8807,7.8807,7.8807,7.8926,8.0225,8.0764,8.0943,8.2268,8.2776,8.2806,8.2806,8.2806,8.2806,8.2806,8.2806,8.2806,8.2806,8.2806,8.2806,8.2806,8.3217,8.3658,8.3688,8.4186,8.4664,8.4694,8.5192,8.5671,8.5671,8.617,8.6409,8.5761,8.5641,8.5671,8.5701,8.5701,8.593,8.6589,8.6708,8.6708,8.6708,8.6708,8.6708,8.6708,8.6708,8.6708,8.6708,8.6708,8.6708,8.6708,8.6708,8.6708,8.6708,8.6708,8.6708,8.6708,8.6708,8.6708,8.6708,8.6708,8.6708,8.6708,8.6708,8.6708,3.6533,4.0901,4.5959,5.2812,5.7093,6.0968,6.5999,6.9034,7.1321,7.3222,7.4193,7.4731,7.4869,7.4886,7.4886,7.4886,7.4886,7.4886,7.4886,7.4886,7.4886,7.4886,7.4886,7.4886,7.4886,7.4886,7.4886,7.4886,7.4886,7.4886,7.4886,7.4886,7.4886,7.4886,7.4886,7.4886,7.4886,7.4886,7.4886,7.4886,7.5155,7.5275,7.5305,7.6587,7.7155,7.7215,7.831,7.8807,7.8807,7.8807,7.8807,7.8926,8.0285,8.0794,8.0943,8.2327,8.2806,8.2806,8.2806,8.2806,8.2806,8.2806,8.2806,8.2866,8.3247,8.3397,8.3487,8.3906,8.4175,8.4425,8.4874,8.5162,8.5462,8.5881,8.617,8.6349,8.6349,8.6529,8.6619,8.6379,8.6349,8.6349,8.6349,8.6349,8.6409,8.6648,8.6708,8.6708,8.6708,8.6708,8.6708,8.6708,8.6708,8.6708,8.6708,8.6708,8.6708,8.6708,8.6708,8.6708,8.6708,8.6708,8.6708,8.6708,8.6708,8.6708,8.6708,8.6708,8.6708,8.6708,8.6708,8.6708,3.3922,3.761,4.205,4.801,5.2452,5.6816,6.2404,6.6221,6.9333,7.2026,7.3432,7.4377,7.4826,7.4886,7.4886,7.4886,7.4886,7.4886,7.4886,7.4886,7.4886,7.4886,7.4886,7.4886,7.4886,7.4886,7.4886,7.4886,7.4886,7.4886,7.4886,7.4886,7.4886,7.4886,7.4886,7.4886,7.4886,7.4886,7.4886,7.4886,7.4886,7.4886,7.4946,7.6228,7.6779,7.6868,7.822,7.8807,7.8807,7.8807,7.8807,7.8926,8.0285,8.0794,8.0943,8.2327,8.2806,8.2806,8.2806,8.2806,8.2806,8.2806,8.2806,8.2926,8.3527,8.3688,8.3837,8.4515,8.4844,8.5132,8.5581,8.587,8.617,8.6589,8.6708,8.6708,8.6708,8.6708,8.6708,8.6708,8.6708,8.6708,8.6708,8.6708,8.6708,8.6708,8.6708,8.6708,8.6708,8.6708,8.6708,8.6708,8.6708,8.6708,8.6708,8.6708,8.6708,8.6708,8.6708,8.6708,8.6708,8.6708,8.6708,8.6708,8.6708,8.6708,8.6708,8.6708,8.6708,8.6708,8.6708,8.6708,0.0,0.0,0.0,4.1649,4.5763,5.0287,5.5649,6.0475,6.4964,6.8958,7.1411,7.3266,7.4646,7.4886,7.4886,7.4886,7.4886,7.4886,7.4886,7.4886,7.4886,7.4886,7.4886,7.4886,7.4886,7.4886,7.4886,7.4886,7.4886,7.4886,7.4886,7.4886,7.4886,7.4886,7.4886,7.4886,7.4886,7.4886,7.4886,7.4886,7.4886,7.4886,7.4946,7.6228,7.6779,7.6868,7.822,7.8807,7.8807,7.8807,7.8807,7.8926,8.0285,8.0794,8.0943,8.2327,8.2806,8.2806,8.2806,8.2806,8.2806,8.2806,8.2836,8.2937,8.3557,8.3748,8.3897,8.4574,8.5222,8.5731,8.5731,8.6229,8.6708,8.6708,8.6708,8.6708,8.6708,8.6708,8.6708,8.6708,8.6708,8.6708,8.6708,8.6708,8.6708,8.6708,8.6708,8.6708,8.6708,8.6708,8.6708,8.6708,8.6708,8.6708,8.6708,8.6708,8.6708,8.6708,8.6708,8.6708,8.6708,8.6708,8.6708,8.6708,8.6708,8.6708,8.6708,8.6708,8.6708,8.6708,8.6708,8.6708,2.9418,0.0,0.0,0.0,0.0,0.0,5.0267,5.5748,6.112,6.6056,6.9407,7.2146,7.4467,7.4886,7.4886,7.4886,7.4886,7.4886,7.4886,7.4886,7.4886,7.4886,7.4886,7.4886,7.4886,7.4886,7.4886,7.4886,7.4886,7.4886,7.4886,7.4886,7.4886,7.4886,7.4886,7.4886,7.4886,7.4886,7.4886,7.4886,7.4886,7.4886,7.4946,7.6228,7.6779,7.6868,7.822,7.8807,7.8807,7.8807,7.8807,7.8926,8.0285,8.0794,8.0943,8.2327,8.2806,8.2806,8.2806,8.2806,8.2866,8.3307,8.3438,8.3647,8.4803,8.5162,8.5282,8.594,8.6289,8.6409,8.6409,8.6559,8.6708,8.6708,8.6708,8.6708,8.6708,8.6708,8.6708,8.6708,8.6708,8.6708,8.6708,8.6708,8.6708,8.6708,8.6708,8.6708,8.6708,8.6708,8.6708,8.6708,8.6708,8.6708,8.6708,8.6708,8.6708,8.6708,8.6708,8.6708,8.6708,8.6708,8.6708,8.6708,8.6708,8.6708,8.6708,8.6708,8.6708,8.6708,8.6708,8.6708,0.0,0.0,0.0,0.0,0.0,0.0,4.5545,5.1001,5.6572,6.1299,6.5144,6.8451,7.1115,7.1593,7.1593,7.1593,7.2072,7.3,7.4676,7.4886,7.4886,7.4886,7.4886,7.4886,7.4886,7.4886,7.4886,7.4886,7.4886,7.4886,7.4886,7.4886,7.4886,7.4886,7.4886,7.4886,7.4886,7.4886,7.4886,7.4886,7.4886,7.4886,7.4946,7.6228,7.6779,7.6868,7.822,7.8807,7.8807,7.8807,7.8807,7.8926,8.0285,8.0794,8.0943,8.2327,8.2806,8.2806,8.2806,8.2806,8.2896,8.3497,8.3688,8.3946,8.5282,8.5701,8.5821,8.6499,8.6708,8.6708,8.6708,8.6499,8.6349,8.6619,8.6499,8.6349,8.6648,8.6708,8.6708,8.6708,8.6708,8.6708,8.6708,8.6708,8.6708,8.6708,8.6708,8.6708,8.6708,8.6708,8.6708,8.6708,8.6708,8.6708,8.6708,8.6708,8.6708,8.6708,8.6708,8.6708,8.6708,8.6708,8.6708,8.6708,8.6708,8.6708,8.6708,8.6708,8.6708,8.6708,8.6708,8.6708,0.0,0.0,0.0,0.0,0.0,0.0,4.1529,4.6362,5.1546,5.5418,5.9382,6.2944,6.5727,6.6161,6.6146,6.6221,6.7418,6.9782,7.3868,7.4587,7.4736,7.4886,7.4886,7.4886,7.4886,7.4886,7.4886,7.4886,7.4886,7.4886,7.4886,7.4886,7.4886,7.4886,7.4886,7.4886,7.4886,7.4886,7.4886,7.4886,7.4886,7.4886,7.4946,7.6228,7.6779,7.6868,7.822,7.8807,7.8807,7.8807,7.8807,7.8926,8.0285,8.0794,8.0943,8.2327,8.2806,8.2806,8.2896,8.2896,8.2997,8.3707,8.3927,8.4156,8.5432,8.5791,8.596,8.6529,8.6708,8.6678,8.6619,8.617,8.5851,8.6439,8.614,8.5881,8.6559,8.6708,8.6708,8.6708,8.6708,8.6708,8.6708,8.6708,8.6708,8.6708,8.6708,8.6708,8.6708,8.6708,8.6708,8.6708,8.6708,8.6708,8.6708,8.6708,8.6708,8.6708,8.6708,8.6708,8.6708,8.6708,8.6708,8.6708,8.6708,8.6708,8.6708,8.6708,8.6708,8.6708,8.6708,8.6708,3.3004,3.3707,3.4562,0.0,0.0,0.0,3.9002,4.2521,4.664,5.0115,5.3545,5.7064,6.0759,6.1014,6.0805,6.1357,6.3033,6.5997,7.0979,7.2624,7.3702,7.4766,7.4886,7.4886,7.4886,7.4886,7.4886,7.4886,7.4886,7.4886,7.4886,7.4886,7.4886,7.4886,7.4886,7.4886,7.4886,7.4886,7.4886,7.4886,7.4886,7.4886,7.4946,7.6228,7.6779,7.6868,7.822,7.8807,7.8807,7.8807,7.8807,7.8926,8.0285,8.0794,8.0943,8.2327,8.2806,8.2866,8.3367,8.3527,8.3707,8.4923,8.5312,8.5462,8.6259,8.6499,8.6529,8.6648,8.6708,8.6589,8.605,8.5791,8.5731,8.5851,8.5791,8.5881,8.6559,8.6708,8.6708,8.6708,8.6708,8.6708,8.6708,8.6708,8.6708,8.6708,8.6708,8.6708,8.6708,8.6708,8.6708,8.6708,8.6708,8.6708,8.6708,8.6708,8.6708,8.6708,8.6708,8.6708,8.6708,8.6708,8.6708,8.6708,8.6708,8.6708,8.6708,8.6708,8.6708,8.6708,8.6708,8.6708,3.6163,3.6924,3.754,3.811,0.0,0.0,0.0,4.0975,4.3998,4.6332,4.9164,5.2067,5.4688,5.5166,5.5256,5.5628,5.7646,6.0639,6.4904,6.8944,7.2176,7.4168,7.4108,7.3881,7.3881,7.3881,7.4031,7.4377,7.4407,7.4557,7.4886,7.4886,7.4886,7.4886,7.4886,7.4886,7.4886,7.4886,7.4886,7.4886,7.4886,7.4886,7.4946,7.6228,7.6779,7.6868,7.822,7.8807,7.8807,7.8807,7.8807,7.8926,8.0285,8.0794,8.0943,8.2327,8.2806,8.2896,8.3497,8.3688,8.3927,8.5252,8.5701,8.5821,8.6499,8.6708,8.6708,8.6708,8.6469,8.614,8.5791,8.5192,8.4874,8.5551,8.5432,8.5492,8.6469,8.6708,8.6708,8.6708,8.6708,8.6708,8.6708,8.6708,8.6708,8.6708,8.6708,8.6708,8.6708,8.6708,8.6708,8.6708,8.6708,8.6708,8.6708,8.6708,8.6708,8.6708,8.6708,8.6708,8.6708,8.6708,8.6708,8.6708,8.6708,8.6708,8.6708,8.6708,8.6708,8.6708,8.6708,8.6708,0.0,0.0,0.0,0.0,0.0,4.0012,0.0,0.0,0.0,4.314,4.5185,4.716,4.8454,4.9022,4.9363,4.9482,5.1738,5.461,5.7902,6.3452,6.8541,7.2312,7.2295,7.2056,7.2325,7.2428,7.2744,7.3283,7.3432,7.3808,7.4467,7.4766,7.4886,7.4886,7.4886,7.4886,7.4886,7.4886,7.4886,7.4886,7.4886,7.4886,7.4946,7.6228,7.6779,7.6868,7.822,7.8807,7.8807,7.8807,7.8807,7.8926,8.0285,8.0794,8.0943,8.2327,8.2806,8.2896,8.3647,8.3886,8.4126,8.5462,8.59,8.599,8.6529,8.6708,8.6678,8.6529,8.611,8.5641,8.5372,8.4515,8.4006,8.5222,8.5083,8.5073,8.6409,8.6708,8.6708,8.6708,8.6708,8.6708,8.6708,8.6708,8.6708,8.6708,8.6708,8.6708,8.6708,8.6708,8.6708,8.6708,8.6708,8.6708,8.6708,8.6708,8.6708,8.6708,8.6708,8.6708,8.6708,8.6708,8.6708,8.6708,8.6708,8.6708,8.6708,8.6708,8.6708,8.6708,8.6708,8.6708,0.0,0.0,0.0,0.0,4.2065,0.0,0.0,0.0,3.978,3.993,0.0,4.1693,4.303,0.0,0.0,4.3299,4.5603,4.8454,5.1756,5.491,5.9801,6.7748,6.8616,6.9019,7.0217,7.0799,7.1158,7.1248,7.1803,7.2432,7.3086,7.4257,7.4886,7.4886,7.4886,7.4886,7.4886,7.4886,7.4886,7.4886,7.4886,7.4886,7.4946,7.6228,7.6779,7.6868,7.822,7.8807,7.8807,7.8807,7.8807,7.8926,8.0285,8.0794,8.0943,8.2327,8.2806,8.2986,8.4175,8.4574,8.4814,8.617,8.6589,8.6589,8.6678,8.6708,8.6589,8.599,8.5761,8.5432,8.4245,8.3807,8.3886,8.4634,8.4773,8.5073,8.6409,8.6708,8.6708,8.6708,8.6708,8.6708,8.6708,8.6708,8.6708,8.6708,8.6708,8.6708,8.6708,8.6708,8.6708,8.6708,8.6708,8.6708,8.6708,8.6708,8.6708,8.6708,8.6708,8.6708,8.6708,8.6708,8.6708,8.6708,8.6708,8.6708,8.6708,8.6708,8.6708,8.6708,8.6708,8.6708,0.0,0.0,0.0,0.0,0.0,0.0,0.0,0.0,4.0457,0.0,0.0,0.0,0.0,0.0,0.0,0.0,4.4267,4.6461,4.8645,5.0242,5.4084,6.1926,6.3528,6.4814,6.6909,6.8046,6.881,6.9199,6.9468,7.0426,7.2206,7.3599,7.4497,7.4886,7.4886,7.4886,7.4886,7.4886,7.4886,7.4886,7.4886,7.4886,7.4946,7.6228,7.6779,7.6868,7.822,7.8807,7.8819,7.9238,7.9387,7.9507,8.0872,8.1123,8.0943,8.2327,8.2806,8.2986,8.4265,8.4694,8.4904,8.6259,8.6708,8.6708,8.6708,8.6439,8.608,8.5761,8.5132,8.4425,8.3837,8.3438,8.3427,8.4455,8.4694,8.5073,8.6409,8.6708,8.6708,8.6708,8.6708,8.6708,8.6708,8.6708,8.6708,8.6708,8.6708,8.6708,8.6708,8.6708,8.6708,8.6708,8.6708,8.6708,8.6708,8.6708,8.6708,8.6708,8.6708,8.6708,8.6708,8.6708,8.6708,8.6708,8.6708,8.6708,8.6708,8.6708,8.6708,8.6708,8.6708,8.6708,5.3327,0.0,0.0,0.0,0.0,0.0,0.0,0.0,0.0,0.0,0.0,0.0,0.0,0.0,0.0,0.0,0.0,4.4566,4.5554,4.6093,4.9026,5.6107,5.8756,6.0821,6.29,6.447,6.5667,6.6326,6.655,6.7808,7.0426,7.2325,7.3659,7.4317,7.4706,7.4886,7.4886,7.4886,7.4886,7.4886,7.4886,7.5006,7.5215,7.6288,7.6916,7.7155,7.831,7.8807,7.8849,7.9519,7.9788,7.9937,8.1291,8.15,8.1212,8.2368,8.2806,8.2986,8.4265,8.4953,8.5402,8.6379,8.6708,8.6648,8.6469,8.611,8.5611,8.5252,8.4455,8.3658,8.3497,8.3147,8.3057,8.4175,8.4425,8.4784,8.614,8.6439,8.6469,8.6648,8.6708,8.6708,8.6708,8.6708,8.6708,8.6708,8.6708,8.6708,8.6708,8.6708,8.6708,8.6708,8.6708,8.6708,8.6708,8.6708,8.6708,8.6708,8.6708,8.6708,8.6708,8.6708,8.6708,8.6708,8.6708,8.6708,8.6708,8.6708,8.6708,8.6708,8.6708,8.6708,0.0,0.0,0.0,5.1565,0.0,0.0,0.0,0.0,4.1403,0.0,0.0,0.0,0.0,0.0,0.0,0.0,0.0,0.0,0.0,4.1613,4.4058,5.0679,5.488,5.7513,5.8234,6.0133,6.1569,6.2241,6.2884,6.441,6.7014,7.0217,7.2265,7.2937,7.4227,7.4886,7.4886,7.4886,7.4886,7.4886,7.4886,7.5245,7.5886,7.6527,7.7155,7.7813,7.8489,7.8807,7.8849,7.9519,7.9788,7.9937,8.1291,8.18,8.186,8.2537,8.2806,8.2986,8.4265,8.5551,8.6648,8.6678,8.6708,8.6589,8.593,8.5701,8.5432,8.4126,8.3718,8.3587,8.2967,8.2806,8.2967,8.3587,8.3718,8.4096,8.5432,8.5731,8.591,8.6559,8.6708,8.6708,8.6708,8.6708,8.6708,8.6708,8.6708,8.6708,8.6708,8.6708,8.6708,8.6708,8.6708,8.6708,8.6708,8.6708,8.6708,8.6708,8.6708,8.6708,8.6708,8.6708,8.6708,8.6708,8.6708,8.6708,8.6708,8.6708,8.6708,8.6708,8.6708,8.6708,0.0,0.0,5.8949,5.6931,0.0,0.0,0.0,0.0,0.0,0.0,0.0,0.0,0.0,0.0,0.0,0.0,0.0,0.0,0.0,4.0735,4.1723,4.4417,4.9007,5.2528,5.4042,5.6017,5.7453,5.8168,5.8783,6.0669,6.4231,6.7523,7.0217,7.2176,7.3539,7.4437,7.4886,7.4886,7.4886,7.4903,7.5365,7.5677,7.5946,7.6976,7.7574,7.7861,7.8519,7.8807,7.8897,8.0016,8.0464,8.0614,8.1949,8.2477,8.2507,8.2717,8.2806,8.2986,8.4265,8.5282,8.605,8.605,8.5731,8.5342,8.5103,8.4724,8.4275,8.3827,8.3408,8.3057,8.2866,8.2806,8.2937,8.3557,8.3688,8.4066,8.5402,8.5701,8.5881,8.6559,8.6708,8.6708,8.6708,8.6708,8.6708,8.6708,8.6708,8.6708,8.6708,8.6708,8.6708,8.6708,8.6708,8.6708,8.6708,8.6708,8.6708,8.6708,8.6708,8.6708,8.6708,8.6708,8.6708,8.6708,8.6708,8.6708,8.6708,8.6708,8.6708,8.6708,8.6708,8.6708,6.6206,6.5353,0.0,6.1942,5.889,0.0,5.245,0.0,0.0,0.0,0.0,0.0,0.0,0.0,0.0,0.0,0.0,0.0,0.0,3.9679,0.0,0.0,0.0,0.0,5.0301,5.2276,5.3803,5.4713,5.5132,5.7094,6.1118,6.465,6.7912,7.0785,7.2834,7.4227,7.4886,7.4886,7.4886,7.4916,7.5587,7.5988,7.6258,7.7305,7.7921,7.819,7.8609,7.8807,7.8878,8.0255,8.0794,8.0943,8.2297,8.2806,8.2806,8.2806,8.3106,8.3566,8.4126,8.4953,8.5671,8.5432,8.5043,8.4664,8.4425,8.4036,8.3658,8.3438,8.3117,8.2806,8.2806,8.2806,8.2896,8.3277,8.3397,8.3756,8.5073,8.5342,8.5611,8.6529,8.6708,8.6708,8.6708,8.6708,8.6708,8.6708,8.6708,8.6708,8.6708,8.6708,8.6708,8.6708,8.6708,8.6708,8.6708,8.6708,8.6708,8.6708,8.6708,8.6708,8.6708,8.6708,8.6708,8.6708,8.6708,8.6708,8.6708,8.6708,8.6708,8.6708,8.6708,8.6708]}]]